Wetterdaten: Sonntag, 02.02.2025
Datum Zeit Temp. I. Temp. A. Feuchte I. Feuchte A. Luftdruck Regen Wind Richtung Richtung Sonnenschein Solar Taupunkt Windchill Windböen
02.02.2025 00:00 21,6 °C 0,3 °C 49 % 90 % 1030,0 hPa 0,0 l/m² 0,0 km/h (0 Bft) SW 225 ° 0 min 0 W/m² -1,1 °C 0,3 °C 0,0 km/h (0 Bft)
02.02.2025 00:02 21,6 °C 0,3 °C 49 % 90 % 1030,0 hPa 0,0 l/m² 0,0 km/h (0 Bft) SW 225 ° 0 min 0 W/m² -1,1 °C 0,3 °C 0,0 km/h (0 Bft)
02.02.2025 00:03 21,6 °C 0,3 °C 49 % 91 % 1030,0 hPa 0,0 l/m² 0,0 km/h (0 Bft) SW 225 ° 0 min 0 W/m² -1,0 °C 0,3 °C 0,0 km/h (0 Bft)
02.02.2025 00:05 21,6 °C 0,2 °C 49 % 91 % 1030,1 hPa 0,0 l/m² 0,0 km/h (0 Bft) SW 225 ° 0 min 0 W/m² -1,1 °C 0,2 °C 0,0 km/h (0 Bft)
02.02.2025 00:07 21,6 °C 0,2 °C 49 % 90 % 1030,0 hPa 0,0 l/m² 0,0 km/h (0 Bft) SW 225 ° 0 min 0 W/m² -1,2 °C 0,2 °C 0,0 km/h (0 Bft)
02.02.2025 00:08 21,6 °C 0,2 °C 49 % 90 % 1030,0 hPa 0,0 l/m² 0,0 km/h (0 Bft) SW 225 ° 0 min 0 W/m² -1,2 °C 0,2 °C 0,0 km/h (0 Bft)
02.02.2025 00:10 21,6 °C 0,2 °C 49 % 90 % 1030,0 hPa 0,0 l/m² 0,0 km/h (0 Bft) SW 225 ° 0 min 0 W/m² -1,2 °C 0,2 °C 0,0 km/h (0 Bft)
02.02.2025 00:11 21,6 °C 0,2 °C 49 % 90 % 1029,9 hPa 0,0 l/m² 0,0 km/h (0 Bft) SW 225 ° 0 min 0 W/m² -1,2 °C 0,2 °C 0,0 km/h (0 Bft)
02.02.2025 00:13 21,6 °C 0,2 °C 49 % 91 % 1030,0 hPa 0,0 l/m² 0,0 km/h (0 Bft) SW 225 ° 0 min 0 W/m² -1,1 °C 0,2 °C 0,0 km/h (0 Bft)
02.02.2025 00:14 21,6 °C 0,2 °C 49 % 90 % 1029,9 hPa 0,0 l/m² 0,0 km/h (0 Bft) SW 225 ° 0 min 0 W/m² -1,2 °C 0,2 °C 0,0 km/h (0 Bft)
02.02.2025 00:16 21,6 °C 0,1 °C 49 % 91 % 1029,9 hPa 0,0 l/m² 0,0 km/h (0 Bft) SW 225 ° 0 min 0 W/m² -1,2 °C 0,1 °C 0,0 km/h (0 Bft)
02.02.2025 00:18 21,6 °C 0,1 °C 49 % 91 % 1029,9 hPa 0,0 l/m² 0,0 km/h (0 Bft) SW 225 ° 0 min 0 W/m² -1,2 °C 0,1 °C 0,0 km/h (0 Bft)
02.02.2025 00:19 21,5 °C 0,1 °C 49 % 91 % 1029,9 hPa 0,0 l/m² 0,0 km/h (0 Bft) SW 225 ° 0 min 0 W/m² -1,2 °C 0,1 °C 0,0 km/h (0 Bft)
02.02.2025 00:21 21,6 °C 0,1 °C 49 % 91 % 1029,9 hPa 0,0 l/m² 0,0 km/h (0 Bft) SW 225 ° 0 min 0 W/m² -1,2 °C 0,1 °C 0,0 km/h (0 Bft)
02.02.2025 00:22 21,5 °C 0,1 °C 49 % 91 % 1029,9 hPa 0,0 l/m² 0,0 km/h (0 Bft) SW 225 ° 0 min 0 W/m² -1,2 °C 0,1 °C 0,0 km/h (0 Bft)
02.02.2025 00:23 21,5 °C 0,1 °C 49 % 91 % 1029,9 hPa 0,0 l/m² 0,0 km/h (0 Bft) SW 225 ° 0 min 0 W/m² -1,2 °C 0,1 °C 0,0 km/h (0 Bft)
02.02.2025 00:24 21,6 °C 0,1 °C 49 % 91 % 1029,9 hPa 0,0 l/m² 0,0 km/h (0 Bft) SW 225 ° 0 min 0 W/m² -1,2 °C 0,1 °C 0,0 km/h (0 Bft)
02.02.2025 00:26 21,6 °C 0,1 °C 49 % 91 % 1029,9 hPa 0,0 l/m² 0,0 km/h (0 Bft) SW 225 ° 0 min 0 W/m² -1,2 °C 0,1 °C 0,0 km/h (0 Bft)
02.02.2025 00:28 21,6 °C 0,1 °C 49 % 91 % 1029,9 hPa 0,0 l/m² 0,0 km/h (0 Bft) SW 225 ° 0 min 0 W/m² -1,2 °C 0,1 °C 0,0 km/h (0 Bft)
02.02.2025 00:29 21,5 °C 0,1 °C 49 % 91 % 1029,8 hPa 0,0 l/m² 0,0 km/h (0 Bft) SW 225 ° 0 min 0 W/m² -1,2 °C 0,1 °C 0,0 km/h (0 Bft)
02.02.2025 00:31 21,5 °C 0,1 °C 49 % 91 % 1029,8 hPa 0,0 l/m² 0,0 km/h (0 Bft) SW 225 ° 0 min 0 W/m² -1,2 °C 0,1 °C 0,0 km/h (0 Bft)
02.02.2025 00:32 21,4 °C 0,1 °C 49 % 91 % 1029,8 hPa 0,0 l/m² 0,0 km/h (0 Bft) SW 225 ° 0 min 0 W/m² -1,2 °C 0,1 °C 0,0 km/h (0 Bft)
02.02.2025 00:33 21,5 °C 0,1 °C 49 % 91 % 1029,8 hPa 0,0 l/m² 0,0 km/h (0 Bft) SW 225 ° 0 min 0 W/m² -1,2 °C 0,1 °C 0,0 km/h (0 Bft)
02.02.2025 00:34 21,5 °C 0,1 °C 49 % 91 % 1029,8 hPa 0,0 l/m² 0,0 km/h (0 Bft) SW 225 ° 0 min 0 W/m² -1,2 °C 0,1 °C 0,0 km/h (0 Bft)
02.02.2025 00:36 21,5 °C 0,1 °C 49 % 91 % 1029,8 hPa 0,0 l/m² 0,0 km/h (0 Bft) SW 225 ° 0 min 0 W/m² -1,2 °C 0,1 °C 0,0 km/h (0 Bft)
02.02.2025 00:38 21,4 °C 0,1 °C 49 % 91 % 1029,8 hPa 0,0 l/m² 0,0 km/h (0 Bft) SW 225 ° 0 min 0 W/m² -1,2 °C 0,1 °C 0,0 km/h (0 Bft)
02.02.2025 00:39 21,5 °C 0,1 °C 49 % 91 % 1029,8 hPa 0,0 l/m² 0,0 km/h (0 Bft) SW 225 ° 0 min 0 W/m² -1,2 °C 0,1 °C 0,0 km/h (0 Bft)
02.02.2025 00:41 21,5 °C 0,0 °C 49 % 91 % 1029,8 hPa 0,0 l/m² 0,0 km/h (0 Bft) SW 225 ° 0 min 0 W/m² -1,3 °C 0,0 °C 0,0 km/h (0 Bft)
02.02.2025 00:42 21,5 °C 0,1 °C 49 % 91 % 1029,7 hPa 0,0 l/m² 0,0 km/h (0 Bft) SW 225 ° 0 min 0 W/m² -1,2 °C 0,1 °C 0,0 km/h (0 Bft)
02.02.2025 00:43 21,5 °C 0,1 °C 49 % 91 % 1029,7 hPa 0,0 l/m² 0,0 km/h (0 Bft) SW 225 ° 0 min 0 W/m² -1,2 °C 0,1 °C 0,0 km/h (0 Bft)
02.02.2025 00:45 21,5 °C 0,1 °C 49 % 91 % 1029,7 hPa 0,0 l/m² 0,0 km/h (0 Bft) SW 225 ° 0 min 0 W/m² -1,2 °C 0,1 °C 0,0 km/h (0 Bft)
02.02.2025 00:46 21,4 °C 0,0 °C 49 % 91 % 1029,8 hPa 0,0 l/m² 0,0 km/h (0 Bft) SW 225 ° 0 min 0 W/m² -1,3 °C 0,0 °C 0,0 km/h (0 Bft)
02.02.2025 00:48 21,4 °C 0,1 °C 49 % 91 % 1029,9 hPa 0,0 l/m² 0,0 km/h (0 Bft) SW 225 ° 0 min 0 W/m² -1,2 °C 0,1 °C 0,0 km/h (0 Bft)
02.02.2025 00:50 21,4 °C 0,0 °C 49 % 91 % 1029,8 hPa 0,0 l/m² 0,0 km/h (0 Bft) SW 225 ° 0 min 0 W/m² -1,3 °C 0,0 °C 0,0 km/h (0 Bft)
02.02.2025 00:51 21,4 °C 0,0 °C 49 % 91 % 1029,8 hPa 0,0 l/m² 0,0 km/h (0 Bft) SW 225 ° 0 min 0 W/m² -1,3 °C 0,0 °C 0,0 km/h (0 Bft)
02.02.2025 00:53 21,4 °C 0,0 °C 49 % 91 % 1029,7 hPa 0,0 l/m² 0,0 km/h (0 Bft) SW 225 ° 0 min 0 W/m² -1,3 °C 0,0 °C 0,0 km/h (0 Bft)
02.02.2025 00:54 21,4 °C 0,0 °C 49 % 91 % 1029,7 hPa 0,0 l/m² 0,0 km/h (0 Bft) SW 225 ° 0 min 0 W/m² -1,3 °C 0,0 °C 0,0 km/h (0 Bft)
02.02.2025 00:56 21,4 °C 0,1 °C 49 % 91 % 1029,7 hPa 0,0 l/m² 0,4 km/h (0 Bft) SW 225 ° 0 min 0 W/m² -1,2 °C 0,1 °C 1,6 km/h (1 Bft)
02.02.2025 00:58 21,4 °C 0,0 °C 49 % 91 % 1029,8 hPa 0,0 l/m² 0,0 km/h (0 Bft) SW 225 ° 0 min 0 W/m² -1,3 °C 0,0 °C 0,0 km/h (0 Bft)
02.02.2025 01:00 21,4 °C 0,0 °C 49 % 91 % 1029,8 hPa 0,0 l/m² 0,0 km/h (0 Bft) SW 225 ° 0 min 0 W/m² -1,3 °C 0,0 °C 0,0 km/h (0 Bft)
02.02.2025 01:01 21,4 °C 0,0 °C 49 % 91 % 1029,8 hPa 0,0 l/m² 0,0 km/h (0 Bft) SW 225 ° 0 min 0 W/m² -1,3 °C 0,0 °C 0,0 km/h (0 Bft)
02.02.2025 01:03 21,4 °C 0,0 °C 49 % 91 % 1029,7 hPa 0,0 l/m² 0,0 km/h (0 Bft) SW 225 ° 0 min 0 W/m² -1,3 °C 0,0 °C 0,0 km/h (0 Bft)
02.02.2025 01:04 21,4 °C 0,0 °C 49 % 91 % 1029,8 hPa 0,0 l/m² 0,0 km/h (0 Bft) SW 225 ° 0 min 0 W/m² -1,3 °C 0,0 °C 0,0 km/h (0 Bft)
02.02.2025 01:06 21,4 °C -0,1 °C 49 % 91 % 1029,8 hPa 0,0 l/m² 1,3 km/h (1 Bft) SW 225 ° 0 min 0 W/m² -1,4 °C -0,1 °C 4,8 km/h (1 Bft)
02.02.2025 01:08 21,4 °C -0,1 °C 49 % 91 % 1029,7 hPa 0,0 l/m² 0,0 km/h (0 Bft) SW 225 ° 0 min 0 W/m² -1,4 °C -0,1 °C 0,0 km/h (0 Bft)
02.02.2025 01:10 21,4 °C -0,1 °C 49 % 91 % 1029,8 hPa 0,0 l/m² 1,3 km/h (1 Bft) SW 225 ° 0 min 0 W/m² -1,4 °C -0,1 °C 4,8 km/h (1 Bft)
02.02.2025 01:11 21,4 °C -0,1 °C 49 % 91 % 1029,6 hPa 0,0 l/m² 3,1 km/h (1 Bft) SW 225 ° 0 min 0 W/m² -1,4 °C -0,1 °C 4,8 km/h (1 Bft)
02.02.2025 01:13 21,4 °C -0,1 °C 49 % 91 % 1029,6 hPa 0,0 l/m² 0,2 km/h (0 Bft) SW 225 ° 0 min 0 W/m² -1,4 °C -0,1 °C 3,2 km/h (1 Bft)
02.02.2025 01:14 21,4 °C -0,1 °C 49 % 91 % 1029,7 hPa 0,0 l/m² 0,0 km/h (0 Bft) SW 225 ° 0 min 0 W/m² -1,4 °C -0,1 °C 0,0 km/h (0 Bft)
02.02.2025 01:16 21,4 °C -0,1 °C 49 % 91 % 1029,6 hPa 0,0 l/m² 0,1 km/h (0 Bft) SW 225 ° 0 min 0 W/m² -1,4 °C -0,1 °C 1,6 km/h (1 Bft)
02.02.2025 01:18 21,4 °C -0,1 °C 49 % 91 % 1029,6 hPa 0,0 l/m² 0,5 km/h (0 Bft) SW 225 ° 0 min 0 W/m² -1,4 °C -0,1 °C 3,2 km/h (1 Bft)
02.02.2025 01:20 21,4 °C -0,1 °C 49 % 91 % 1029,5 hPa 0,0 l/m² 0,0 km/h (0 Bft) SW 225 ° 0 min 0 W/m² -1,4 °C -0,1 °C 1,6 km/h (1 Bft)
02.02.2025 01:21 21,4 °C -0,1 °C 49 % 91 % 1029,4 hPa 0,0 l/m² 0,0 km/h (0 Bft) SW 225 ° 0 min 0 W/m² -1,4 °C -0,1 °C 0,0 km/h (0 Bft)
02.02.2025 01:22 21,4 °C -0,1 °C 49 % 91 % 1029,5 hPa 0,0 l/m² 0,0 km/h (0 Bft) SW 225 ° 0 min 0 W/m² -1,4 °C -0,1 °C 0,0 km/h (0 Bft)
02.02.2025 01:23 21,4 °C -0,1 °C 49 % 91 % 1029,4 hPa 0,0 l/m² 0,1 km/h (0 Bft) SW 225 ° 0 min 0 W/m² -1,4 °C -0,1 °C 1,6 km/h (1 Bft)
02.02.2025 01:25 21,4 °C -0,1 °C 49 % 91 % 1029,4 hPa 0,0 l/m² 0,4 km/h (0 Bft) SW 225 ° 0 min 0 W/m² -1,4 °C -0,1 °C 1,6 km/h (1 Bft)
02.02.2025 01:26 21,4 °C -0,1 °C 49 % 91 % 1029,4 hPa 0,0 l/m² 0,0 km/h (0 Bft) SW 225 ° 0 min 0 W/m² -1,4 °C -0,1 °C 0,0 km/h (0 Bft)
02.02.2025 01:27 21,4 °C -0,1 °C 49 % 91 % 1029,4 hPa 0,0 l/m² 0,0 km/h (0 Bft) SW 225 ° 0 min 0 W/m² -1,4 °C -0,1 °C 0,0 km/h (0 Bft)
02.02.2025 01:29 21,4 °C -0,1 °C 49 % 92 % 1029,4 hPa 0,0 l/m² 0,0 km/h (0 Bft) SW 225 ° 0 min 0 W/m² -1,2 °C -0,1 °C 0,0 km/h (0 Bft)
02.02.2025 01:31 21,4 °C -0,1 °C 49 % 92 % 1029,4 hPa 0,0 l/m² 0,0 km/h (0 Bft) SW 225 ° 0 min 0 W/m² -1,2 °C -0,1 °C 0,0 km/h (0 Bft)
02.02.2025 01:32 21,4 °C -0,1 °C 49 % 92 % 1029,3 hPa 0,0 l/m² 0,0 km/h (0 Bft) SW 225 ° 0 min 0 W/m² -1,2 °C -0,1 °C 0,0 km/h (0 Bft)
02.02.2025 01:33 21,4 °C -0,1 °C 49 % 92 % 1029,4 hPa 0,0 l/m² 0,0 km/h (0 Bft) SW 225 ° 0 min 0 W/m² -1,2 °C -0,1 °C 0,0 km/h (0 Bft)
02.02.2025 01:34 21,4 °C -0,1 °C 49 % 91 % 1029,4 hPa 0,0 l/m² 0,8 km/h (0 Bft) SW 225 ° 0 min 0 W/m² -1,4 °C -0,1 °C 3,2 km/h (1 Bft)
02.02.2025 01:36 21,4 °C -0,1 °C 49 % 92 % 1029,3 hPa 0,0 l/m² 0,8 km/h (0 Bft) SW 225 ° 0 min 0 W/m² -1,2 °C -0,1 °C 3,2 km/h (1 Bft)
02.02.2025 01:38 21,4 °C -0,1 °C 49 % 91 % 1029,3 hPa 0,0 l/m² 0,0 km/h (0 Bft) SW 225 ° 0 min 0 W/m² -1,4 °C -0,1 °C 0,0 km/h (0 Bft)
02.02.2025 01:40 21,4 °C -0,1 °C 49 % 91 % 1029,2 hPa 0,0 l/m² 0,0 km/h (0 Bft) SW 225 ° 0 min 0 W/m² -1,4 °C -0,1 °C 0,0 km/h (0 Bft)
02.02.2025 01:41 21,4 °C -0,1 °C 49 % 91 % 1029,2 hPa 0,0 l/m² 0,0 km/h (0 Bft) SW 225 ° 0 min 0 W/m² -1,4 °C -0,1 °C 0,0 km/h (0 Bft)
02.02.2025 01:42 21,4 °C -0,1 °C 49 % 92 % 1029,3 hPa 0,0 l/m² 0,0 km/h (0 Bft) SW 225 ° 0 min 0 W/m² -1,2 °C -0,1 °C 0,0 km/h (0 Bft)
02.02.2025 01:44 21,4 °C -0,1 °C 49 % 92 % 1029,2 hPa 0,0 l/m² 0,0 km/h (0 Bft) SW 225 ° 0 min 0 W/m² -1,2 °C -0,1 °C 0,0 km/h (0 Bft)
02.02.2025 01:46 21,4 °C -0,1 °C 49 % 91 % 1029,3 hPa 0,0 l/m² 0,0 km/h (0 Bft) SW 225 ° 0 min 0 W/m² -1,4 °C -0,1 °C 0,0 km/h (0 Bft)
02.02.2025 01:48 21,4 °C -0,1 °C 49 % 91 % 1029,2 hPa 0,0 l/m² 0,0 km/h (0 Bft) SW 225 ° 0 min 0 W/m² -1,4 °C -0,1 °C 0,0 km/h (0 Bft)
02.02.2025 01:50 21,4 °C -0,1 °C 49 % 92 % 1029,2 hPa 0,0 l/m² 0,0 km/h (0 Bft) SW 225 ° 0 min 0 W/m² -1,2 °C -0,1 °C 0,0 km/h (0 Bft)
02.02.2025 01:51 21,4 °C -0,1 °C 49 % 92 % 1029,1 hPa 0,0 l/m² 0,0 km/h (0 Bft) SW 225 ° 0 min 0 W/m² -1,2 °C -0,1 °C 0,0 km/h (0 Bft)
02.02.2025 01:53 21,4 °C -0,1 °C 49 % 92 % 1029,2 hPa 0,0 l/m² 0,0 km/h (0 Bft) SW 225 ° 0 min 0 W/m² -1,2 °C -0,1 °C 0,0 km/h (0 Bft)
02.02.2025 01:54 21,4 °C -0,1 °C 49 % 92 % 1029,2 hPa 0,0 l/m² 0,0 km/h (0 Bft) SW 225 ° 0 min 0 W/m² -1,2 °C -0,1 °C 0,0 km/h (0 Bft)
02.02.2025 01:56 21,4 °C -0,1 °C 49 % 92 % 1029,2 hPa 0,0 l/m² 0,0 km/h (0 Bft) SW 225 ° 0 min 0 W/m² -1,2 °C -0,1 °C 0,0 km/h (0 Bft)
02.02.2025 01:58 21,4 °C -0,1 °C 49 % 92 % 1029,1 hPa 0,0 l/m² 0,0 km/h (0 Bft) SW 225 ° 0 min 0 W/m² -1,2 °C -0,1 °C 0,0 km/h (0 Bft)
02.02.2025 01:59 21,4 °C -0,1 °C 49 % 92 % 1029,1 hPa 0,0 l/m² 0,0 km/h (0 Bft) SW 225 ° 0 min 0 W/m² -1,2 °C -0,1 °C 0,0 km/h (0 Bft)
02.02.2025 02:01 21,4 °C -0,1 °C 49 % 92 % 1029,1 hPa 0,0 l/m² 0,0 km/h (0 Bft) SW 225 ° 0 min 0 W/m² -1,2 °C -0,1 °C 0,0 km/h (0 Bft)
02.02.2025 02:02 21,4 °C 0,0 °C 49 % 92 % 1029,0 hPa 0,0 l/m² 0,0 km/h (0 Bft) SW 225 ° 0 min 0 W/m² -1,1 °C 0,0 °C 0,0 km/h (0 Bft)
02.02.2025 02:03 21,4 °C 0,0 °C 49 % 92 % 1029,0 hPa 0,0 l/m² 0,0 km/h (0 Bft) SW 225 ° 0 min 0 W/m² -1,1 °C 0,0 °C 0,0 km/h (0 Bft)
02.02.2025 02:05 21,4 °C 0,0 °C 49 % 92 % 1029,0 hPa 0,0 l/m² 0,0 km/h (0 Bft) SW 225 ° 0 min 0 W/m² -1,1 °C 0,0 °C 0,0 km/h (0 Bft)
02.02.2025 02:07 21,4 °C 0,0 °C 49 % 92 % 1029,1 hPa 0,0 l/m² 0,0 km/h (0 Bft) SW 225 ° 0 min 0 W/m² -1,1 °C 0,0 °C 0,0 km/h (0 Bft)
02.02.2025 02:09 21,4 °C 0,0 °C 49 % 92 % 1029,0 hPa 0,0 l/m² 1,2 km/h (1 Bft) SW 225 ° 0 min 0 W/m² -1,1 °C 0,0 °C 3,2 km/h (1 Bft)
02.02.2025 02:10 21,4 °C 0,0 °C 49 % 92 % 1029,1 hPa 0,0 l/m² 1,5 km/h (1 Bft) SW 225 ° 0 min 0 W/m² -1,1 °C 0,0 °C 3,2 km/h (1 Bft)
02.02.2025 02:12 21,4 °C 0,0 °C 49 % 92 % 1029,1 hPa 0,0 l/m² 0,0 km/h (0 Bft) SW 225 ° 0 min 0 W/m² -1,1 °C 0,0 °C 0,0 km/h (0 Bft)
02.02.2025 02:13 21,4 °C 0,0 °C 49 % 92 % 1029,1 hPa 0,0 l/m² 0,0 km/h (0 Bft) SW 225 ° 0 min 0 W/m² -1,1 °C 0,0 °C 0,0 km/h (0 Bft)
02.02.2025 02:15 21,4 °C -0,1 °C 49 % 92 % 1029,1 hPa 0,0 l/m² 0,0 km/h (0 Bft) SW 225 ° 0 min 0 W/m² -1,2 °C -0,1 °C 0,0 km/h (0 Bft)
02.02.2025 02:17 21,4 °C -0,1 °C 49 % 92 % 1029,0 hPa 0,0 l/m² 0,0 km/h (0 Bft) SW 225 ° 0 min 0 W/m² -1,2 °C -0,1 °C 0,0 km/h (0 Bft)
02.02.2025 02:19 21,4 °C -0,1 °C 49 % 92 % 1029,0 hPa 0,0 l/m² 0,0 km/h (0 Bft) SW 225 ° 0 min 0 W/m² -1,2 °C -0,1 °C 0,0 km/h (0 Bft)
02.02.2025 02:21 21,4 °C -0,1 °C 49 % 92 % 1029,0 hPa 0,0 l/m² 0,0 km/h (0 Bft) SW 225 ° 0 min 0 W/m² -1,2 °C -0,1 °C 0,0 km/h (0 Bft)
02.02.2025 02:22 21,4 °C -0,1 °C 49 % 92 % 1029,0 hPa 0,0 l/m² 0,0 km/h (0 Bft) SW 225 ° 0 min 0 W/m² -1,2 °C -0,1 °C 0,0 km/h (0 Bft)
02.02.2025 02:23 21,4 °C -0,1 °C 49 % 92 % 1028,9 hPa 0,0 l/m² 0,0 km/h (0 Bft) SW 225 ° 0 min 0 W/m² -1,2 °C -0,1 °C 0,0 km/h (0 Bft)
02.02.2025 02:25 21,4 °C -0,1 °C 49 % 92 % 1029,0 hPa 0,0 l/m² 0,0 km/h (0 Bft) SW 225 ° 0 min 0 W/m² -1,2 °C -0,1 °C 0,0 km/h (0 Bft)
02.02.2025 02:27 21,4 °C -0,1 °C 49 % 92 % 1028,9 hPa 0,0 l/m² 0,0 km/h (0 Bft) SW 225 ° 0 min 0 W/m² -1,2 °C -0,1 °C 0,0 km/h (0 Bft)
02.02.2025 02:29 21,4 °C -0,1 °C 49 % 92 % 1028,9 hPa 0,0 l/m² 0,0 km/h (0 Bft) SW 225 ° 0 min 0 W/m² -1,2 °C -0,1 °C 0,0 km/h (0 Bft)
02.02.2025 02:30 21,4 °C -0,1 °C 49 % 92 % 1029,0 hPa 0,0 l/m² 0,0 km/h (0 Bft) SW 225 ° 0 min 0 W/m² -1,2 °C -0,1 °C 0,0 km/h (0 Bft)
02.02.2025 02:32 21,5 °C -0,1 °C 49 % 92 % 1028,9 hPa 0,0 l/m² 0,0 km/h (0 Bft) SW 225 ° 0 min 0 W/m² -1,2 °C -0,1 °C 0,0 km/h (0 Bft)
02.02.2025 02:33 21,4 °C -0,1 °C 49 % 92 % 1028,9 hPa 0,0 l/m² 0,0 km/h (0 Bft) SW 225 ° 0 min 0 W/m² -1,2 °C -0,1 °C 0,0 km/h (0 Bft)
02.02.2025 02:35 21,5 °C -0,1 °C 49 % 92 % 1028,8 hPa 0,0 l/m² 0,0 km/h (0 Bft) SW 225 ° 0 min 0 W/m² -1,2 °C -0,1 °C 0,0 km/h (0 Bft)
02.02.2025 02:37 21,4 °C -0,1 °C 49 % 92 % 1028,8 hPa 0,0 l/m² 0,0 km/h (0 Bft) SW 225 ° 0 min 0 W/m² -1,2 °C -0,1 °C 0,0 km/h (0 Bft)
02.02.2025 02:39 21,4 °C -0,1 °C 49 % 92 % 1028,8 hPa 0,0 l/m² 0,0 km/h (0 Bft) SW 225 ° 0 min 0 W/m² -1,2 °C -0,1 °C 0,0 km/h (0 Bft)
02.02.2025 02:41 21,5 °C -0,1 °C 49 % 92 % 1028,8 hPa 0,0 l/m² 0,0 km/h (0 Bft) SW 225 ° 0 min 0 W/m² -1,2 °C -0,1 °C 0,0 km/h (0 Bft)
02.02.2025 02:42 21,4 °C -0,1 °C 49 % 92 % 1028,8 hPa 0,0 l/m² 0,0 km/h (0 Bft) W-NW 295 ° 0 min 0 W/m² -1,2 °C -0,1 °C 0,0 km/h (0 Bft)
02.02.2025 02:43 21,4 °C -0,1 °C 49 % 92 % 1028,8 hPa 0,0 l/m² 0,0 km/h (0 Bft) W-NW 295 ° 0 min 0 W/m² -1,2 °C -0,1 °C 0,0 km/h (0 Bft)
02.02.2025 02:45 21,5 °C -0,1 °C 49 % 92 % 1028,8 hPa 0,0 l/m² 0,0 km/h (0 Bft) W-NW 295 ° 0 min 0 W/m² -1,2 °C -0,1 °C 0,0 km/h (0 Bft)
02.02.2025 02:47 21,5 °C -0,1 °C 49 % 92 % 1028,7 hPa 0,0 l/m² 0,0 km/h (0 Bft) W-NW 297 ° 0 min 0 W/m² -1,2 °C -0,1 °C 0,0 km/h (0 Bft)
02.02.2025 02:49 21,5 °C -0,1 °C 49 % 92 % 1028,8 hPa 0,0 l/m² 0,1 km/h (0 Bft) O-SO 117 ° 0 min 0 W/m² -1,2 °C -0,1 °C 3,2 km/h (1 Bft)
02.02.2025 02:51 21,4 °C -0,1 °C 49 % 92 % 1028,8 hPa 0,0 l/m² 0,0 km/h (0 Bft) O-SO 117 ° 0 min 0 W/m² -1,2 °C -0,1 °C 0,0 km/h (0 Bft)
02.02.2025 02:52 21,5 °C -0,1 °C 49 % 92 % 1028,8 hPa 0,0 l/m² 0,0 km/h (0 Bft) O-SO 117 ° 0 min 0 W/m² -1,2 °C -0,1 °C 0,0 km/h (0 Bft)
02.02.2025 02:53 21,4 °C -0,1 °C 49 % 92 % 1028,8 hPa 0,0 l/m² 0,0 km/h (0 Bft) O-SO 117 ° 0 min 0 W/m² -1,2 °C -0,1 °C 0,0 km/h (0 Bft)
02.02.2025 02:55 21,5 °C -0,2 °C 49 % 92 % 1028,7 hPa 0,0 l/m² 3,2 km/h (1 Bft) O-SO 107 ° 0 min 0 W/m² -1,3 °C -0,2 °C 6,4 km/h (2 Bft)
02.02.2025 02:57 21,5 °C -0,3 °C 49 % 92 % 1028,8 hPa 0,0 l/m² 0,5 km/h (0 Bft) O-SO 107 ° 0 min 0 W/m² -1,4 °C -0,3 °C 3,2 km/h (1 Bft)
02.02.2025 02:59 21,5 °C -0,3 °C 49 % 92 % 1028,7 hPa 0,0 l/m² 0,0 km/h (0 Bft) O-SO 107 ° 0 min 0 W/m² -1,4 °C -0,3 °C 0,0 km/h (0 Bft)
02.02.2025 03:00 21,5 °C -0,3 °C 49 % 92 % 1028,7 hPa 0,0 l/m² 0,0 km/h (0 Bft) N 0 ° 0 min 0 W/m² -1,4 °C -0,3 °C 0,0 km/h (0 Bft)
02.02.2025 03:01 21,5 °C -0,3 °C 49 % 92 % 1028,7 hPa 0,0 l/m² 0,0 km/h (0 Bft) N 0 ° 0 min 0 W/m² -1,4 °C -0,3 °C 0,0 km/h (0 Bft)
02.02.2025 03:06 21,5 °C -0,3 °C 49 % 92 % 1028,6 hPa 0,0 l/m² 0,0 km/h (0 Bft) O-SO 107 ° 0 min 0 W/m² -1,4 °C -0,3 °C 0,0 km/h (0 Bft)
02.02.2025 03:08 21,5 °C -0,3 °C 49 % 92 % 1028,5 hPa 0,0 l/m² 0,0 km/h (0 Bft) O-SO 107 ° 0 min 0 W/m² -1,4 °C -0,3 °C 0,0 km/h (0 Bft)
02.02.2025 03:09 21,5 °C -0,3 °C 49 % 92 % 1028,5 hPa 0,0 l/m² 0,0 km/h (0 Bft) O-SO 107 ° 0 min 0 W/m² -1,4 °C -0,3 °C 0,0 km/h (0 Bft)
02.02.2025 03:11 21,5 °C -0,4 °C 49 % 92 % 1028,6 hPa 0,0 l/m² 0,0 km/h (0 Bft) O-SO 107 ° 0 min 0 W/m² -1,5 °C -0,4 °C 0,0 km/h (0 Bft)
02.02.2025 03:12 21,5 °C -0,4 °C 49 % 92 % 1028,6 hPa 0,0 l/m² 0,0 km/h (0 Bft) O-SO 107 ° 0 min 0 W/m² -1,5 °C -0,4 °C 0,0 km/h (0 Bft)
02.02.2025 03:14 21,5 °C -0,4 °C 49 % 92 % 1028,6 hPa 0,0 l/m² 0,0 km/h (0 Bft) O-SO 107 ° 0 min 0 W/m² -1,5 °C -0,4 °C 0,0 km/h (0 Bft)
02.02.2025 03:16 21,5 °C -0,4 °C 49 % 92 % 1028,5 hPa 0,0 l/m² 0,0 km/h (0 Bft) O-SO 107 ° 0 min 0 W/m² -1,5 °C -0,4 °C 0,0 km/h (0 Bft)
02.02.2025 03:18 21,4 °C -0,4 °C 49 % 92 % 1028,6 hPa 0,0 l/m² 0,0 km/h (0 Bft) O-SO 107 ° 0 min 0 W/m² -1,5 °C -0,4 °C 0,0 km/h (0 Bft)
02.02.2025 03:20 21,5 °C -0,4 °C 49 % 92 % 1028,5 hPa 0,0 l/m² 0,0 km/h (0 Bft) O-SO 107 ° 0 min 0 W/m² -1,5 °C -0,4 °C 0,0 km/h (0 Bft)
02.02.2025 03:21 21,5 °C -0,4 °C 49 % 92 % 1028,5 hPa 0,0 l/m² 0,0 km/h (0 Bft) O-SO 107 ° 0 min 0 W/m² -1,5 °C -0,4 °C 0,0 km/h (0 Bft)
02.02.2025 03:22 21,5 °C -0,4 °C 49 % 92 % 1028,5 hPa 0,0 l/m² 0,0 km/h (0 Bft) O-SO 107 ° 0 min 0 W/m² -1,5 °C -0,4 °C 0,0 km/h (0 Bft)
02.02.2025 03:24 21,5 °C -0,4 °C 49 % 92 % 1028,5 hPa 0,0 l/m² 0,0 km/h (0 Bft) O-SO 107 ° 0 min 0 W/m² -1,5 °C -0,4 °C 0,0 km/h (0 Bft)
02.02.2025 03:26 21,5 °C -0,4 °C 49 % 92 % 1028,4 hPa 0,0 l/m² 0,0 km/h (0 Bft) O-SO 107 ° 0 min 0 W/m² -1,5 °C -0,4 °C 0,0 km/h (0 Bft)
02.02.2025 03:28 21,5 °C -0,4 °C 49 % 92 % 1028,3 hPa 0,0 l/m² 0,0 km/h (0 Bft) O-SO 107 ° 0 min 0 W/m² -1,5 °C -0,4 °C 0,0 km/h (0 Bft)
02.02.2025 03:30 21,5 °C -0,5 °C 49 % 92 % 1028,4 hPa 0,0 l/m² 0,0 km/h (0 Bft) O-SO 107 ° 0 min 0 W/m² -1,6 °C -0,5 °C 0,0 km/h (0 Bft)
02.02.2025 03:31 21,5 °C -0,6 °C 49 % 92 % 1028,4 hPa 0,0 l/m² 0,0 km/h (0 Bft) O-SO 107 ° 0 min 0 W/m² -1,7 °C -0,6 °C 0,0 km/h (0 Bft)
02.02.2025 03:32 21,5 °C -0,5 °C 49 % 92 % 1028,4 hPa 0,0 l/m² 0,0 km/h (0 Bft) O-SO 107 ° 0 min 0 W/m² -1,6 °C -0,5 °C 0,0 km/h (0 Bft)
02.02.2025 03:34 21,5 °C -0,5 °C 49 % 92 % 1028,4 hPa 0,0 l/m² 0,0 km/h (0 Bft) O-SO 107 ° 0 min 0 W/m² -1,6 °C -0,5 °C 0,0 km/h (0 Bft)
02.02.2025 03:35 21,5 °C -0,6 °C 49 % 92 % 1028,4 hPa 0,0 l/m² 0,0 km/h (0 Bft) O-SO 107 ° 0 min 0 W/m² -1,7 °C -0,6 °C 0,0 km/h (0 Bft)
02.02.2025 03:37 21,5 °C -0,6 °C 49 % 92 % 1028,2 hPa 0,0 l/m² 0,0 km/h (0 Bft) O-SO 107 ° 0 min 0 W/m² -1,7 °C -0,6 °C 0,0 km/h (0 Bft)
02.02.2025 03:39 21,5 °C -0,6 °C 49 % 92 % 1028,3 hPa 0,0 l/m² 0,0 km/h (0 Bft) O-SO 107 ° 0 min 0 W/m² -1,7 °C -0,6 °C 0,0 km/h (0 Bft)
02.02.2025 03:40 21,5 °C -0,6 °C 49 % 92 % 1028,3 hPa 0,0 l/m² 0,0 km/h (0 Bft) O-SO 107 ° 0 min 0 W/m² -1,7 °C -0,6 °C 0,0 km/h (0 Bft)
02.02.2025 03:42 21,5 °C -0,7 °C 49 % 92 % 1028,3 hPa 0,0 l/m² 0,0 km/h (0 Bft) O-SO 107 ° 0 min 0 W/m² -1,8 °C -0,7 °C 0,0 km/h (0 Bft)
02.02.2025 03:43 21,5 °C -0,7 °C 49 % 92 % 1028,3 hPa 0,0 l/m² 0,0 km/h (0 Bft) O-SO 107 ° 0 min 0 W/m² -1,8 °C -0,7 °C 0,0 km/h (0 Bft)
02.02.2025 03:45 21,5 °C -0,7 °C 49 % 92 % 1028,3 hPa 0,0 l/m² 0,0 km/h (0 Bft) O-SO 107 ° 0 min 0 W/m² -1,8 °C -0,7 °C 0,0 km/h (0 Bft)
02.02.2025 03:46 21,5 °C -0,7 °C 49 % 92 % 1028,3 hPa 0,0 l/m² 0,0 km/h (0 Bft) O-SO 107 ° 0 min 0 W/m² -1,8 °C -0,7 °C 0,0 km/h (0 Bft)
02.02.2025 03:47 21,5 °C -0,7 °C 49 % 92 % 1028,3 hPa 0,0 l/m² 0,0 km/h (0 Bft) O-SO 107 ° 0 min 0 W/m² -1,8 °C -0,7 °C 0,0 km/h (0 Bft)
02.02.2025 03:48 21,5 °C -0,7 °C 49 % 92 % 1028,2 hPa 0,0 l/m² 0,0 km/h (0 Bft) O-SO 107 ° 0 min 0 W/m² -1,8 °C -0,7 °C 0,0 km/h (0 Bft)
02.02.2025 03:50 21,5 °C -0,8 °C 49 % 92 % 1028,2 hPa 0,0 l/m² 0,0 km/h (0 Bft) O-SO 107 ° 0 min 0 W/m² -1,9 °C -0,8 °C 0,0 km/h (0 Bft)
02.02.2025 03:51 21,5 °C -0,8 °C 49 % 92 % 1028,3 hPa 0,0 l/m² 0,0 km/h (0 Bft) O-SO 107 ° 0 min 0 W/m² -1,9 °C -0,8 °C 0,0 km/h (0 Bft)
02.02.2025 03:52 21,4 °C -0,8 °C 49 % 92 % 1028,2 hPa 0,0 l/m² 0,0 km/h (0 Bft) O-SO 107 ° 0 min 0 W/m² -1,9 °C -0,8 °C 0,0 km/h (0 Bft)
02.02.2025 03:53 21,4 °C -0,8 °C 49 % 92 % 1028,2 hPa 0,0 l/m² 0,0 km/h (0 Bft) O-SO 107 ° 0 min 0 W/m² -1,9 °C -0,8 °C 0,0 km/h (0 Bft)
02.02.2025 03:55 21,4 °C -0,8 °C 49 % 92 % 1028,3 hPa 0,0 l/m² 0,0 km/h (0 Bft) O-SO 107 ° 0 min 0 W/m² -1,9 °C -0,8 °C 0,0 km/h (0 Bft)
02.02.2025 03:57 21,4 °C -0,9 °C 49 % 92 % 1028,2 hPa 0,0 l/m² 0,0 km/h (0 Bft) O-SO 107 ° 0 min 0 W/m² -2,0 °C -0,9 °C 0,0 km/h (0 Bft)
02.02.2025 03:59 21,5 °C -0,9 °C 49 % 92 % 1028,3 hPa 0,0 l/m² 0,0 km/h (0 Bft) O-SO 107 ° 0 min 0 W/m² -2,0 °C -0,9 °C 0,0 km/h (0 Bft)
02.02.2025 04:00 21,4 °C -0,9 °C 49 % 92 % 1028,2 hPa 0,0 l/m² 0,0 km/h (0 Bft) O-SO 107 ° 0 min 0 W/m² -2,0 °C -0,9 °C 0,0 km/h (0 Bft)
02.02.2025 04:02 21,5 °C -0,9 °C 49 % 92 % 1028,2 hPa 0,0 l/m² 0,0 km/h (0 Bft) O-SO 107 ° 0 min 0 W/m² -2,0 °C -0,9 °C 0,0 km/h (0 Bft)
02.02.2025 04:03 21,4 °C -0,9 °C 49 % 92 % 1028,2 hPa 0,0 l/m² 0,0 km/h (0 Bft) O-SO 107 ° 0 min 0 W/m² -2,0 °C -0,9 °C 0,0 km/h (0 Bft)
02.02.2025 04:05 21,5 °C -1,1 °C 49 % 92 % 1028,2 hPa 0,0 l/m² 0,6 km/h (0 Bft) O-SO 107 ° 0 min 0 W/m² -2,2 °C -1,1 °C 4,8 km/h (1 Bft)
02.02.2025 04:06 21,4 °C -1,1 °C 49 % 91 % 1028,1 hPa 0,0 l/m² 3,4 km/h (1 Bft) O-SO 107 ° 0 min 0 W/m² -2,4 °C -1,1 °C 4,8 km/h (1 Bft)
02.02.2025 04:07 21,4 °C -1,1 °C 49 % 92 % 1028,1 hPa 0,0 l/m² 2,1 km/h (1 Bft) O-SO 107 ° 0 min 0 W/m² -2,2 °C -1,1 °C 3,2 km/h (1 Bft)
02.02.2025 04:09 21,4 °C -1,2 °C 49 % 91 % 1028,1 hPa 0,0 l/m² 0,1 km/h (0 Bft) O-SO 107 ° 0 min 0 W/m² -2,5 °C -1,2 °C 1,6 km/h (1 Bft)
02.02.2025 04:10 21,5 °C -1,3 °C 49 % 91 % 1028,1 hPa 0,0 l/m² 0,0 km/h (0 Bft) O-SO 107 ° 0 min 0 W/m² -2,6 °C -1,3 °C 0,0 km/h (0 Bft)
02.02.2025 04:12 21,5 °C -1,3 °C 49 % 92 % 1028,0 hPa 0,0 l/m² 0,0 km/h (0 Bft) O-SO 107 ° 0 min 0 W/m² -2,4 °C -1,3 °C 0,0 km/h (0 Bft)
02.02.2025 04:13 21,5 °C -1,3 °C 49 % 92 % 1028,0 hPa 0,0 l/m² 0,0 km/h (0 Bft) O-SO 107 ° 0 min 0 W/m² -2,4 °C -1,3 °C 0,0 km/h (0 Bft)
02.02.2025 04:15 21,4 °C -1,3 °C 49 % 92 % 1028,1 hPa 0,0 l/m² 0,0 km/h (0 Bft) O-SO 107 ° 0 min 0 W/m² -2,4 °C -1,3 °C 0,0 km/h (0 Bft)
02.02.2025 04:17 21,4 °C -1,4 °C 49 % 92 % 1028,0 hPa 0,0 l/m² 0,0 km/h (0 Bft) O-SO 107 ° 0 min 0 W/m² -2,5 °C -1,4 °C 0,0 km/h (0 Bft)
02.02.2025 04:19 21,4 °C -1,4 °C 49 % 92 % 1028,0 hPa 0,0 l/m² 0,0 km/h (0 Bft) O-SO 107 ° 0 min 0 W/m² -2,5 °C -1,4 °C 0,0 km/h (0 Bft)
02.02.2025 04:20 21,4 °C -1,4 °C 49 % 92 % 1028,0 hPa 0,0 l/m² 0,0 km/h (0 Bft) O-SO 107 ° 0 min 0 W/m² -2,5 °C -1,4 °C 0,0 km/h (0 Bft)
02.02.2025 04:22 21,4 °C -1,4 °C 49 % 92 % 1028,0 hPa 0,0 l/m² 0,0 km/h (0 Bft) O-SO 107 ° 0 min 0 W/m² -2,5 °C -1,4 °C 0,0 km/h (0 Bft)
02.02.2025 04:23 21,4 °C -1,4 °C 49 % 92 % 1028,0 hPa 0,0 l/m² 0,0 km/h (0 Bft) O-SO 107 ° 0 min 0 W/m² -2,5 °C -1,4 °C 0,0 km/h (0 Bft)
02.02.2025 04:25 21,4 °C -1,4 °C 49 % 92 % 1027,9 hPa 0,0 l/m² 0,0 km/h (0 Bft) O-SO 107 ° 0 min 0 W/m² -2,5 °C -1,4 °C 0,0 km/h (0 Bft)
02.02.2025 04:27 21,4 °C -1,4 °C 49 % 92 % 1027,9 hPa 0,0 l/m² 0,0 km/h (0 Bft) O-SO 107 ° 0 min 0 W/m² -2,5 °C -1,4 °C 0,0 km/h (0 Bft)
02.02.2025 04:29 21,4 °C -1,4 °C 49 % 92 % 1027,8 hPa 0,0 l/m² 0,0 km/h (0 Bft) O-SO 107 ° 0 min 0 W/m² -2,5 °C -1,4 °C 0,0 km/h (0 Bft)
02.02.2025 04:30 21,4 °C -1,4 °C 49 % 92 % 1027,9 hPa 0,0 l/m² 0,0 km/h (0 Bft) O-SO 107 ° 0 min 0 W/m² -2,5 °C -1,4 °C 0,0 km/h (0 Bft)
02.02.2025 04:32 21,4 °C -1,5 °C 49 % 92 % 1027,8 hPa 0,0 l/m² 0,0 km/h (0 Bft) O-SO 107 ° 0 min 0 W/m² -2,6 °C -1,5 °C 0,0 km/h (0 Bft)
02.02.2025 04:33 21,4 °C -1,5 °C 49 % 92 % 1027,8 hPa 0,0 l/m² 0,0 km/h (0 Bft) O-SO 107 ° 0 min 0 W/m² -2,6 °C -1,5 °C 0,0 km/h (0 Bft)
02.02.2025 04:35 21,4 °C -1,6 °C 49 % 92 % 1027,7 hPa 0,0 l/m² 0,0 km/h (0 Bft) O-SO 107 ° 0 min 0 W/m² -2,7 °C -1,6 °C 0,0 km/h (0 Bft)
02.02.2025 04:37 21,4 °C -1,5 °C 49 % 92 % 1027,7 hPa 0,0 l/m² 0,0 km/h (0 Bft) O-SO 107 ° 0 min 0 W/m² -2,6 °C -1,5 °C 0,0 km/h (0 Bft)
02.02.2025 04:39 21,5 °C -1,6 °C 49 % 92 % 1027,7 hPa 0,0 l/m² 0,0 km/h (0 Bft) O-SO 107 ° 0 min 0 W/m² -2,7 °C -1,6 °C 0,0 km/h (0 Bft)
02.02.2025 04:40 21,5 °C -1,6 °C 49 % 92 % 1027,6 hPa 0,0 l/m² 0,0 km/h (0 Bft) O-SO 107 ° 0 min 0 W/m² -2,7 °C -1,6 °C 0,0 km/h (0 Bft)
02.02.2025 04:42 21,5 °C -1,6 °C 49 % 92 % 1027,6 hPa 0,0 l/m² 0,0 km/h (0 Bft) O-SO 107 ° 0 min 0 W/m² -2,7 °C -1,6 °C 0,0 km/h (0 Bft)
02.02.2025 04:43 21,5 °C -1,5 °C 49 % 92 % 1027,6 hPa 0,0 l/m² 0,0 km/h (0 Bft) O-SO 107 ° 0 min 0 W/m² -2,6 °C -1,5 °C 0,0 km/h (0 Bft)
02.02.2025 04:45 21,5 °C -1,6 °C 49 % 92 % 1027,7 hPa 0,0 l/m² 0,0 km/h (0 Bft) O-SO 107 ° 0 min 0 W/m² -2,7 °C -1,6 °C 0,0 km/h (0 Bft)
02.02.2025 04:47 21,5 °C -1,6 °C 49 % 92 % 1027,6 hPa 0,0 l/m² 0,0 km/h (0 Bft) O-SO 107 ° 0 min 0 W/m² -2,7 °C -1,6 °C 0,0 km/h (0 Bft)
02.02.2025 04:49 21,5 °C -1,6 °C 49 % 92 % 1027,5 hPa 0,0 l/m² 0,0 km/h (0 Bft) O-SO 107 ° 0 min 0 W/m² -2,7 °C -1,6 °C 0,0 km/h (0 Bft)
02.02.2025 04:50 21,5 °C -1,6 °C 49 % 92 % 1027,7 hPa 0,0 l/m² 0,0 km/h (0 Bft) O-SO 107 ° 0 min 0 W/m² -2,7 °C -1,6 °C 0,0 km/h (0 Bft)
02.02.2025 04:52 21,5 °C -1,6 °C 49 % 92 % 1027,7 hPa 0,0 l/m² 0,0 km/h (0 Bft) O-SO 107 ° 0 min 0 W/m² -2,7 °C -1,6 °C 0,0 km/h (0 Bft)
02.02.2025 04:53 21,5 °C -1,6 °C 49 % 92 % 1027,7 hPa 0,0 l/m² 0,0 km/h (0 Bft) O-SO 107 ° 0 min 0 W/m² -2,7 °C -1,6 °C 0,0 km/h (0 Bft)
02.02.2025 04:55 21,5 °C -1,6 °C 49 % 92 % 1027,7 hPa 0,0 l/m² 0,0 km/h (0 Bft) O-SO 107 ° 0 min 0 W/m² -2,7 °C -1,6 °C 0,0 km/h (0 Bft)
02.02.2025 04:57 21,5 °C -1,6 °C 49 % 92 % 1027,6 hPa 0,0 l/m² 1,9 km/h (1 Bft) O-SO 107 ° 0 min 0 W/m² -2,7 °C -1,6 °C 3,2 km/h (1 Bft)
02.02.2025 04:59 21,5 °C -1,6 °C 49 % 92 % 1027,7 hPa 0,0 l/m² 0,7 km/h (0 Bft) O-SO 107 ° 0 min 0 W/m² -2,7 °C -1,6 °C 3,2 km/h (1 Bft)
02.02.2025 05:00 21,6 °C -1,6 °C 49 % 92 % 1027,7 hPa 0,0 l/m² 0,0 km/h (0 Bft) O-SO 107 ° 0 min 0 W/m² -2,7 °C -1,6 °C 0,0 km/h (0 Bft)
02.02.2025 05:02 21,6 °C -1,6 °C 49 % 92 % 1027,7 hPa 0,0 l/m² 0,0 km/h (0 Bft) O-SO 107 ° 0 min 0 W/m² -2,7 °C -1,6 °C 1,6 km/h (1 Bft)
02.02.2025 05:03 21,6 °C -1,6 °C 49 % 92 % 1027,7 hPa 0,0 l/m² 0,0 km/h (0 Bft) O-SO 107 ° 0 min 0 W/m² -2,7 °C -1,6 °C 0,0 km/h (0 Bft)
02.02.2025 05:05 21,6 °C -1,6 °C 49 % 92 % 1027,7 hPa 0,0 l/m² 0,0 km/h (0 Bft) O-SO 107 ° 0 min 0 W/m² -2,7 °C -1,6 °C 0,0 km/h (0 Bft)
02.02.2025 05:07 21,6 °C -1,6 °C 49 % 92 % 1027,6 hPa 0,0 l/m² 0,0 km/h (0 Bft) O-SO 107 ° 0 min 0 W/m² -2,7 °C -1,6 °C 0,0 km/h (0 Bft)
02.02.2025 05:09 21,6 °C -1,6 °C 49 % 92 % 1027,7 hPa 0,0 l/m² 0,8 km/h (0 Bft) O-SO 107 ° 0 min 0 W/m² -2,7 °C -1,6 °C 3,2 km/h (1 Bft)
02.02.2025 05:10 21,6 °C -1,6 °C 49 % 92 % 1027,7 hPa 0,0 l/m² 0,6 km/h (0 Bft) O-SO 107 ° 0 min 0 W/m² -2,7 °C -1,6 °C 3,2 km/h (1 Bft)
02.02.2025 05:12 21,6 °C -1,6 °C 49 % 92 % 1027,7 hPa 0,0 l/m² 0,8 km/h (0 Bft) O-SO 107 ° 0 min 0 W/m² -2,7 °C -1,6 °C 3,2 km/h (1 Bft)
02.02.2025 05:13 21,6 °C -1,6 °C 49 % 92 % 1027,7 hPa 0,0 l/m² 0,0 km/h (0 Bft) O-SO 107 ° 0 min 0 W/m² -2,7 °C -1,6 °C 0,0 km/h (0 Bft)
02.02.2025 05:15 21,6 °C -1,6 °C 49 % 92 % 1027,7 hPa 0,0 l/m² 0,0 km/h (0 Bft) O-SO 107 ° 0 min 0 W/m² -2,7 °C -1,6 °C 0,0 km/h (0 Bft)
02.02.2025 05:17 21,6 °C -1,6 °C 49 % 92 % 1027,7 hPa 0,0 l/m² 0,0 km/h (0 Bft) O-SO 107 ° 0 min 0 W/m² -2,7 °C -1,6 °C 0,0 km/h (0 Bft)
02.02.2025 05:19 21,6 °C -1,6 °C 49 % 92 % 1027,8 hPa 0,0 l/m² 0,0 km/h (0 Bft) O-SO 107 ° 0 min 0 W/m² -2,7 °C -1,6 °C 0,0 km/h (0 Bft)
02.02.2025 05:21 21,6 °C -1,6 °C 49 % 92 % 1027,7 hPa 0,0 l/m² 0,4 km/h (0 Bft) O-SO 107 ° 0 min 0 W/m² -2,7 °C -1,6 °C 3,2 km/h (1 Bft)
02.02.2025 05:22 21,6 °C -1,6 °C 49 % 92 % 1027,7 hPa 0,0 l/m² 0,0 km/h (0 Bft) O-SO 107 ° 0 min 0 W/m² -2,7 °C -1,6 °C 0,0 km/h (0 Bft)
02.02.2025 05:23 21,6 °C -1,6 °C 49 % 92 % 1027,7 hPa 0,0 l/m² 0,0 km/h (0 Bft) O-SO 107 ° 0 min 0 W/m² -2,7 °C -1,6 °C 0,0 km/h (0 Bft)
02.02.2025 05:25 21,6 °C -1,6 °C 49 % 92 % 1027,7 hPa 0,0 l/m² 0,0 km/h (0 Bft) O-SO 107 ° 0 min 0 W/m² -2,7 °C -1,6 °C 0,0 km/h (0 Bft)
02.02.2025 05:27 21,6 °C -1,6 °C 49 % 92 % 1027,6 hPa 0,0 l/m² 0,0 km/h (0 Bft) O-SO 107 ° 0 min 0 W/m² -2,7 °C -1,6 °C 0,0 km/h (0 Bft)
02.02.2025 05:28 21,6 °C -1,6 °C 49 % 92 % 1027,6 hPa 0,0 l/m² 0,0 km/h (0 Bft) O-SO 107 ° 0 min 0 W/m² -2,7 °C -1,6 °C 0,0 km/h (0 Bft)
02.02.2025 05:30 21,6 °C -1,6 °C 49 % 92 % 1027,6 hPa 0,0 l/m² 0,0 km/h (0 Bft) O-SO 107 ° 0 min 0 W/m² -2,7 °C -1,6 °C 0,0 km/h (0 Bft)
02.02.2025 05:31 21,6 °C -1,6 °C 49 % 92 % 1027,6 hPa 0,0 l/m² 0,0 km/h (0 Bft) O-SO 107 ° 0 min 0 W/m² -2,7 °C -1,6 °C 0,0 km/h (0 Bft)
02.02.2025 05:33 21,6 °C -1,6 °C 49 % 92 % 1027,7 hPa 0,0 l/m² 0,0 km/h (0 Bft) O-SO 107 ° 0 min 0 W/m² -2,7 °C -1,6 °C 0,0 km/h (0 Bft)
02.02.2025 05:34 21,6 °C -1,6 °C 49 % 92 % 1027,7 hPa 0,0 l/m² 0,0 km/h (0 Bft) O-SO 107 ° 0 min 0 W/m² -2,7 °C -1,6 °C 0,0 km/h (0 Bft)
02.02.2025 05:36 21,6 °C -1,6 °C 49 % 92 % 1027,8 hPa 0,0 l/m² 0,0 km/h (0 Bft) O-SO 107 ° 0 min 0 W/m² -2,7 °C -1,6 °C 0,0 km/h (0 Bft)
02.02.2025 05:38 21,6 °C -1,7 °C 49 % 92 % 1027,7 hPa 0,0 l/m² 0,0 km/h (0 Bft) O-SO 107 ° 0 min 0 W/m² -2,8 °C -1,7 °C 0,0 km/h (0 Bft)
02.02.2025 05:40 21,6 °C -1,7 °C 49 % 92 % 1027,7 hPa 0,0 l/m² 0,0 km/h (0 Bft) O-SO 107 ° 0 min 0 W/m² -2,8 °C -1,7 °C 1,6 km/h (1 Bft)
02.02.2025 05:41 21,6 °C -1,7 °C 49 % 92 % 1027,7 hPa 0,0 l/m² 0,0 km/h (0 Bft) O-SO 107 ° 0 min 0 W/m² -2,8 °C -1,7 °C 0,0 km/h (0 Bft)
02.02.2025 05:43 21,6 °C -1,7 °C 49 % 92 % 1027,6 hPa 0,0 l/m² 0,8 km/h (0 Bft) O-SO 107 ° 0 min 0 W/m² -2,8 °C -1,7 °C 3,2 km/h (1 Bft)
02.02.2025 05:44 21,6 °C -1,7 °C 49 % 92 % 1027,6 hPa 0,0 l/m² 0,0 km/h (0 Bft) O-SO 107 ° 0 min 0 W/m² -2,8 °C -1,7 °C 0,0 km/h (0 Bft)
02.02.2025 05:46 21,6 °C -1,7 °C 49 % 92 % 1027,7 hPa 0,0 l/m² 0,0 km/h (0 Bft) O-SO 107 ° 0 min 0 W/m² -2,8 °C -1,7 °C 0,0 km/h (0 Bft)
02.02.2025 05:48 21,6 °C -1,7 °C 49 % 92 % 1027,7 hPa 0,0 l/m² 0,1 km/h (0 Bft) O-SO 107 ° 0 min 0 W/m² -2,8 °C -1,7 °C 1,6 km/h (1 Bft)
02.02.2025 05:50 21,6 °C -1,7 °C 49 % 92 % 1027,7 hPa 0,0 l/m² 0,0 km/h (0 Bft) O-SO 107 ° 0 min 0 W/m² -2,8 °C -1,7 °C 0,0 km/h (0 Bft)
02.02.2025 05:51 21,6 °C -1,7 °C 49 % 92 % 1027,8 hPa 0,0 l/m² 0,0 km/h (0 Bft) O-SO 107 ° 0 min 0 W/m² -2,8 °C -1,7 °C 0,0 km/h (0 Bft)
02.02.2025 05:53 21,6 °C -1,7 °C 49 % 92 % 1027,8 hPa 0,0 l/m² 0,0 km/h (0 Bft) O-SO 107 ° 0 min 0 W/m² -2,8 °C -1,7 °C 0,0 km/h (0 Bft)
02.02.2025 05:54 21,6 °C -1,7 °C 49 % 92 % 1027,7 hPa 0,0 l/m² 0,0 km/h (0 Bft) O-SO 107 ° 0 min 0 W/m² -2,8 °C -1,7 °C 0,0 km/h (0 Bft)
02.02.2025 05:56 21,6 °C -1,7 °C 49 % 92 % 1027,8 hPa 0,0 l/m² 0,0 km/h (0 Bft) O-SO 107 ° 0 min 0 W/m² -2,8 °C -1,7 °C 0,0 km/h (0 Bft)
02.02.2025 05:58 21,6 °C -1,7 °C 49 % 93 % 1027,7 hPa 0,0 l/m² 0,0 km/h (0 Bft) O-SO 107 ° 0 min 0 W/m² -2,7 °C -1,7 °C 0,0 km/h (0 Bft)
02.02.2025 06:00 21,6 °C -1,7 °C 49 % 92 % 1027,7 hPa 0,0 l/m² 0,0 km/h (0 Bft) O-SO 107 ° 0 min 0 W/m² -2,8 °C -1,7 °C 0,0 km/h (0 Bft)
02.02.2025 06:01 21,6 °C -1,7 °C 49 % 93 % 1027,7 hPa 0,0 l/m² 0,0 km/h (0 Bft) O-SO 107 ° 0 min 0 W/m² -2,7 °C -1,7 °C 0,0 km/h (0 Bft)
02.02.2025 06:02 21,6 °C -1,7 °C 49 % 92 % 1027,7 hPa 0,0 l/m² 0,0 km/h (0 Bft) O-SO 107 ° 0 min 0 W/m² -2,8 °C -1,7 °C 0,0 km/h (0 Bft)
02.02.2025 06:04 21,6 °C -1,7 °C 49 % 93 % 1027,7 hPa 0,0 l/m² 0,0 km/h (0 Bft) O-SO 107 ° 0 min 0 W/m² -2,7 °C -1,7 °C 0,0 km/h (0 Bft)
02.02.2025 06:06 21,6 °C -1,7 °C 49 % 93 % 1027,7 hPa 0,0 l/m² 0,0 km/h (0 Bft) O-SO 107 ° 0 min 0 W/m² -2,7 °C -1,7 °C 0,0 km/h (0 Bft)
02.02.2025 06:08 21,6 °C -1,7 °C 49 % 92 % 1027,6 hPa 0,0 l/m² 0,0 km/h (0 Bft) O-SO 107 ° 0 min 0 W/m² -2,8 °C -1,7 °C 0,0 km/h (0 Bft)
02.02.2025 06:10 21,6 °C -1,7 °C 49 % 93 % 1027,6 hPa 0,0 l/m² 0,0 km/h (0 Bft) O-SO 107 ° 0 min 0 W/m² -2,7 °C -1,7 °C 0,0 km/h (0 Bft)
02.02.2025 06:11 21,6 °C -1,7 °C 49 % 93 % 1027,7 hPa 0,0 l/m² 0,0 km/h (0 Bft) O-SO 107 ° 0 min 0 W/m² -2,7 °C -1,7 °C 0,0 km/h (0 Bft)
02.02.2025 06:13 21,6 °C -1,7 °C 49 % 93 % 1027,8 hPa 0,0 l/m² 0,0 km/h (0 Bft) O-SO 107 ° 0 min 0 W/m² -2,7 °C -1,7 °C 0,0 km/h (0 Bft)
02.02.2025 06:14 21,6 °C -1,7 °C 49 % 93 % 1027,7 hPa 0,0 l/m² 0,0 km/h (0 Bft) O-SO 107 ° 0 min 0 W/m² -2,7 °C -1,7 °C 0,0 km/h (0 Bft)
02.02.2025 06:16 21,6 °C -1,7 °C 49 % 93 % 1027,7 hPa 0,0 l/m² 0,0 km/h (0 Bft) O-SO 107 ° 0 min 0 W/m² -2,7 °C -1,7 °C 0,0 km/h (0 Bft)
02.02.2025 06:18 21,6 °C -1,7 °C 49 % 93 % 1027,6 hPa 0,0 l/m² 0,0 km/h (0 Bft) O-SO 107 ° 0 min 0 W/m² -2,7 °C -1,7 °C 0,0 km/h (0 Bft)
02.02.2025 06:20 21,6 °C -1,7 °C 49 % 93 % 1027,6 hPa 0,0 l/m² 0,0 km/h (0 Bft) O-SO 107 ° 0 min 0 W/m² -2,7 °C -1,7 °C 0,0 km/h (0 Bft)
02.02.2025 06:21 21,6 °C -1,7 °C 49 % 93 % 1027,5 hPa 0,0 l/m² 0,0 km/h (0 Bft) O-SO 107 ° 0 min 0 W/m² -2,7 °C -1,7 °C 0,0 km/h (0 Bft)
02.02.2025 06:23 21,6 °C -1,7 °C 49 % 93 % 1027,6 hPa 0,0 l/m² 0,0 km/h (0 Bft) O-SO 107 ° 0 min 0 W/m² -2,7 °C -1,7 °C 0,0 km/h (0 Bft)
02.02.2025 06:24 21,6 °C -1,7 °C 49 % 93 % 1027,6 hPa 0,0 l/m² 0,0 km/h (0 Bft) O-SO 107 ° 0 min 0 W/m² -2,7 °C -1,7 °C 0,0 km/h (0 Bft)
02.02.2025 06:26 21,6 °C -1,7 °C 49 % 93 % 1027,5 hPa 0,0 l/m² 0,0 km/h (0 Bft) O-SO 107 ° 0 min 0 W/m² -2,7 °C -1,7 °C 0,0 km/h (0 Bft)
02.02.2025 06:28 21,6 °C -1,7 °C 49 % 93 % 1027,5 hPa 0,0 l/m² 0,0 km/h (0 Bft) O-SO 107 ° 0 min 0 W/m² -2,7 °C -1,7 °C 0,0 km/h (0 Bft)
02.02.2025 06:30 21,6 °C -1,7 °C 49 % 93 % 1027,6 hPa 0,0 l/m² 0,0 km/h (0 Bft) O-SO 107 ° 0 min 0 W/m² -2,7 °C -1,7 °C 0,0 km/h (0 Bft)
02.02.2025 06:31 21,6 °C -1,7 °C 49 % 93 % 1027,6 hPa 0,0 l/m² 0,0 km/h (0 Bft) O-SO 107 ° 0 min 0 W/m² -2,7 °C -1,7 °C 0,0 km/h (0 Bft)
02.02.2025 06:33 21,6 °C -1,7 °C 49 % 93 % 1027,6 hPa 0,0 l/m² 0,0 km/h (0 Bft) O-SO 107 ° 0 min 0 W/m² -2,7 °C -1,7 °C 0,0 km/h (0 Bft)
02.02.2025 06:34 21,6 °C -1,7 °C 49 % 93 % 1027,6 hPa 0,0 l/m² 0,0 km/h (0 Bft) O-SO 107 ° 0 min 0 W/m² -2,7 °C -1,7 °C 0,0 km/h (0 Bft)
02.02.2025 06:36 21,6 °C -1,7 °C 49 % 93 % 1027,6 hPa 0,0 l/m² 0,0 km/h (0 Bft) O-SO 107 ° 0 min 0 W/m² -2,7 °C -1,7 °C 0,0 km/h (0 Bft)
02.02.2025 06:38 21,6 °C -1,7 °C 49 % 93 % 1027,7 hPa 0,0 l/m² 0,0 km/h (0 Bft) O-SO 107 ° 0 min 0 W/m² -2,7 °C -1,7 °C 0,0 km/h (0 Bft)
02.02.2025 06:40 21,6 °C -1,7 °C 49 % 93 % 1027,7 hPa 0,0 l/m² 0,0 km/h (0 Bft) O-SO 107 ° 0 min 0 W/m² -2,7 °C -1,7 °C 0,0 km/h (0 Bft)
02.02.2025 06:41 21,6 °C -1,7 °C 49 % 93 % 1027,7 hPa 0,0 l/m² 0,0 km/h (0 Bft) O-SO 107 ° 0 min 0 W/m² -2,7 °C -1,7 °C 0,0 km/h (0 Bft)
02.02.2025 06:43 21,6 °C -1,7 °C 49 % 93 % 1027,7 hPa 0,0 l/m² 0,0 km/h (0 Bft) O-SO 107 ° 0 min 0 W/m² -2,7 °C -1,7 °C 0,0 km/h (0 Bft)
02.02.2025 06:44 21,6 °C -1,7 °C 49 % 93 % 1027,7 hPa 0,0 l/m² 0,0 km/h (0 Bft) O-SO 107 ° 0 min 0 W/m² -2,7 °C -1,7 °C 0,0 km/h (0 Bft)
02.02.2025 06:46 21,6 °C -1,7 °C 49 % 93 % 1027,8 hPa 0,0 l/m² 0,0 km/h (0 Bft) O-SO 107 ° 0 min 0 W/m² -2,7 °C -1,7 °C 0,0 km/h (0 Bft)
02.02.2025 06:48 21,6 °C -1,7 °C 49 % 93 % 1027,8 hPa 0,0 l/m² 0,0 km/h (0 Bft) O-SO 107 ° 0 min 0 W/m² -2,7 °C -1,7 °C 0,0 km/h (0 Bft)
02.02.2025 06:50 21,6 °C -1,7 °C 49 % 93 % 1027,9 hPa 0,0 l/m² 0,0 km/h (0 Bft) O-SO 107 ° 0 min 0 W/m² -2,7 °C -1,7 °C 0,0 km/h (0 Bft)
02.02.2025 06:51 21,6 °C -1,7 °C 49 % 93 % 1027,8 hPa 0,0 l/m² 0,0 km/h (0 Bft) O-SO 107 ° 0 min 0 W/m² -2,7 °C -1,7 °C 0,0 km/h (0 Bft)
02.02.2025 06:53 21,6 °C -1,7 °C 49 % 93 % 1027,8 hPa 0,0 l/m² 0,0 km/h (0 Bft) O-SO 107 ° 0 min 0 W/m² -2,7 °C -1,7 °C 0,0 km/h (0 Bft)
02.02.2025 06:54 21,6 °C -1,7 °C 49 % 93 % 1027,8 hPa 0,0 l/m² 0,0 km/h (0 Bft) O-SO 107 ° 0 min 0 W/m² -2,7 °C -1,7 °C 0,0 km/h (0 Bft)
02.02.2025 06:56 21,6 °C -1,7 °C 49 % 93 % 1027,8 hPa 0,0 l/m² 0,0 km/h (0 Bft) O-SO 107 ° 0 min 0 W/m² -2,7 °C -1,7 °C 0,0 km/h (0 Bft)
02.02.2025 06:58 21,6 °C -1,7 °C 49 % 93 % 1027,9 hPa 0,0 l/m² 0,0 km/h (0 Bft) O-SO 107 ° 0 min 0 W/m² -2,7 °C -1,7 °C 0,0 km/h (0 Bft)
02.02.2025 07:00 21,6 °C -1,7 °C 49 % 93 % 1028,0 hPa 0,0 l/m² 0,0 km/h (0 Bft) O-SO 107 ° 0 min 0 W/m² -2,7 °C -1,7 °C 0,0 km/h (0 Bft)
02.02.2025 07:01 21,6 °C -1,6 °C 49 % 93 % 1027,9 hPa 0,0 l/m² 0,0 km/h (0 Bft) O-SO 107 ° 0 min 0 W/m² -2,6 °C -1,6 °C 0,0 km/h (0 Bft)
02.02.2025 07:03 21,6 °C -1,6 °C 49 % 93 % 1027,9 hPa 0,0 l/m² 0,0 km/h (0 Bft) O-SO 107 ° 0 min 0 W/m² -2,6 °C -1,6 °C 0,0 km/h (0 Bft)
02.02.2025 07:04 21,6 °C -1,6 °C 49 % 93 % 1027,9 hPa 0,0 l/m² 0,0 km/h (0 Bft) O-SO 107 ° 0 min 0 W/m² -2,6 °C -1,6 °C 0,0 km/h (0 Bft)
02.02.2025 07:06 21,6 °C -1,6 °C 49 % 93 % 1027,9 hPa 0,0 l/m² 0,0 km/h (0 Bft) O-SO 107 ° 0 min 0 W/m² -2,6 °C -1,6 °C 0,0 km/h (0 Bft)
02.02.2025 07:08 21,6 °C -1,6 °C 49 % 93 % 1028,0 hPa 0,0 l/m² 0,0 km/h (0 Bft) O-SO 107 ° 0 min 0 W/m² -2,6 °C -1,6 °C 0,0 km/h (0 Bft)
02.02.2025 07:10 21,6 °C -1,6 °C 49 % 93 % 1028,0 hPa 0,0 l/m² 0,0 km/h (0 Bft) O-SO 107 ° 0 min 0 W/m² -2,6 °C -1,6 °C 0,0 km/h (0 Bft)
02.02.2025 07:11 21,6 °C -1,6 °C 49 % 93 % 1028,0 hPa 0,0 l/m² 0,0 km/h (0 Bft) O-SO 107 ° 0 min 0 W/m² -2,6 °C -1,6 °C 0,0 km/h (0 Bft)
02.02.2025 07:13 21,6 °C -1,6 °C 49 % 93 % 1028,1 hPa 0,0 l/m² 0,0 km/h (0 Bft) O-SO 107 ° 0 min 0 W/m² -2,6 °C -1,6 °C 0,0 km/h (0 Bft)
02.02.2025 07:14 21,6 °C -1,6 °C 49 % 93 % 1028,1 hPa 0,0 l/m² 0,0 km/h (0 Bft) O-SO 107 ° 0 min 0 W/m² -2,6 °C -1,6 °C 0,0 km/h (0 Bft)
02.02.2025 07:16 21,6 °C -1,6 °C 49 % 93 % 1028,1 hPa 0,0 l/m² 0,0 km/h (0 Bft) O-SO 107 ° 0 min 0 W/m² -2,6 °C -1,6 °C 0,0 km/h (0 Bft)
02.02.2025 07:18 21,6 °C -1,6 °C 49 % 93 % 1028,1 hPa 0,0 l/m² 0,0 km/h (0 Bft) O-SO 107 ° 0 min 0 W/m² -2,6 °C -1,6 °C 0,0 km/h (0 Bft)
02.02.2025 07:20 21,6 °C -1,6 °C 49 % 93 % 1028,0 hPa 0,0 l/m² 0,0 km/h (0 Bft) O-SO 107 ° 0 min 0 W/m² -2,6 °C -1,6 °C 0,0 km/h (0 Bft)
02.02.2025 07:21 21,6 °C -1,6 °C 49 % 93 % 1028,1 hPa 0,0 l/m² 0,0 km/h (0 Bft) O-SO 107 ° 0 min 0 W/m² -2,6 °C -1,6 °C 0,0 km/h (0 Bft)
02.02.2025 07:23 21,6 °C -1,6 °C 49 % 93 % 1028,1 hPa 0,0 l/m² 0,0 km/h (0 Bft) O-SO 107 ° 0 min 0 W/m² -2,6 °C -1,6 °C 0,0 km/h (0 Bft)
02.02.2025 07:24 21,6 °C -1,6 °C 49 % 93 % 1028,1 hPa 0,0 l/m² 0,0 km/h (0 Bft) O-SO 107 ° 0 min 0 W/m² -2,6 °C -1,6 °C 0,0 km/h (0 Bft)
02.02.2025 07:26 21,6 °C -1,6 °C 49 % 93 % 1028,2 hPa 0,0 l/m² 0,0 km/h (0 Bft) O-SO 107 ° 0 min 0 W/m² -2,6 °C -1,6 °C 0,0 km/h (0 Bft)
02.02.2025 07:28 21,6 °C -1,6 °C 49 % 93 % 1028,1 hPa 0,0 l/m² 0,0 km/h (0 Bft) O-SO 107 ° 0 min 0 W/m² -2,6 °C -1,6 °C 0,0 km/h (0 Bft)
02.02.2025 07:30 21,6 °C -1,6 °C 49 % 93 % 1028,1 hPa 0,0 l/m² 0,0 km/h (0 Bft) O-SO 107 ° 0 min 0 W/m² -2,6 °C -1,6 °C 0,0 km/h (0 Bft)
02.02.2025 07:31 21,6 °C -1,6 °C 49 % 93 % 1028,1 hPa 0,0 l/m² 0,0 km/h (0 Bft) O-SO 107 ° 0 min 0 W/m² -2,6 °C -1,6 °C 0,0 km/h (0 Bft)
02.02.2025 07:33 21,6 °C -1,6 °C 49 % 93 % 1028,0 hPa 0,0 l/m² 0,0 km/h (0 Bft) O-SO 107 ° 0 min 0 W/m² -2,6 °C -1,6 °C 0,0 km/h (0 Bft)
02.02.2025 07:35 21,6 °C -1,6 °C 49 % 93 % 1028,1 hPa 0,0 l/m² 0,0 km/h (0 Bft) O-SO 107 ° 0 min 0 W/m² -2,6 °C -1,6 °C 0,0 km/h (0 Bft)
02.02.2025 07:37 21,6 °C -1,7 °C 49 % 93 % 1028,1 hPa 0,0 l/m² 0,0 km/h (0 Bft) O-SO 107 ° 0 min 5 W/m² -2,7 °C -1,7 °C 0,0 km/h (0 Bft)
02.02.2025 07:39 21,6 °C -1,7 °C 49 % 93 % 1028,1 hPa 0,0 l/m² 0,0 km/h (0 Bft) O-SO 107 ° 0 min 7 W/m² -2,7 °C -1,7 °C 0,0 km/h (0 Bft)
02.02.2025 07:41 21,6 °C -1,7 °C 49 % 93 % 1028,0 hPa 0,0 l/m² 0,0 km/h (0 Bft) O-SO 107 ° 0 min 7 W/m² -2,7 °C -1,7 °C 0,0 km/h (0 Bft)
02.02.2025 07:42 21,6 °C -1,7 °C 49 % 93 % 1028,1 hPa 0,0 l/m² 0,0 km/h (0 Bft) O-SO 107 ° 0 min 7 W/m² -2,7 °C -1,7 °C 0,0 km/h (0 Bft)
02.02.2025 07:43 21,6 °C -1,7 °C 49 % 93 % 1028,1 hPa 0,0 l/m² 0,0 km/h (0 Bft) O-SO 107 ° 0 min 7 W/m² -2,7 °C -1,7 °C 0,0 km/h (0 Bft)
02.02.2025 07:45 21,6 °C -1,7 °C 49 % 93 % 1028,1 hPa 0,0 l/m² 0,0 km/h (0 Bft) O-SO 107 ° 0 min 7 W/m² -2,7 °C -1,7 °C 0,0 km/h (0 Bft)
02.02.2025 07:47 21,6 °C -1,8 °C 49 % 92 % 1028,1 hPa 0,0 l/m² 0,0 km/h (0 Bft) O-SO 107 ° 0 min 7 W/m² -2,9 °C -1,8 °C 0,0 km/h (0 Bft)
02.02.2025 07:49 21,6 °C -1,8 °C 49 % 92 % 1028,0 hPa 0,0 l/m² 0,0 km/h (0 Bft) O-SO 107 ° 0 min 9 W/m² -2,9 °C -1,8 °C 0,0 km/h (0 Bft)
02.02.2025 07:51 21,6 °C -1,9 °C 49 % 92 % 1028,0 hPa 0,0 l/m² 0,0 km/h (0 Bft) O-SO 107 ° 0 min 9 W/m² -3,0 °C -1,9 °C 0,0 km/h (0 Bft)
02.02.2025 07:52 21,6 °C -1,9 °C 49 % 92 % 1028,0 hPa 0,0 l/m² 0,0 km/h (0 Bft) O-SO 107 ° 0 min 9 W/m² -3,0 °C -1,9 °C 0,0 km/h (0 Bft)
02.02.2025 07:53 21,6 °C -1,9 °C 49 % 92 % 1028,0 hPa 0,0 l/m² 0,0 km/h (0 Bft) O-SO 107 ° 0 min 9 W/m² -3,0 °C -1,9 °C 0,0 km/h (0 Bft)
02.02.2025 07:55 21,6 °C -1,9 °C 49 % 92 % 1027,9 hPa 0,0 l/m² 0,0 km/h (0 Bft) O-SO 107 ° 0 min 11 W/m² -3,0 °C -1,9 °C 0,0 km/h (0 Bft)
02.02.2025 07:57 21,6 °C -1,9 °C 49 % 92 % 1027,9 hPa 0,0 l/m² 0,0 km/h (0 Bft) O-SO 107 ° 0 min 11 W/m² -3,0 °C -1,9 °C 0,0 km/h (0 Bft)
02.02.2025 07:59 21,6 °C -2,0 °C 49 % 92 % 1027,9 hPa 0,0 l/m² 0,0 km/h (0 Bft) O-SO 107 ° 0 min 12 W/m² -3,1 °C -2,0 °C 0,0 km/h (0 Bft)
02.02.2025 08:01 21,6 °C -2,1 °C 49 % 92 % 1028,0 hPa 0,0 l/m² 0,0 km/h (0 Bft) O-SO 107 ° 0 min 12 W/m² -3,2 °C -2,1 °C 0,0 km/h (0 Bft)
02.02.2025 08:02 21,6 °C -2,1 °C 49 % 92 % 1028,0 hPa 0,0 l/m² 0,0 km/h (0 Bft) O-SO 107 ° 0 min 14 W/m² -3,2 °C -2,1 °C 0,0 km/h (0 Bft)
02.02.2025 08:03 21,6 °C -2,2 °C 49 % 92 % 1028,0 hPa 0,0 l/m² 0,0 km/h (0 Bft) O-SO 107 ° 0 min 14 W/m² -3,3 °C -2,2 °C 0,0 km/h (0 Bft)
02.02.2025 08:05 21,7 °C -2,2 °C 49 % 92 % 1028,1 hPa 0,0 l/m² 0,0 km/h (0 Bft) O-SO 107 ° 0 min 16 W/m² -3,3 °C -2,2 °C 0,0 km/h (0 Bft)
02.02.2025 08:07 21,7 °C -2,3 °C 49 % 92 % 1028,1 hPa 0,0 l/m² 0,0 km/h (0 Bft) O-SO 107 ° 0 min 18 W/m² -3,4 °C -2,3 °C 0,0 km/h (0 Bft)
02.02.2025 08:09 21,7 °C -2,3 °C 49 % 92 % 1028,1 hPa 0,0 l/m² 0,0 km/h (0 Bft) O-SO 107 ° 0 min 18 W/m² -3,4 °C -2,3 °C 0,0 km/h (0 Bft)
02.02.2025 08:11 21,7 °C -2,3 °C 49 % 92 % 1028,0 hPa 0,0 l/m² 0,0 km/h (0 Bft) O-SO 107 ° 0 min 19 W/m² -3,4 °C -2,3 °C 0,0 km/h (0 Bft)
02.02.2025 08:12 21,7 °C -2,3 °C 49 % 93 % 1028,1 hPa 0,0 l/m² 0,0 km/h (0 Bft) O-SO 107 ° 0 min 19 W/m² -3,3 °C -2,3 °C 0,0 km/h (0 Bft)
02.02.2025 08:13 21,7 °C -2,3 °C 49 % 93 % 1028,1 hPa 0,0 l/m² 0,0 km/h (0 Bft) O-SO 107 ° 0 min 21 W/m² -3,3 °C -2,3 °C 0,0 km/h (0 Bft)
02.02.2025 08:15 21,7 °C -2,3 °C 49 % 93 % 1028,0 hPa 0,0 l/m² 0,0 km/h (0 Bft) O-SO 107 ° 0 min 23 W/m² -3,3 °C -2,3 °C 0,0 km/h (0 Bft)
02.02.2025 08:17 21,7 °C -2,3 °C 49 % 93 % 1028,0 hPa 0,0 l/m² 0,0 km/h (0 Bft) O-SO 107 ° 0 min 25 W/m² -3,3 °C -2,3 °C 0,0 km/h (0 Bft)
02.02.2025 08:19 21,7 °C -2,4 °C 49 % 93 % 1028,0 hPa 0,0 l/m² 0,0 km/h (0 Bft) O-SO 107 ° 0 min 25 W/m² -3,4 °C -2,4 °C 0,0 km/h (0 Bft)
02.02.2025 08:21 21,7 °C -2,4 °C 49 % 93 % 1028,1 hPa 0,0 l/m² 0,0 km/h (0 Bft) O-SO 107 ° 0 min 26 W/m² -3,4 °C -2,4 °C 0,0 km/h (0 Bft)
02.02.2025 08:22 21,7 °C -2,4 °C 49 % 92 % 1028,0 hPa 0,0 l/m² 0,0 km/h (0 Bft) O-SO 107 ° 0 min 26 W/m² -3,5 °C -2,4 °C 0,0 km/h (0 Bft)
02.02.2025 08:23 21,7 °C -2,4 °C 49 % 92 % 1028,0 hPa 0,0 l/m² 0,0 km/h (0 Bft) O-SO 107 ° 0 min 26 W/m² -3,5 °C -2,4 °C 0,0 km/h (0 Bft)
02.02.2025 08:25 21,7 °C -2,4 °C 49 % 92 % 1028,1 hPa 0,0 l/m² 0,0 km/h (0 Bft) O-SO 107 ° 0 min 26 W/m² -3,5 °C -2,4 °C 0,0 km/h (0 Bft)
02.02.2025 08:27 21,7 °C -2,4 °C 49 % 92 % 1028,0 hPa 0,0 l/m² 0,0 km/h (0 Bft) O-SO 107 ° 0 min 26 W/m² -3,5 °C -2,4 °C 0,0 km/h (0 Bft)
02.02.2025 08:29 21,7 °C -2,4 °C 50 % 92 % 1028,1 hPa 0,0 l/m² 0,0 km/h (0 Bft) O-SO 107 ° 0 min 26 W/m² -3,5 °C -2,4 °C 0,0 km/h (0 Bft)
02.02.2025 08:31 21,8 °C -2,4 °C 50 % 92 % 1028,1 hPa 0,0 l/m² 0,0 km/h (0 Bft) O-SO 107 ° 0 min 26 W/m² -3,5 °C -2,4 °C 0,0 km/h (0 Bft)
02.02.2025 08:32 21,8 °C -2,4 °C 50 % 92 % 1028,0 hPa 0,0 l/m² 0,0 km/h (0 Bft) O-SO 107 ° 0 min 28 W/m² -3,5 °C -2,4 °C 0,0 km/h (0 Bft)
02.02.2025 08:33 21,8 °C -2,4 °C 50 % 92 % 1028,0 hPa 0,0 l/m² 0,0 km/h (0 Bft) O-SO 107 ° 0 min 28 W/m² -3,5 °C -2,4 °C 0,0 km/h (0 Bft)
02.02.2025 08:35 21,7 °C -2,4 °C 50 % 92 % 1028,0 hPa 0,0 l/m² 0,0 km/h (0 Bft) O-SO 107 ° 0 min 30 W/m² -3,5 °C -2,4 °C 0,0 km/h (0 Bft)
02.02.2025 08:37 21,8 °C -2,4 °C 50 % 92 % 1028,0 hPa 0,0 l/m² 0,0 km/h (0 Bft) O-SO 107 ° 0 min 30 W/m² -3,5 °C -2,4 °C 0,0 km/h (0 Bft)
02.02.2025 08:39 21,8 °C -2,4 °C 50 % 92 % 1028,0 hPa 0,0 l/m² 0,0 km/h (0 Bft) O-SO 107 ° 0 min 35 W/m² -3,5 °C -2,4 °C 0,0 km/h (0 Bft)
02.02.2025 08:41 21,8 °C -2,5 °C 50 % 92 % 1027,9 hPa 0,0 l/m² 0,0 km/h (0 Bft) O-SO 107 ° 0 min 37 W/m² -3,6 °C -2,5 °C 0,0 km/h (0 Bft)
02.02.2025 08:42 21,8 °C -2,5 °C 50 % 92 % 1027,9 hPa 0,0 l/m² 0,0 km/h (0 Bft) O-SO 107 ° 0 min 39 W/m² -3,6 °C -2,5 °C 0,0 km/h (0 Bft)
02.02.2025 08:43 21,8 °C -2,5 °C 50 % 92 % 1027,9 hPa 0,0 l/m² 0,0 km/h (0 Bft) O-SO 107 ° 0 min 44 W/m² -3,6 °C -2,5 °C 0,0 km/h (0 Bft)
02.02.2025 08:45 21,8 °C -2,5 °C 50 % 92 % 1027,9 hPa 0,0 l/m² 0,0 km/h (0 Bft) O-SO 107 ° 2 min 60 W/m² -3,6 °C -2,5 °C 0,0 km/h (0 Bft)
02.02.2025 08:47 21,8 °C -2,4 °C 50 % 93 % 1028,0 hPa 0,0 l/m² 0,0 km/h (0 Bft) O-SO 107 ° 0 min 49 W/m² -3,4 °C -2,4 °C 0,0 km/h (0 Bft)
02.02.2025 08:49 21,8 °C -2,4 °C 50 % 93 % 1028,0 hPa 0,0 l/m² 0,0 km/h (0 Bft) O-SO 107 ° 0 min 47 W/m² -3,4 °C -2,4 °C 0,0 km/h (0 Bft)
02.02.2025 08:51 21,8 °C -2,4 °C 49 % 93 % 1028,0 hPa 0,0 l/m² 0,0 km/h (0 Bft) O-SO 107 ° 0 min 51 W/m² -3,4 °C -2,4 °C 0,0 km/h (0 Bft)
02.02.2025 08:52 21,8 °C -2,4 °C 49 % 93 % 1028,0 hPa 0,0 l/m² 0,0 km/h (0 Bft) O-SO 107 ° 0 min 51 W/m² -3,4 °C -2,4 °C 0,0 km/h (0 Bft)
02.02.2025 08:53 21,8 °C -2,4 °C 49 % 93 % 1028,0 hPa 0,0 l/m² 0,0 km/h (0 Bft) O-SO 107 ° 1 min 53 W/m² -3,4 °C -2,4 °C 0,0 km/h (0 Bft)
02.02.2025 08:55 21,8 °C -2,4 °C 49 % 93 % 1028,1 hPa 0,0 l/m² 0,0 km/h (0 Bft) O-SO 107 ° 2 min 53 W/m² -3,4 °C -2,4 °C 0,0 km/h (0 Bft)
02.02.2025 08:57 21,8 °C -2,4 °C 49 % 92 % 1028,1 hPa 0,0 l/m² 0,0 km/h (0 Bft) O-SO 107 ° 0 min 51 W/m² -3,5 °C -2,4 °C 0,0 km/h (0 Bft)
02.02.2025 08:59 21,8 °C -2,4 °C 50 % 93 % 1028,0 hPa 0,0 l/m² 0,0 km/h (0 Bft) O-SO 107 ° 2 min 53 W/m² -3,4 °C -2,4 °C 0,0 km/h (0 Bft)
02.02.2025 09:00 21,8 °C -2,5 °C 50 % 92 % 1028,0 hPa 0,0 l/m² 0,0 km/h (0 Bft) O-SO 107 ° 1 min 54 W/m² -3,6 °C -2,5 °C 0,0 km/h (0 Bft)
02.02.2025 09:02 21,8 °C -2,5 °C 50 % 92 % 1028,0 hPa 0,0 l/m² 0,0 km/h (0 Bft) O-SO 107 ° 2 min 53 W/m² -3,6 °C -2,5 °C 0,0 km/h (0 Bft)
02.02.2025 09:03 21,7 °C -2,6 °C 50 % 92 % 1028,0 hPa 0,0 l/m² 0,0 km/h (0 Bft) O-SO 107 ° 0 min 51 W/m² -3,7 °C -2,6 °C 0,0 km/h (0 Bft)
02.02.2025 09:05 21,8 °C -2,6 °C 50 % 92 % 1028,0 hPa 0,0 l/m² 0,0 km/h (0 Bft) O-SO 107 ° 0 min 51 W/m² -3,7 °C -2,6 °C 0,0 km/h (0 Bft)
02.02.2025 09:07 21,8 °C -2,5 °C 50 % 93 % 1028,0 hPa 0,0 l/m² 0,0 km/h (0 Bft) O-SO 107 ° 2 min 58 W/m² -3,5 °C -2,5 °C 0,0 km/h (0 Bft)
02.02.2025 09:09 21,8 °C -2,5 °C 50 % 93 % 1028,2 hPa 0,0 l/m² 0,0 km/h (0 Bft) O-SO 107 ° 2 min 62 W/m² -3,5 °C -2,5 °C 1,6 km/h (1 Bft)
02.02.2025 09:10 21,8 °C -2,6 °C 50 % 93 % 1028,1 hPa 0,0 l/m² 0,0 km/h (0 Bft) O-SO 107 ° 1 min 62 W/m² -3,6 °C -2,6 °C 0,0 km/h (0 Bft)
02.02.2025 09:12 21,8 °C -2,5 °C 50 % 93 % 1028,1 hPa 0,0 l/m² 1,3 km/h (1 Bft) O-SO 107 ° 2 min 62 W/m² -3,5 °C -2,5 °C 3,2 km/h (1 Bft)
02.02.2025 09:13 21,8 °C -2,5 °C 50 % 93 % 1028,0 hPa 0,0 l/m² 0,0 km/h (0 Bft) O-SO 107 ° 1 min 63 W/m² -3,5 °C -2,5 °C 0,0 km/h (0 Bft)
02.02.2025 09:15 21,8 °C -2,5 °C 50 % 93 % 1028,1 hPa 0,0 l/m² 0,0 km/h (0 Bft) O-SO 107 ° 2 min 76 W/m² -3,5 °C -2,5 °C 0,0 km/h (0 Bft)
02.02.2025 09:17 21,8 °C -2,4 °C 50 % 93 % 1028,1 hPa 0,0 l/m² 0,0 km/h (0 Bft) O-SO 107 ° 2 min 77 W/m² -3,4 °C -2,4 °C 0,0 km/h (0 Bft)
02.02.2025 09:19 21,8 °C -2,3 °C 50 % 93 % 1028,1 hPa 0,0 l/m² 0,0 km/h (0 Bft) O-SO 107 ° 2 min 74 W/m² -3,3 °C -2,3 °C 0,0 km/h (0 Bft)
02.02.2025 09:20 21,8 °C -2,3 °C 50 % 93 % 1028,1 hPa 0,0 l/m² 0,0 km/h (0 Bft) O-SO 107 ° 1 min 72 W/m² -3,3 °C -2,3 °C 0,0 km/h (0 Bft)
02.02.2025 09:21 21,9 °C -2,3 °C 50 % 93 % 1028,1 hPa 0,0 l/m² 0,0 km/h (0 Bft) O-SO 107 ° 1 min 74 W/m² -3,3 °C -2,3 °C 0,0 km/h (0 Bft)
02.02.2025 09:23 21,8 °C -2,2 °C 50 % 93 % 1028,1 hPa 0,0 l/m² 0,0 km/h (0 Bft) O-SO 107 ° 2 min 77 W/m² -3,2 °C -2,2 °C 0,0 km/h (0 Bft)
02.02.2025 09:24 21,8 °C -2,2 °C 50 % 93 % 1028,0 hPa 0,0 l/m² 0,0 km/h (0 Bft) O-SO 107 ° 1 min 77 W/m² -3,2 °C -2,2 °C 0,0 km/h (0 Bft)
02.02.2025 09:26 21,9 °C -2,1 °C 50 % 93 % 1028,0 hPa 0,0 l/m² 0,0 km/h (0 Bft) O-SO 107 ° 2 min 86 W/m² -3,1 °C -2,1 °C 0,0 km/h (0 Bft)
02.02.2025 09:28 21,9 °C -2,0 °C 50 % 93 % 1027,9 hPa 0,0 l/m² 0,0 km/h (0 Bft) O-SO 107 ° 2 min 91 W/m² -3,0 °C -2,0 °C 0,0 km/h (0 Bft)
02.02.2025 09:30 21,9 °C -1,9 °C 50 % 93 % 1028,1 hPa 0,0 l/m² 0,0 km/h (0 Bft) O-SO 107 ° 2 min 95 W/m² -2,9 °C -1,9 °C 0,0 km/h (0 Bft)
02.02.2025 09:31 21,9 °C -1,9 °C 50 % 93 % 1028,0 hPa 0,0 l/m² 0,0 km/h (0 Bft) O-SO 107 ° 1 min 98 W/m² -2,9 °C -1,9 °C 0,0 km/h (0 Bft)
02.02.2025 09:32 21,9 °C -1,8 °C 50 % 93 % 1028,0 hPa 0,0 l/m² 0,0 km/h (0 Bft) O-SO 107 ° 1 min 102 W/m² -2,8 °C -1,8 °C 0,0 km/h (0 Bft)
02.02.2025 09:33 21,9 °C -1,8 °C 50 % 93 % 1027,9 hPa 0,0 l/m² 0,0 km/h (0 Bft) O-SO 107 ° 1 min 105 W/m² -2,8 °C -1,8 °C 0,0 km/h (0 Bft)
02.02.2025 09:34 21,9 °C -1,8 °C 50 % 93 % 1027,9 hPa 0,0 l/m² 0,0 km/h (0 Bft) O-SO 107 ° 1 min 107 W/m² -2,8 °C -1,8 °C 0,0 km/h (0 Bft)
02.02.2025 09:36 21,9 °C -1,8 °C 50 % 93 % 1028,0 hPa 0,0 l/m² 0,0 km/h (0 Bft) O-SO 107 ° 2 min 109 W/m² -2,8 °C -1,8 °C 0,0 km/h (0 Bft)
02.02.2025 09:38 21,9 °C -1,7 °C 50 % 93 % 1028,0 hPa 0,0 l/m² 0,0 km/h (0 Bft) O-SO 107 ° 2 min 113 W/m² -2,7 °C -1,7 °C 0,0 km/h (0 Bft)
02.02.2025 09:40 21,9 °C -1,6 °C 50 % 93 % 1028,0 hPa 0,0 l/m² 0,0 km/h (0 Bft) O-SO 107 ° 2 min 111 W/m² -2,6 °C -1,6 °C 0,0 km/h (0 Bft)
02.02.2025 09:41 21,9 °C -1,6 °C 50 % 93 % 1028,0 hPa 0,0 l/m² 0,0 km/h (0 Bft) O-SO 107 ° 1 min 109 W/m² -2,6 °C -1,6 °C 0,0 km/h (0 Bft)
02.02.2025 09:42 21,9 °C -1,6 °C 50 % 93 % 1028,0 hPa 0,0 l/m² 0,0 km/h (0 Bft) O-SO 107 ° 1 min 107 W/m² -2,6 °C -1,6 °C 0,0 km/h (0 Bft)
02.02.2025 09:44 21,9 °C -1,5 °C 50 % 93 % 1027,9 hPa 0,0 l/m² 0,0 km/h (0 Bft) O-SO 107 ° 2 min 105 W/m² -2,5 °C -1,5 °C 0,0 km/h (0 Bft)
02.02.2025 09:47 21,9 °C -1,5 °C 50 % 93 % 1027,9 hPa 0,0 l/m² 0,0 km/h (0 Bft) O-SO 107 ° 3 min 105 W/m² -2,5 °C -1,5 °C 0,0 km/h (0 Bft)
02.02.2025 09:49 21,9 °C -1,6 °C 50 % 93 % 1027,9 hPa 0,0 l/m² 0,0 km/h (0 Bft) O-SO 107 ° 2 min 102 W/m² -2,6 °C -1,6 °C 0,0 km/h (0 Bft)
02.02.2025 09:50 21,9 °C -1,5 °C 50 % 93 % 1027,9 hPa 0,0 l/m² 0,0 km/h (0 Bft) O-SO 107 ° 1 min 104 W/m² -2,5 °C -1,5 °C 0,0 km/h (0 Bft)
02.02.2025 09:52 21,9 °C -1,4 °C 50 % 93 % 1027,9 hPa 0,0 l/m² 0,0 km/h (0 Bft) O-SO 107 ° 2 min 100 W/m² -2,4 °C -1,4 °C 0,0 km/h (0 Bft)
02.02.2025 09:53 21,9 °C -1,4 °C 50 % 93 % 1027,9 hPa 0,0 l/m² 0,0 km/h (0 Bft) O-SO 107 ° 1 min 98 W/m² -2,4 °C -1,4 °C 0,0 km/h (0 Bft)
02.02.2025 09:55 21,9 °C -1,4 °C 50 % 93 % 1027,9 hPa 0,0 l/m² 0,0 km/h (0 Bft) O-SO 107 ° 2 min 98 W/m² -2,4 °C -1,4 °C 0,0 km/h (0 Bft)
02.02.2025 09:57 21,9 °C -1,3 °C 50 % 93 % 1027,9 hPa 0,0 l/m² 0,0 km/h (0 Bft) O-SO 107 ° 2 min 102 W/m² -2,3 °C -1,3 °C 0,0 km/h (0 Bft)
02.02.2025 09:59 21,9 °C -1,3 °C 50 % 93 % 1027,9 hPa 0,0 l/m² 0,0 km/h (0 Bft) O-SO 107 ° 2 min 102 W/m² -2,3 °C -1,3 °C 0,0 km/h (0 Bft)
02.02.2025 10:00 21,9 °C -1,3 °C 50 % 93 % 1027,8 hPa 0,0 l/m² 0,0 km/h (0 Bft) O-SO 107 ° 1 min 109 W/m² -2,3 °C -1,3 °C 0,0 km/h (0 Bft)
02.02.2025 10:02 21,9 °C -1,2 °C 50 % 93 % 1027,9 hPa 0,0 l/m² 0,0 km/h (0 Bft) O-SO 107 ° 2 min 127 W/m² -2,2 °C -1,2 °C 0,0 km/h (0 Bft)
02.02.2025 10:03 21,9 °C -1,2 °C 50 % 93 % 1028,0 hPa 0,0 l/m² 0,0 km/h (0 Bft) O-SO 107 ° 1 min 132 W/m² -2,2 °C -1,2 °C 0,0 km/h (0 Bft)
02.02.2025 10:05 21,9 °C -1,1 °C 50 % 93 % 1027,9 hPa 0,0 l/m² 0,0 km/h (0 Bft) O-SO 107 ° 2 min 121 W/m² -2,1 °C -1,1 °C 0,0 km/h (0 Bft)
02.02.2025 10:07 21,9 °C -1,1 °C 50 % 93 % 1027,9 hPa 0,0 l/m² 0,0 km/h (0 Bft) O-SO 107 ° 2 min 105 W/m² -2,1 °C -1,1 °C 0,0 km/h (0 Bft)
02.02.2025 10:09 21,9 °C -1,1 °C 49 % 93 % 1027,9 hPa 0,0 l/m² 0,0 km/h (0 Bft) O-SO 107 ° 2 min 120 W/m² -2,1 °C -1,1 °C 0,0 km/h (0 Bft)
02.02.2025 10:10 21,9 °C -1,0 °C 50 % 93 % 1027,9 hPa 0,0 l/m² 0,0 km/h (0 Bft) O-SO 107 ° 1 min 125 W/m² -2,0 °C -1,0 °C 0,0 km/h (0 Bft)
02.02.2025 10:12 21,9 °C -1,0 °C 49 % 93 % 1027,9 hPa 0,0 l/m² 0,0 km/h (0 Bft) O-SO 107 ° 2 min 125 W/m² -2,0 °C -1,0 °C 0,0 km/h (0 Bft)
02.02.2025 10:13 21,9 °C -1,0 °C 49 % 93 % 1028,0 hPa 0,0 l/m² 0,0 km/h (0 Bft) O-SO 107 ° 1 min 104 W/m² -2,0 °C -1,0 °C 0,0 km/h (0 Bft)
02.02.2025 10:15 21,9 °C -0,9 °C 48 % 93 % 1027,9 hPa 0,0 l/m² 0,0 km/h (0 Bft) O-SO 107 ° 2 min 90 W/m² -1,9 °C -0,9 °C 0,0 km/h (0 Bft)
02.02.2025 10:17 21,9 °C -0,9 °C 48 % 93 % 1027,8 hPa 0,0 l/m² 0,0 km/h (0 Bft) O-SO 107 ° 2 min 84 W/m² -1,9 °C -0,9 °C 0,0 km/h (0 Bft)
02.02.2025 10:19 21,9 °C -0,9 °C 48 % 93 % 1027,8 hPa 0,0 l/m² 0,0 km/h (0 Bft) O-SO 107 ° 2 min 76 W/m² -1,9 °C -0,9 °C 0,0 km/h (0 Bft)
02.02.2025 10:20 21,8 °C -1,0 °C 48 % 93 % 1027,8 hPa 0,0 l/m² 0,0 km/h (0 Bft) O-SO 107 ° 1 min 77 W/m² -2,0 °C -1,0 °C 0,0 km/h (0 Bft)
02.02.2025 10:22 21,9 °C -1,0 °C 48 % 93 % 1027,8 hPa 0,0 l/m² 0,0 km/h (0 Bft) O-SO 107 ° 2 min 84 W/m² -2,0 °C -1,0 °C 0,0 km/h (0 Bft)
02.02.2025 10:23 21,8 °C -1,0 °C 48 % 93 % 1027,7 hPa 0,0 l/m² 0,0 km/h (0 Bft) O-SO 107 ° 1 min 90 W/m² -2,0 °C -1,0 °C 0,0 km/h (0 Bft)
02.02.2025 10:25 21,9 °C -1,1 °C 48 % 93 % 1027,9 hPa 0,0 l/m² 0,0 km/h (0 Bft) O-SO 107 ° 2 min 113 W/m² -2,1 °C -1,1 °C 0,0 km/h (0 Bft)
02.02.2025 10:27 21,9 °C -0,9 °C 48 % 93 % 1027,9 hPa 0,0 l/m² 0,0 km/h (0 Bft) O-SO 107 ° 2 min 246 W/m² -1,9 °C -0,9 °C 0,0 km/h (0 Bft)
02.02.2025 10:29 21,9 °C -0,7 °C 48 % 93 % 1027,9 hPa 0,0 l/m² 0,0 km/h (0 Bft) O-SO 107 ° 2 min 299 W/m² -1,7 °C -0,7 °C 1,6 km/h (1 Bft)
02.02.2025 10:30 21,9 °C -0,7 °C 48 % 93 % 1027,8 hPa 0,0 l/m² 0,0 km/h (0 Bft) O-SO 107 ° 1 min 91 W/m² -1,7 °C -0,7 °C 0,0 km/h (0 Bft)
02.02.2025 10:32 21,9 °C -0,7 °C 48 % 93 % 1027,7 hPa 0,0 l/m² 0,0 km/h (0 Bft) O-SO 107 ° 2 min 90 W/m² -1,7 °C -0,7 °C 0,0 km/h (0 Bft)
02.02.2025 10:33 21,9 °C -0,7 °C 48 % 93 % 1027,7 hPa 0,0 l/m² 0,0 km/h (0 Bft) O-SO 107 ° 1 min 109 W/m² -1,7 °C -0,7 °C 0,0 km/h (0 Bft)
02.02.2025 10:35 22,0 °C -0,7 °C 48 % 93 % 1027,6 hPa 0,0 l/m² 0,0 km/h (0 Bft) O-SO 107 ° 2 min 251 W/m² -1,7 °C -0,7 °C 0,0 km/h (0 Bft)
02.02.2025 10:37 22,0 °C -0,6 °C 48 % 93 % 1027,7 hPa 0,0 l/m² 0,0 km/h (0 Bft) O-SO 107 ° 2 min 297 W/m² -1,6 °C -0,6 °C 0,0 km/h (0 Bft)
02.02.2025 10:39 22,0 °C -0,4 °C 48 % 93 % 1027,6 hPa 0,0 l/m² 0,1 km/h (0 Bft) O-SO 107 ° 2 min 302 W/m² -1,4 °C -0,4 °C 1,6 km/h (1 Bft)
02.02.2025 10:40 22,1 °C -0,4 °C 48 % 93 % 1027,5 hPa 0,0 l/m² 0,1 km/h (0 Bft) O-SO 107 ° 1 min 301 W/m² -1,4 °C -0,4 °C 1,6 km/h (1 Bft)
02.02.2025 10:42 22,1 °C -0,3 °C 48 % 93 % 1027,6 hPa 0,0 l/m² 0,0 km/h (0 Bft) O-SO 107 ° 2 min 276 W/m² -1,3 °C -0,3 °C 0,0 km/h (0 Bft)
02.02.2025 10:43 22,1 °C -0,3 °C 48 % 93 % 1027,7 hPa 0,0 l/m² 0,1 km/h (0 Bft) O-SO 107 ° 1 min 308 W/m² -1,3 °C -0,3 °C 1,6 km/h (1 Bft)
02.02.2025 10:45 22,2 °C -0,2 °C 47 % 93 % 1027,6 hPa 0,0 l/m² 0,1 km/h (0 Bft) O-SO 107 ° 2 min 315 W/m² -1,2 °C -0,2 °C 1,6 km/h (1 Bft)
02.02.2025 10:47 22,3 °C 0,0 °C 47 % 93 % 1027,7 hPa 0,0 l/m² 0,0 km/h (0 Bft) O-SO 107 ° 2 min 301 W/m² -1,0 °C 0,0 °C 0,0 km/h (0 Bft)
02.02.2025 10:49 22,3 °C 0,0 °C 47 % 93 % 1027,7 hPa 0,0 l/m² 0,0 km/h (0 Bft) O-SO 107 ° 2 min 323 W/m² -1,0 °C 0,0 °C 0,0 km/h (0 Bft)
02.02.2025 10:50 22,3 °C -0,1 °C 47 % 92 % 1027,7 hPa 0,0 l/m² 0,0 km/h (0 Bft) O-SO 107 ° 1 min 316 W/m² -1,2 °C -0,1 °C 0,0 km/h (0 Bft)
02.02.2025 10:51 22,3 °C 0,0 °C 47 % 92 % 1027,8 hPa 0,0 l/m² 0,0 km/h (0 Bft) O-SO 107 ° 1 min 329 W/m² -1,1 °C 0,0 °C 0,0 km/h (0 Bft)
02.02.2025 10:52 22,3 °C 0,1 °C 47 % 93 % 1027,8 hPa 0,0 l/m² 0,0 km/h (0 Bft) O-SO 107 ° 1 min 341 W/m² -0,9 °C 0,1 °C 0,0 km/h (0 Bft)
02.02.2025 10:54 22,4 °C 0,3 °C 47 % 92 % 1027,9 hPa 0,0 l/m² 0,0 km/h (0 Bft) O-SO 107 ° 2 min 353 W/m² -0,8 °C 0,3 °C 0,0 km/h (0 Bft)
02.02.2025 10:55 22,4 °C 0,4 °C 47 % 93 % 1027,9 hPa 0,0 l/m² 0,0 km/h (0 Bft) O-SO 112 ° 1 min 353 W/m² -0,6 °C 0,4 °C 1,6 km/h (1 Bft)
02.02.2025 10:56 22,4 °C 0,5 °C 47 % 93 % 1027,8 hPa 0,0 l/m² 0,0 km/h (0 Bft) O-SO 112 ° 1 min 359 W/m² -0,5 °C 0,5 °C 1,6 km/h (1 Bft)
02.02.2025 10:57 22,4 °C 0,5 °C 47 % 92 % 1027,8 hPa 0,0 l/m² 0,0 km/h (0 Bft) N 0 ° 1 min 362 W/m² -0,6 °C 0,5 °C 0,0 km/h (0 Bft)
02.02.2025 10:58 22,5 °C 0,6 °C 47 % 92 % 1027,8 hPa 0,0 l/m² 0,0 km/h (0 Bft) N 0 ° 1 min 362 W/m² -0,5 °C 0,6 °C 0,0 km/h (0 Bft)
02.02.2025 10:59 22,5 °C 0,7 °C 47 % 92 % 1027,8 hPa 0,0 l/m² 0,0 km/h (0 Bft) O-SO 112 ° 1 min 360 W/m² -0,4 °C 0,7 °C 1,6 km/h (1 Bft)
02.02.2025 11:00 22,5 °C 0,7 °C 47 % 92 % 1027,8 hPa 0,0 l/m² 0,0 km/h (0 Bft) N 0 ° 1 min 360 W/m² -0,4 °C 0,7 °C 0,0 km/h (0 Bft)
02.02.2025 11:01 22,6 °C 0,7 °C 47 % 92 % 1027,8 hPa 0,0 l/m² 0,0 km/h (0 Bft) N 0 ° 1 min 360 W/m² -0,4 °C 0,7 °C 0,0 km/h (0 Bft)
02.02.2025 11:02 22,6 °C 0,8 °C 47 % 92 % 1027,8 hPa 0,0 l/m² 0,0 km/h (0 Bft) N 0 ° 1 min 330 W/m² -0,3 °C 0,8 °C 0,0 km/h (0 Bft)
02.02.2025 11:03 22,6 °C 0,8 °C 47 % 92 % 1027,7 hPa 0,0 l/m² 0,0 km/h (0 Bft) N 0 ° 1 min 352 W/m² -0,3 °C 0,8 °C 0,0 km/h (0 Bft)
02.02.2025 11:04 22,6 °C 0,9 °C 47 % 92 % 1027,7 hPa 0,0 l/m² 0,0 km/h (0 Bft) N 0 ° 1 min 339 W/m² -0,2 °C 0,9 °C 0,0 km/h (0 Bft)
02.02.2025 11:05 22,6 °C 1,0 °C 47 % 92 % 1027,7 hPa 0,0 l/m² 0,0 km/h (0 Bft) N 0 ° 1 min 320 W/m² -0,2 °C 1,0 °C 0,0 km/h (0 Bft)
02.02.2025 11:06 22,7 °C 0,9 °C 47 % 91 % 1027,7 hPa 0,0 l/m² 0,0 km/h (0 Bft) O-SO 112 ° 1 min 323 W/m² -0,4 °C 0,9 °C 1,6 km/h (1 Bft)
02.02.2025 11:10 22,7 °C 1,2 °C 47 % 91 % 1027,5 hPa 0,0 l/m² 0,0 km/h (0 Bft) O-SO 107 ° 4 min 323 W/m² -0,1 °C 1,2 °C 0,0 km/h (0 Bft)
02.02.2025 11:12 22,7 °C 1,4 °C 47 % 91 % 1027,4 hPa 0,0 l/m² 0,2 km/h (0 Bft) O-SO 107 ° 2 min 309 W/m² 0,1 °C 1,4 °C 1,6 km/h (1 Bft)
02.02.2025 11:13 22,7 °C 1,4 °C 47 % 90 % 1027,4 hPa 0,0 l/m² 0,0 km/h (0 Bft) O-SO 107 ° 1 min 327 W/m² -0,1 °C 1,4 °C 0,0 km/h (0 Bft)
02.02.2025 11:15 22,7 °C 1,5 °C 47 % 90 % 1027,4 hPa 0,0 l/m² 0,0 km/h (0 Bft) O-SO 107 ° 2 min 320 W/m² 0,0 °C 1,5 °C 0,0 km/h (0 Bft)
02.02.2025 11:17 22,8 °C 1,4 °C 47 % 89 % 1027,3 hPa 0,0 l/m² 0,0 km/h (0 Bft) O-SO 107 ° 2 min 348 W/m² -0,2 °C 1,4 °C 0,0 km/h (0 Bft)
02.02.2025 11:19 22,8 °C 1,6 °C 47 % 89 % 1027,3 hPa 0,0 l/m² 0,0 km/h (0 Bft) O-SO 107 ° 2 min 359 W/m² -0,0 °C 1,6 °C 0,0 km/h (0 Bft)
02.02.2025 11:20 22,8 °C 1,8 °C 46 % 90 % 1027,3 hPa 0,0 l/m² 0,1 km/h (0 Bft) O-SO 107 ° 1 min 359 W/m² 0,3 °C 1,8 °C 1,6 km/h (1 Bft)
02.02.2025 11:22 22,8 °C 1,7 °C 46 % 88 % 1027,2 hPa 0,0 l/m² 0,5 km/h (0 Bft) O-SO 107 ° 2 min 350 W/m² -0,1 °C 1,7 °C 3,2 km/h (1 Bft)
02.02.2025 11:23 22,8 °C 1,7 °C 46 % 88 % 1027,3 hPa 0,0 l/m² 0,3 km/h (0 Bft) O-SO 107 ° 1 min 297 W/m² -0,1 °C 1,7 °C 1,6 km/h (1 Bft)
02.02.2025 11:25 22,9 °C 1,7 °C 46 % 88 % 1027,3 hPa 0,0 l/m² 0,0 km/h (0 Bft) O-SO 107 ° 2 min 366 W/m² -0,1 °C 1,7 °C 0,0 km/h (0 Bft)
02.02.2025 11:27 22,9 °C 2,0 °C 46 % 89 % 1027,3 hPa 0,0 l/m² 0,2 km/h (0 Bft) O-SO 107 ° 2 min 364 W/m² 0,4 °C 2,0 °C 1,6 km/h (1 Bft)
02.02.2025 11:29 22,9 °C 2,1 °C 46 % 88 % 1027,2 hPa 0,0 l/m² 0,0 km/h (0 Bft) O-SO 107 ° 2 min 366 W/m² 0,3 °C 2,1 °C 0,0 km/h (0 Bft)
02.02.2025 11:30 22,9 °C 2,2 °C 46 % 88 % 1027,3 hPa 0,0 l/m² 1,4 km/h (1 Bft) O-SO 107 ° 1 min 366 W/m² 0,4 °C 2,2 °C 3,2 km/h (1 Bft)
02.02.2025 11:32 22,9 °C 2,3 °C 46 % 88 % 1027,3 hPa 0,0 l/m² 0,2 km/h (0 Bft) O-SO 107 ° 2 min 367 W/m² 0,5 °C 2,3 °C 3,2 km/h (1 Bft)
02.02.2025 11:33 22,9 °C 2,4 °C 46 % 88 % 1027,4 hPa 0,0 l/m² 1,5 km/h (1 Bft) O-SO 107 ° 1 min 366 W/m² 0,6 °C 2,4 °C 3,2 km/h (1 Bft)
02.02.2025 11:35 22,9 °C 2,5 °C 46 % 87 % 1027,4 hPa 0,0 l/m² 0,3 km/h (0 Bft) O-SO 107 ° 2 min 371 W/m² 0,6 °C 2,5 °C 1,6 km/h (1 Bft)
02.02.2025 11:37 22,9 °C 2,7 °C 46 % 88 % 1027,4 hPa 0,0 l/m² 0,1 km/h (0 Bft) O-SO 107 ° 2 min 371 W/m² 0,9 °C 2,7 °C 1,6 km/h (1 Bft)
02.02.2025 11:39 22,9 °C 2,8 °C 46 % 86 % 1027,4 hPa 0,0 l/m² 0,0 km/h (0 Bft) O-SO 107 ° 2 min 373 W/m² 0,7 °C 2,8 °C 0,0 km/h (0 Bft)
02.02.2025 11:41 22,9 °C 2,9 °C 46 % 87 % 1027,4 hPa 0,0 l/m² 0,0 km/h (0 Bft) O-SO 107 ° 2 min 376 W/m² 1,0 °C 2,9 °C 0,0 km/h (0 Bft)
02.02.2025 11:42 23,0 °C 2,9 °C 46 % 86 % 1027,3 hPa 0,0 l/m² 0,1 km/h (0 Bft) O-SO 107 ° 1 min 374 W/m² 0,8 °C 2,9 °C 1,6 km/h (1 Bft)
02.02.2025 11:43 23,0 °C 3,1 °C 46 % 86 % 1027,3 hPa 0,0 l/m² 0,0 km/h (0 Bft) O-SO 107 ° 1 min 374 W/m² 1,0 °C 3,1 °C 0,0 km/h (0 Bft)
02.02.2025 11:45 23,0 °C 3,2 °C 46 % 85 % 1027,2 hPa 0,0 l/m² 1,7 km/h (1 Bft) O-SO 107 ° 2 min 376 W/m² 0,9 °C 3,2 °C 4,8 km/h (1 Bft)
02.02.2025 11:47 23,0 °C 3,1 °C 46 % 84 % 1027,2 hPa 0,0 l/m² 1,6 km/h (1 Bft) O-SO 107 ° 2 min 371 W/m² 0,7 °C 3,1 °C 4,8 km/h (1 Bft)
02.02.2025 11:49 23,1 °C 3,2 °C 46 % 83 % 1027,2 hPa 0,0 l/m² 0,5 km/h (0 Bft) O-SO 107 ° 2 min 369 W/m² 0,6 °C 3,2 °C 3,2 km/h (1 Bft)
02.02.2025 11:51 23,1 °C 3,3 °C 46 % 83 % 1027,2 hPa 0,0 l/m² 2,0 km/h (1 Bft) SW 236 ° 2 min 374 W/m² 0,7 °C 3,3 °C 4,8 km/h (1 Bft)
02.02.2025 11:52 23,1 °C 3,4 °C 46 % 83 % 1027,2 hPa 0,0 l/m² 0,9 km/h (0 Bft) SW 236 ° 1 min 376 W/m² 0,8 °C 3,4 °C 3,2 km/h (1 Bft)
02.02.2025 11:53 23,1 °C 3,4 °C 46 % 83 % 1027,2 hPa 0,0 l/m² 0,3 km/h (0 Bft) SW 236 ° 1 min 378 W/m² 0,8 °C 3,4 °C 1,6 km/h (1 Bft)
02.02.2025 11:55 23,1 °C 3,5 °C 46 % 82 % 1027,2 hPa 0,0 l/m² 2,6 km/h (1 Bft) SW 236 ° 2 min 380 W/m² 0,7 °C 3,5 °C 4,8 km/h (1 Bft)
02.02.2025 11:57 23,1 °C 3,6 °C 46 % 81 % 1027,1 hPa 0,0 l/m² 2,9 km/h (1 Bft) W-SW 248 ° 2 min 380 W/m² 0,7 °C 3,6 °C 4,8 km/h (1 Bft)
02.02.2025 11:59 23,1 °C 3,8 °C 46 % 79 % 1027,2 hPa 0,0 l/m² 0,6 km/h (0 Bft) W-SW 248 ° 2 min 383 W/m² 0,5 °C 3,8 °C 3,2 km/h (1 Bft)
02.02.2025 12:01 23,1 °C 3,9 °C 46 % 78 % 1027,1 hPa 0,0 l/m² 2,5 km/h (1 Bft) W 273 ° 2 min 343 W/m² 0,4 °C 3,9 °C 4,8 km/h (1 Bft)
02.02.2025 12:02 23,1 °C 3,9 °C 46 % 78 % 1027,1 hPa 0,0 l/m² 0,4 km/h (0 Bft) W 273 ° 1 min 353 W/m² 0,4 °C 3,9 °C 1,6 km/h (1 Bft)
02.02.2025 12:03 23,1 °C 3,9 °C 46 % 78 % 1027,1 hPa 0,0 l/m² 0,2 km/h (0 Bft) W 273 ° 1 min 346 W/m² 0,4 °C 3,9 °C 1,6 km/h (1 Bft)
02.02.2025 12:05 23,1 °C 4,1 °C 46 % 77 % 1027,1 hPa 0,0 l/m² 0,2 km/h (0 Bft) W 273 ° 2 min 376 W/m² 0,4 °C 4,1 °C 1,6 km/h (1 Bft)
02.02.2025 12:07 23,2 °C 4,2 °C 46 % 75 % 1027,0 hPa 0,0 l/m² 0,1 km/h (0 Bft) W 273 ° 2 min 374 W/m² 0,2 °C 4,2 °C 1,6 km/h (1 Bft)
02.02.2025 12:09 23,2 °C 4,2 °C 46 % 76 % 1026,9 hPa 0,0 l/m² 0,9 km/h (0 Bft) S-SW 213 ° 2 min 383 W/m² 0,4 °C 4,2 °C 6,4 km/h (2 Bft)
02.02.2025 12:11 23,2 °C 4,2 °C 46 % 70 % 1027,0 hPa 0,0 l/m² 4,8 km/h (1 Bft) S-SW 198 ° 2 min 390 W/m² -0,8 °C 4,2 °C 8,0 km/h (2 Bft)
02.02.2025 12:12 23,2 °C 4,3 °C 46 % 71 % 1027,0 hPa 0,0 l/m² 5,8 km/h (2 Bft) SW 217 ° 1 min 392 W/m² -0,5 °C 4,3 °C 8,0 km/h (2 Bft)
02.02.2025 12:13 23,2 °C 4,2 °C 46 % 68 % 1027,0 hPa 0,0 l/m² 4,2 km/h (1 Bft) SW 220 ° 1 min 394 W/m² -1,2 °C 4,2 °C 6,4 km/h (2 Bft)
02.02.2025 12:15 23,2 °C 4,1 °C 46 % 67 % 1026,9 hPa 0,0 l/m² 3,5 km/h (1 Bft) SW 221 ° 2 min 388 W/m² -1,5 °C 4,1 °C 6,4 km/h (2 Bft)
02.02.2025 12:17 23,2 °C 4,2 °C 46 % 68 % 1026,9 hPa 0,0 l/m² 3,8 km/h (1 Bft) SW 225 ° 2 min 390 W/m² -1,2 °C 4,2 °C 8,0 km/h (2 Bft)
02.02.2025 12:19 23,2 °C 4,3 °C 46 % 69 % 1027,0 hPa 0,0 l/m² 2,6 km/h (1 Bft) SW 230 ° 2 min 390 W/m² -0,9 °C 4,3 °C 4,8 km/h (1 Bft)
02.02.2025 12:21 23,2 °C 4,4 °C 46 % 69 % 1027,0 hPa 0,0 l/m² 3,3 km/h (1 Bft) S-SW 207 ° 2 min 392 W/m² -0,8 °C 4,4 °C 4,8 km/h (1 Bft)
02.02.2025 12:22 23,2 °C 4,4 °C 46 % 69 % 1027,0 hPa 0,0 l/m² 3,7 km/h (1 Bft) S-SW 202 ° 1 min 394 W/m² -0,8 °C 4,4 °C 6,4 km/h (2 Bft)
02.02.2025 12:23 23,2 °C 4,4 °C 46 % 71 % 1027,0 hPa 0,0 l/m² 3,0 km/h (1 Bft) S-SW 202 ° 1 min 396 W/m² -0,4 °C 4,4 °C 4,8 km/h (1 Bft)
02.02.2025 12:25 23,2 °C 4,3 °C 46 % 68 % 1026,9 hPa 0,0 l/m² 1,6 km/h (1 Bft) S-SW 202 ° 2 min 371 W/m² -1,1 °C 4,3 °C 3,2 km/h (1 Bft)
02.02.2025 12:27 23,2 °C 4,4 °C 45 % 70 % 1026,9 hPa 0,0 l/m² 0,9 km/h (0 Bft) S-SW 199 ° 2 min 390 W/m² -0,6 °C 4,4 °C 3,2 km/h (1 Bft)
02.02.2025 12:29 23,2 °C 4,6 °C 45 % 71 % 1026,9 hPa 0,0 l/m² 5,6 km/h (2 Bft) SO 125 ° 2 min 352 W/m² -0,2 °C 4,6 °C 12,9 km/h (3 Bft)
02.02.2025 12:31 23,3 °C 4,5 °C 45 % 67 % 1026,8 hPa 0,0 l/m² 9,8 km/h (2 Bft) O-SO 107 ° 2 min 397 W/m² -1,1 °C 1,7 °C 12,9 km/h (3 Bft)
02.02.2025 12:32 23,3 °C 4,6 °C 45 % 70 % 1026,8 hPa 0,0 l/m² 7,0 km/h (2 Bft) O 82 ° 1 min 394 W/m² -0,4 °C 4,1 °C 11,3 km/h (2 Bft)
02.02.2025 12:33 23,3 °C 4,7 °C 45 % 69 % 1026,8 hPa 0,0 l/m² 5,0 km/h (1 Bft) O 91 ° 1 min 394 W/m² -0,5 °C 4,7 °C 11,3 km/h (2 Bft)
02.02.2025 12:35 23,3 °C 4,8 °C 45 % 68 % 1026,9 hPa 0,0 l/m² 1,4 km/h (1 Bft) O-SO 107 ° 2 min 394 W/m² -0,6 °C 4,8 °C 4,8 km/h (1 Bft)
02.02.2025 12:37 23,3 °C 4,7 °C 45 % 68 % 1026,9 hPa 0,0 l/m² 7,2 km/h (2 Bft) SO 144 ° 2 min 399 W/m² -0,7 °C 4,0 °C 11,3 km/h (2 Bft)
02.02.2025 12:39 23,3 °C 4,6 °C 46 % 67 % 1026,8 hPa 0,0 l/m² 8,7 km/h (2 Bft) S-SO 152 ° 2 min 334 W/m² -1,0 °C 2,6 °C 12,9 km/h (3 Bft)
02.02.2025 12:41 23,3 °C 4,3 °C 46 % 68 % 1026,8 hPa 0,0 l/m² 6,5 km/h (2 Bft) S-SO 154 ° 2 min 246 W/m² -1,1 °C 4,2 °C 11,3 km/h (2 Bft)
02.02.2025 12:42 23,3 °C 4,2 °C 46 % 66 % 1026,8 hPa 0,0 l/m² 4,1 km/h (1 Bft) S-SO 155 ° 1 min 91 W/m² -1,6 °C 4,2 °C 4,8 km/h (1 Bft)
02.02.2025 12:43 23,3 °C 4,1 °C 46 % 67 % 1026,8 hPa 0,0 l/m² 1,4 km/h (1 Bft) S-SO 155 ° 1 min 91 W/m² -1,5 °C 4,1 °C 3,2 km/h (1 Bft)
02.02.2025 12:45 23,3 °C 4,2 °C 46 % 68 % 1026,8 hPa 0,0 l/m² 5,8 km/h (2 Bft) SO 126 ° 2 min 418 W/m² -1,2 °C 4,2 °C 11,3 km/h (2 Bft)
02.02.2025 12:48 23,3 °C 4,6 °C 46 % 63 % 1026,9 hPa 0,0 l/m² 2,4 km/h (1 Bft) O-SO 113 ° 3 min 424 W/m² -1,8 °C 4,6 °C 6,4 km/h (2 Bft)
02.02.2025 12:50 23,3 °C 4,9 °C 46 % 67 % 1026,8 hPa 0,0 l/m² 1,8 km/h (1 Bft) O-SO 113 ° 2 min 364 W/m² -0,7 °C 4,9 °C 4,8 km/h (1 Bft)
02.02.2025 12:52 23,3 °C 4,9 °C 46 % 64 % 1026,8 hPa 0,0 l/m² 6,6 km/h (2 Bft) O-SO 105 ° 2 min 452 W/m² -1,3 °C 4,7 °C 12,9 km/h (3 Bft)
02.02.2025 12:53 23,3 °C 4,9 °C 46 % 64 % 1026,8 hPa 0,0 l/m² 5,9 km/h (2 Bft) O-SO 118 ° 1 min 452 W/m² -1,3 °C 4,9 °C 9,7 km/h (2 Bft)
02.02.2025 12:54 23,3 °C 4,9 °C 46 % 65 % 1026,8 hPa 0,0 l/m² 5,8 km/h (2 Bft) O 92 ° 1 min 464 W/m² -1,1 °C 4,9 °C 11,3 km/h (2 Bft)
02.02.2025 12:56 23,3 °C 5,0 °C 46 % 66 % 1026,7 hPa 0,0 l/m² 8,0 km/h (2 Bft) O 90 ° 2 min 469 W/m² -0,8 °C 3,6 °C 12,9 km/h (3 Bft)
02.02.2025 12:58 23,3 °C 5,1 °C 46 % 67 % 1026,8 hPa 0,0 l/m² 2,8 km/h (1 Bft) O 90 ° 2 min 480 W/m² -0,5 °C 5,1 °C 6,4 km/h (2 Bft)
02.02.2025 13:00 23,3 °C 5,4 °C 46 % 66 % 1026,8 hPa 0,0 l/m² 2,9 km/h (1 Bft) O-NO 78 ° 2 min 483 W/m² -0,4 °C 5,4 °C 8,0 km/h (2 Bft)
02.02.2025 13:02 23,2 °C 5,6 °C 46 % 64 % 1026,8 hPa 0,0 l/m² 3,6 km/h (1 Bft) O 79 ° 2 min 454 W/m² -0,7 °C 5,6 °C 11,3 km/h (2 Bft)
02.02.2025 13:03 23,2 °C 5,4 °C 46 % 64 % 1026,8 hPa 0,0 l/m² 5,0 km/h (1 Bft) O 79 ° 1 min 253 W/m² -0,9 °C 5,4 °C 8,0 km/h (2 Bft)
02.02.2025 13:04 23,2 °C 5,3 °C 46 % 62 % 1026,8 hPa 0,0 l/m² 4,0 km/h (1 Bft) O-NO 77 ° 1 min 281 W/m² -1,4 °C 5,3 °C 6,4 km/h (2 Bft)
02.02.2025 13:05 23,3 °C 5,3 °C 46 % 63 % 1026,7 hPa 0,0 l/m² 14,6 km/h (3 Bft) O-SO 121 ° 1 min 287 W/m² -1,2 °C -0,4 °C 22,5 km/h (4 Bft)
02.02.2025 13:07 23,2 °C 5,1 °C 46 % 64 % 1026,7 hPa 0,0 l/m² 11,0 km/h (2 Bft) SO 134 ° 2 min 243 W/m² -1,1 °C 1,5 °C 17,7 km/h (3 Bft)
02.02.2025 13:09 23,2 °C 4,7 °C 46 % 65 % 1026,8 hPa 0,0 l/m² 10,1 km/h (2 Bft) O-SO 103 ° 2 min 148 W/m² -1,3 °C 1,7 °C 12,9 km/h (3 Bft)
02.02.2025 13:11 23,2 °C 4,4 °C 47 % 66 % 1026,8 hPa 0,0 l/m² 8,8 km/h (2 Bft) O-SO 111 ° 2 min 141 W/m² -1,4 °C 2,3 °C 12,9 km/h (3 Bft)
02.02.2025 13:12 23,2 °C 4,3 °C 47 % 67 % 1026,8 hPa 0,0 l/m² 8,8 km/h (2 Bft) O 90 ° 1 min 134 W/m² -1,3 °C 2,2 °C 12,9 km/h (3 Bft)
02.02.2025 13:13 23,1 °C 4,2 °C 47 % 66 % 1026,8 hPa 0,0 l/m² 14,6 km/h (3 Bft) O-SO 104 ° 1 min 128 W/m² -1,6 °C -1,7 °C 17,7 km/h (3 Bft)
02.02.2025 13:15 23,1 °C 4,1 °C 47 % 68 % 1026,8 hPa 0,0 l/m² 11,6 km/h (2 Bft) SO 134 ° 2 min 225 W/m² -1,3 °C -0,0 °C 16,1 km/h (3 Bft)
02.02.2025 13:17 23,1 °C 4,2 °C 47 % 66 % 1026,7 hPa 0,0 l/m² 14,0 km/h (3 Bft) O 100 ° 2 min 371 W/m² -1,6 °C -1,4 °C 17,7 km/h (3 Bft)
02.02.2025 13:19 23,1 °C 4,3 °C 47 % 67 % 1026,7 hPa 0,0 l/m² 13,0 km/h (3 Bft) O-SO 102 ° 2 min 371 W/m² -1,3 °C -0,7 °C 16,1 km/h (3 Bft)
02.02.2025 13:21 23,1 °C 4,3 °C 47 % 67 % 1026,6 hPa 0,0 l/m² 10,4 km/h (2 Bft) O-SO 123 ° 2 min 396 W/m² -1,3 °C 1,0 °C 12,9 km/h (3 Bft)
02.02.2025 13:22 23,1 °C 4,3 °C 47 % 65 % 1026,6 hPa 0,0 l/m² 7,8 km/h (2 Bft) O-SO 109 ° 1 min 408 W/m² -1,7 °C 3,0 °C 11,3 km/h (2 Bft)
02.02.2025 13:23 23,0 °C 4,4 °C 47 % 66 % 1026,6 hPa 0,0 l/m² 8,3 km/h (2 Bft) O-SO 113 ° 1 min 396 W/m² -1,4 °C 2,7 °C 11,3 km/h (2 Bft)
02.02.2025 13:25 23,0 °C 4,6 °C 47 % 66 % 1026,6 hPa 0,0 l/m² 8,7 km/h (2 Bft) O-SO 115 ° 2 min 366 W/m² -1,2 °C 2,6 °C 12,9 km/h (3 Bft)
02.02.2025 13:27 22,9 °C 4,7 °C 47 % 64 % 1026,6 hPa 0,0 l/m² 4,4 km/h (1 Bft) O-SO 106 ° 2 min 367 W/m² -1,5 °C 4,7 °C 6,4 km/h (2 Bft)
02.02.2025 13:29 23,0 °C 5,1 °C 47 % 66 % 1026,7 hPa 0,0 l/m² 3,6 km/h (1 Bft) O 100 ° 2 min 425 W/m² -0,7 °C 5,1 °C 6,4 km/h (2 Bft)
02.02.2025 13:31 22,9 °C 5,4 °C 47 % 65 % 1026,5 hPa 0,0 l/m² 3,9 km/h (1 Bft) O 95 ° 2 min 422 W/m² -0,6 °C 5,4 °C 6,4 km/h (2 Bft)
02.02.2025 13:32 22,9 °C 5,5 °C 47 % 63 % 1026,5 hPa 0,0 l/m² 8,3 km/h (2 Bft) O 90 ° 1 min 411 W/m² -1,0 °C 3,9 °C 11,3 km/h (2 Bft)
02.02.2025 13:33 22,9 °C 5,4 °C 47 % 64 % 1026,5 hPa 0,0 l/m² 5,1 km/h (1 Bft) O 90 ° 1 min 413 W/m² -0,9 °C 5,4 °C 9,7 km/h (2 Bft)
02.02.2025 13:35 22,9 °C 5,4 °C 47 % 65 % 1026,5 hPa 0,0 l/m² 3,7 km/h (1 Bft) O-NO 71 ° 2 min 404 W/m² -0,6 °C 5,4 °C 6,4 km/h (2 Bft)
02.02.2025 13:37 22,9 °C 5,8 °C 47 % 65 % 1026,6 hPa 0,0 l/m² 1,6 km/h (1 Bft) O-NO 71 ° 2 min 413 W/m² -0,3 °C 5,8 °C 4,8 km/h (1 Bft)
02.02.2025 13:39 22,9 °C 5,8 °C 47 % 61 % 1026,6 hPa 0,0 l/m² 4,4 km/h (1 Bft) O-NO 59 ° 2 min 425 W/m² -1,1 °C 5,8 °C 6,4 km/h (2 Bft)
02.02.2025 13:41 22,9 °C 5,4 °C 47 % 63 % 1026,7 hPa 0,0 l/m² 3,1 km/h (1 Bft) O-NO 77 ° 2 min 411 W/m² -1,1 °C 5,4 °C 6,4 km/h (2 Bft)
02.02.2025 13:42 22,9 °C 5,2 °C 47 % 61 % 1026,7 hPa 0,0 l/m² 3,4 km/h (1 Bft) O 81 ° 1 min 406 W/m² -1,7 °C 5,2 °C 4,8 km/h (1 Bft)
02.02.2025 13:43 22,9 °C 5,2 °C 47 % 64 % 1026,5 hPa 0,0 l/m² 8,8 km/h (2 Bft) S-SO 152 ° 1 min 397 W/m² -1,0 °C 3,2 °C 12,9 km/h (3 Bft)
02.02.2025 13:45 22,9 °C 4,9 °C 47 % 64 % 1026,5 hPa 0,0 l/m² 10,1 km/h (2 Bft) SO 137 ° 2 min 371 W/m² -1,3 °C 1,9 °C 14,5 km/h (3 Bft)
02.02.2025 13:47 22,8 °C 4,8 °C 47 % 68 % 1026,4 hPa 0,0 l/m² 6,6 km/h (2 Bft) S-SO 163 ° 2 min 357 W/m² -0,6 °C 4,6 °C 11,3 km/h (2 Bft)
02.02.2025 13:49 22,8 °C 4,8 °C 47 % 66 % 1026,4 hPa 0,0 l/m² 10,4 km/h (2 Bft) S 174 ° 2 min 350 W/m² -1,0 °C 1,6 °C 12,9 km/h (3 Bft)
02.02.2025 13:51 22,8 °C 4,7 °C 47 % 65 % 1026,5 hPa 0,0 l/m² 6,8 km/h (2 Bft) S 173 ° 2 min 301 W/m² -1,3 °C 4,4 °C 11,3 km/h (2 Bft)
02.02.2025 13:52 22,8 °C 4,7 °C 47 % 64 % 1026,5 hPa 0,0 l/m² 3,1 km/h (1 Bft) S 175 ° 1 min 269 W/m² -1,5 °C 4,7 °C 4,8 km/h (1 Bft)
02.02.2025 13:53 22,8 °C 4,7 °C 47 % 66 % 1026,4 hPa 0,0 l/m² 4,3 km/h (1 Bft) S 175 ° 1 min 325 W/m² -1,1 °C 4,7 °C 6,4 km/h (2 Bft)
02.02.2025 13:55 22,8 °C 4,8 °C 47 % 68 % 1026,3 hPa 0,0 l/m² 7,3 km/h (2 Bft) S 188 ° 2 min 330 W/m² -0,6 °C 4,0 °C 9,7 km/h (2 Bft)
02.02.2025 13:57 22,8 °C 4,9 °C 47 % 67 % 1026,3 hPa 0,0 l/m² 7,8 km/h (2 Bft) S 178 ° 2 min 343 W/m² -0,7 °C 3,7 °C 11,3 km/h (2 Bft)
02.02.2025 13:59 22,8 °C 4,9 °C 47 % 67 % 1026,4 hPa 0,0 l/m² 7,5 km/h (2 Bft) S-SO 163 ° 2 min 338 W/m² -0,7 °C 3,9 °C 11,3 km/h (2 Bft)
02.02.2025 14:01 22,8 °C 5,0 °C 47 % 67 % 1026,3 hPa 0,0 l/m² 6,1 km/h (2 Bft) S-SO 150 ° 2 min 339 W/m² -0,6 °C 5,0 °C 11,3 km/h (2 Bft)
02.02.2025 14:02 22,8 °C 5,0 °C 47 % 66 % 1026,3 hPa 0,0 l/m² 8,8 km/h (2 Bft) SO 134 ° 1 min 339 W/m² -0,8 °C 3,0 °C 12,9 km/h (3 Bft)
02.02.2025 14:03 22,7 °C 4,9 °C 47 % 66 % 1026,3 hPa 0,0 l/m² 9,7 km/h (2 Bft) SO 125 ° 1 min 338 W/m² -0,9 °C 2,2 °C 12,9 km/h (3 Bft)
02.02.2025 14:05 22,7 °C 4,9 °C 47 % 63 % 1026,3 hPa 0,0 l/m² 8,2 km/h (2 Bft) O-SO 116 ° 2 min 338 W/m² -1,5 °C 3,3 °C 12,9 km/h (3 Bft)
02.02.2025 14:07 22,7 °C 4,9 °C 47 % 63 % 1026,4 hPa 0,0 l/m² 10,0 km/h (2 Bft) O 101 ° 2 min 334 W/m² -1,5 °C 2,0 °C 12,9 km/h (3 Bft)
02.02.2025 14:09 22,7 °C 4,8 °C 47 % 62 % 1026,4 hPa 0,0 l/m² 8,2 km/h (2 Bft) O-SO 114 ° 2 min 338 W/m² -1,9 °C 3,2 °C 12,9 km/h (3 Bft)
02.02.2025 14:11 22,7 °C 4,8 °C 47 % 61 % 1026,4 hPa 0,0 l/m² 5,2 km/h (1 Bft) O-SO 123 ° 2 min 339 W/m² -2,1 °C 4,8 °C 9,7 km/h (2 Bft)
02.02.2025 14:12 22,7 °C 4,8 °C 47 % 61 % 1026,4 hPa 0,0 l/m² 4,5 km/h (1 Bft) SO 129 ° 1 min 341 W/m² -2,1 °C 4,8 °C 6,4 km/h (2 Bft)
02.02.2025 14:13 22,7 °C 4,8 °C 47 % 62 % 1026,3 hPa 0,0 l/m² 7,0 km/h (2 Bft) SO 132 ° 1 min 346 W/m² -1,9 °C 4,3 °C 8,0 km/h (2 Bft)
02.02.2025 14:15 22,7 °C 4,9 °C 47 % 67 % 1026,3 hPa 0,0 l/m² 8,4 km/h (2 Bft) S-SO 160 ° 2 min 350 W/m² -0,7 °C 3,2 °C 12,9 km/h (3 Bft)
02.02.2025 14:17 22,7 °C 4,9 °C 47 % 65 % 1026,2 hPa 0,0 l/m² 8,6 km/h (2 Bft) S-SO 153 ° 2 min 355 W/m² -1,1 °C 3,0 °C 12,9 km/h (3 Bft)
02.02.2025 14:19 22,7 °C 4,8 °C 47 % 65 % 1026,2 hPa 0,0 l/m² 10,4 km/h (2 Bft) S-SO 161 ° 2 min 371 W/m² -1,2 °C 1,6 °C 17,7 km/h (3 Bft)
02.02.2025 14:21 22,7 °C 4,8 °C 47 % 68 % 1026,1 hPa 0,0 l/m² 11,5 km/h (2 Bft) SO 143 ° 2 min 380 W/m² -0,6 °C 0,8 °C 16,1 km/h (3 Bft)
02.02.2025 14:22 22,7 °C 4,9 °C 47 % 69 % 1026,1 hPa 0,0 l/m² 13,3 km/h (3 Bft) S-SO 164 ° 1 min 383 W/m² -0,3 °C -0,1 °C 17,7 km/h (3 Bft)
02.02.2025 14:23 22,7 °C 4,9 °C 47 % 67 % 1026,1 hPa 0,0 l/m² 14,7 km/h (3 Bft) S-SO 157 ° 1 min 388 W/m² -0,7 °C -0,9 °C 17,7 km/h (3 Bft)
02.02.2025 14:25 22,7 °C 4,9 °C 47 % 69 % 1026,1 hPa 0,0 l/m² 12,6 km/h (3 Bft) S 169 ° 2 min 371 W/m² -0,3 °C 0,3 °C 17,7 km/h (3 Bft)
02.02.2025 14:27 22,7 °C 4,8 °C 47 % 66 % 1026,0 hPa 0,0 l/m² 10,8 km/h (2 Bft) S-SO 150 ° 2 min 276 W/m² -1,0 °C 1,3 °C 17,7 km/h (3 Bft)
02.02.2025 14:28 22,6 °C 4,8 °C 47 % 67 % 1026,0 hPa 0,0 l/m² 9,9 km/h (2 Bft) S-SO 157 ° 1 min 248 W/m² -0,8 °C 1,9 °C 14,5 km/h (3 Bft)
02.02.2025 14:29 22,6 °C 4,7 °C 47 % 67 % 1026,1 hPa 0,0 l/m² 10,3 km/h (2 Bft) S 170 ° 1 min 220 W/m² -0,9 °C 1,5 °C 12,9 km/h (3 Bft)
02.02.2025 14:30 22,6 °C 4,7 °C 47 % 67 % 1026,1 hPa 0,0 l/m² 8,0 km/h (2 Bft) S-SO 157 ° 1 min 220 W/m² -0,9 °C 3,3 °C 11,3 km/h (2 Bft)
02.02.2025 14:31 22,6 °C 4,7 °C 48 % 69 % 1026,1 hPa 0,0 l/m² 8,0 km/h (2 Bft) S-SO 157 ° 1 min 183 W/m² -0,5 °C 3,3 °C 11,3 km/h (2 Bft)
02.02.2025 14:36 22,6 °C 4,2 °C 48 % 67 % 1026,1 hPa 0,0 l/m² 7,0 km/h (2 Bft) SO 136 ° 5 min 171 W/m² -1,4 °C 3,7 °C 11,3 km/h (2 Bft)
02.02.2025 14:38 22,6 °C 4,2 °C 48 % 66 % 1026,1 hPa 0,0 l/m² 9,9 km/h (2 Bft) SO 130 ° 2 min 193 W/m² -1,6 °C 1,3 °C 16,1 km/h (3 Bft)
02.02.2025 14:39 22,6 °C 4,2 °C 48 % 67 % 1026,1 hPa 0,0 l/m² 10,1 km/h (2 Bft) SO 135 ° 1 min 190 W/m² -1,4 °C 1,1 °C 12,9 km/h (3 Bft)
02.02.2025 14:41 22,6 °C 4,2 °C 48 % 67 % 1026,2 hPa 0,0 l/m² 8,2 km/h (2 Bft) SO 140 ° 2 min 243 W/m² -1,4 °C 2,6 °C 11,3 km/h (2 Bft)
02.02.2025 14:43 22,6 °C 4,2 °C 48 % 66 % 1026,2 hPa 0,0 l/m² 4,2 km/h (1 Bft) SO 142 ° 2 min 297 W/m² -1,6 °C 4,2 °C 6,4 km/h (2 Bft)
02.02.2025 14:44 22,6 °C 4,2 °C 48 % 65 % 1026,2 hPa 0,0 l/m² 0,6 km/h (0 Bft) SO 142 ° 1 min 258 W/m² -1,8 °C 4,2 °C 1,6 km/h (1 Bft)
02.02.2025 14:46 22,6 °C 4,4 °C 48 % 68 % 1026,2 hPa 0,0 l/m² 4,0 km/h (1 Bft) SO 127 ° 2 min 239 W/m² -1,0 °C 4,4 °C 8,0 km/h (2 Bft)
02.02.2025 14:48 22,5 °C 4,4 °C 48 % 67 % 1026,3 hPa 0,0 l/m² 5,6 km/h (2 Bft) O-SO 117 ° 2 min 265 W/m² -1,2 °C 4,4 °C 11,3 km/h (2 Bft)
02.02.2025 14:50 22,6 °C 4,5 °C 48 % 65 % 1026,3 hPa 0,0 l/m² 3,8 km/h (1 Bft) O-SO 117 ° 2 min 274 W/m² -1,5 °C 4,5 °C 6,4 km/h (2 Bft)
02.02.2025 14:51 22,6 °C 4,5 °C 48 % 65 % 1026,2 hPa 0,0 l/m² 0,1 km/h (0 Bft) O-SO 117 ° 1 min 295 W/m² -1,5 °C 4,5 °C 1,6 km/h (1 Bft)
02.02.2025 14:52 22,6 °C 4,5 °C 48 % 65 % 1026,2 hPa 0,0 l/m² 0,6 km/h (0 Bft) O-SO 117 ° 1 min 253 W/m² -1,5 °C 4,5 °C 3,2 km/h (1 Bft)
02.02.2025 14:53 22,6 °C 4,5 °C 48 % 64 % 1026,3 hPa 0,0 l/m² 2,7 km/h (1 Bft) O-SO 119 ° 1 min 230 W/m² -1,7 °C 4,5 °C 3,2 km/h (1 Bft)
02.02.2025 14:54 22,6 °C 4,4 °C 48 % 64 % 1026,2 hPa 0,0 l/m² 1,5 km/h (1 Bft) O-SO 119 ° 1 min 237 W/m² -1,8 °C 4,4 °C 3,2 km/h (1 Bft)
02.02.2025 14:56 22,6 °C 4,6 °C 48 % 66 % 1026,3 hPa 0,0 l/m² 2,8 km/h (1 Bft) O-SO 118 ° 2 min 207 W/m² -1,2 °C 4,6 °C 4,8 km/h (1 Bft)
02.02.2025 14:58 22,5 °C 4,7 °C 48 % 64 % 1026,3 hPa 0,0 l/m² 2,4 km/h (1 Bft) O-SO 118 ° 2 min 183 W/m² -1,5 °C 4,7 °C 4,8 km/h (1 Bft)
02.02.2025 15:00 22,5 °C 4,8 °C 48 % 64 % 1026,1 hPa 0,0 l/m² 1,5 km/h (1 Bft) O-SO 118 ° 2 min 220 W/m² -1,4 °C 4,8 °C 4,8 km/h (1 Bft)
02.02.2025 15:01 22,5 °C 4,8 °C 48 % 63 % 1026,1 hPa 0,0 l/m² 1,9 km/h (1 Bft) O-SO 119 ° 1 min 229 W/m² -1,6 °C 4,8 °C 4,8 km/h (1 Bft)
02.02.2025 15:02 22,5 °C 4,8 °C 48 % 65 % 1026,1 hPa 0,0 l/m² 0,4 km/h (0 Bft) O-SO 119 ° 1 min 244 W/m² -1,2 °C 4,8 °C 1,6 km/h (1 Bft)
02.02.2025 15:03 22,5 °C 4,8 °C 48 % 65 % 1026,2 hPa 0,0 l/m² 0,1 km/h (0 Bft) O-SO 119 ° 1 min 243 W/m² -1,2 °C 4,8 °C 1,6 km/h (1 Bft)
02.02.2025 15:04 22,5 °C 4,8 °C 48 % 66 % 1026,2 hPa 0,0 l/m² 0,0 km/h (0 Bft) O-SO 119 ° 1 min 239 W/m² -1,0 °C 4,8 °C 0,0 km/h (0 Bft)
02.02.2025 15:06 22,5 °C 4,9 °C 48 % 66 % 1026,2 hPa 0,0 l/m² 1,5 km/h (1 Bft) O-SO 120 ° 2 min 214 W/m² -0,9 °C 4,9 °C 4,8 km/h (1 Bft)
02.02.2025 15:08 22,5 °C 4,8 °C 48 % 64 % 1026,1 hPa 0,0 l/m² 4,1 km/h (1 Bft) SO 140 ° 2 min 195 W/m² -1,4 °C 4,8 °C 6,4 km/h (2 Bft)
02.02.2025 15:10 22,5 °C 4,7 °C 48 % 67 % 1026,1 hPa 0,0 l/m² 2,6 km/h (1 Bft) SO 140 ° 2 min 202 W/m² -0,9 °C 4,7 °C 4,8 km/h (1 Bft)
02.02.2025 15:11 22,5 °C 4,7 °C 48 % 69 % 1026,1 hPa 0,0 l/m² 2,4 km/h (1 Bft) SO 140 ° 1 min 195 W/m² -0,5 °C 4,7 °C 3,2 km/h (1 Bft)
02.02.2025 15:12 22,5 °C 4,6 °C 48 % 69 % 1026,1 hPa 0,0 l/m² 2,9 km/h (1 Bft) SO 140 ° 1 min 190 W/m² -0,6 °C 4,6 °C 4,8 km/h (1 Bft)
02.02.2025 15:14 22,5 °C 4,6 °C 48 % 69 % 1026,1 hPa 0,0 l/m² 4,0 km/h (1 Bft) SO 140 ° 2 min 192 W/m² -0,6 °C 4,6 °C 6,4 km/h (2 Bft)
02.02.2025 15:16 22,5 °C 4,5 °C 49 % 69 % 1026,1 hPa 0,0 l/m² 4,0 km/h (1 Bft) SO 140 ° 2 min 193 W/m² -0,7 °C 4,5 °C 4,8 km/h (1 Bft)
02.02.2025 15:18 22,5 °C 4,4 °C 49 % 66 % 1026,1 hPa 0,0 l/m² 0,8 km/h (0 Bft) SO 140 ° 2 min 186 W/m² -1,4 °C 4,4 °C 3,2 km/h (1 Bft)
02.02.2025 15:20 22,6 °C 4,4 °C 49 % 69 % 1026,1 hPa 0,0 l/m² 1,9 km/h (1 Bft) SO 140 ° 2 min 179 W/m² -0,8 °C 4,4 °C 4,8 km/h (1 Bft)
02.02.2025 15:21 22,6 °C 4,5 °C 49 % 67 % 1026,2 hPa 0,0 l/m² 0,1 km/h (0 Bft) SO 140 ° 1 min 176 W/m² -1,1 °C 4,5 °C 1,6 km/h (1 Bft)
02.02.2025 15:22 22,6 °C 4,5 °C 49 % 67 % 1026,2 hPa 0,0 l/m² 0,0 km/h (0 Bft) SO 140 ° 1 min 174 W/m² -1,1 °C 4,5 °C 0,0 km/h (0 Bft)
02.02.2025 15:24 22,6 °C 4,5 °C 49 % 66 % 1026,1 hPa 0,0 l/m² 0,1 km/h (0 Bft) SO 140 ° 2 min 165 W/m² -1,3 °C 4,5 °C 1,6 km/h (1 Bft)
02.02.2025 15:26 22,6 °C 4,5 °C 49 % 66 % 1026,1 hPa 0,0 l/m² 0,4 km/h (0 Bft) SO 140 ° 2 min 162 W/m² -1,3 °C 4,5 °C 3,2 km/h (1 Bft)
02.02.2025 15:28 22,6 °C 4,5 °C 49 % 67 % 1026,1 hPa 0,0 l/m² 3,7 km/h (1 Bft) SO 140 ° 2 min 156 W/m² -1,1 °C 4,5 °C 6,4 km/h (2 Bft)
02.02.2025 15:30 22,6 °C 4,4 °C 49 % 68 % 1026,0 hPa 0,0 l/m² 2,5 km/h (1 Bft) SO 140 ° 2 min 146 W/m² -1,0 °C 4,4 °C 4,8 km/h (1 Bft)
02.02.2025 15:31 22,6 °C 4,4 °C 49 % 69 % 1026,0 hPa 0,0 l/m² 1,6 km/h (1 Bft) SO 140 ° 1 min 139 W/m² -0,8 °C 4,4 °C 4,8 km/h (1 Bft)
02.02.2025 15:32 22,6 °C 4,4 °C 49 % 68 % 1026,0 hPa 0,0 l/m² 1,1 km/h (1 Bft) SO 140 ° 1 min 105 W/m² -1,0 °C 4,4 °C 1,6 km/h (1 Bft)
02.02.2025 15:34 22,6 °C 4,3 °C 49 % 67 % 1026,1 hPa 0,0 l/m² 3,0 km/h (1 Bft) SO 140 ° 2 min 76 W/m² -1,3 °C 4,3 °C 6,4 km/h (2 Bft)
02.02.2025 15:36 22,6 °C 4,1 °C 49 % 69 % 1026,1 hPa 0,0 l/m² 6,1 km/h (2 Bft) S-SO 155 ° 2 min 60 W/m² -1,1 °C 4,1 °C 6,4 km/h (2 Bft)
02.02.2025 15:38 22,6 °C 3,9 °C 49 % 67 % 1026,2 hPa 0,0 l/m² 2,8 km/h (1 Bft) S-SO 155 ° 2 min 63 W/m² -1,7 °C 3,9 °C 4,8 km/h (1 Bft)
02.02.2025 15:40 22,6 °C 3,8 °C 50 % 69 % 1026,2 hPa 0,0 l/m² 0,0 km/h (0 Bft) S-SO 155 ° 2 min 67 W/m² -1,4 °C 3,8 °C 0,0 km/h (0 Bft)
02.02.2025 15:41 22,6 °C 3,7 °C 50 % 69 % 1026,1 hPa 0,0 l/m² 0,0 km/h (0 Bft) S-SO 155 ° 1 min 67 W/m² -1,4 °C 3,7 °C 0,0 km/h (0 Bft)
02.02.2025 15:42 22,6 °C 3,7 °C 50 % 69 % 1026,1 hPa 0,0 l/m² 0,0 km/h (0 Bft) S-SO 155 ° 1 min 72 W/m² -1,4 °C 3,7 °C 0,0 km/h (0 Bft)
02.02.2025 15:44 22,6 °C 3,8 °C 50 % 68 % 1026,2 hPa 0,0 l/m² 0,0 km/h (0 Bft) S-SO 155 ° 2 min 69 W/m² -1,6 °C 3,8 °C 0,0 km/h (0 Bft)
02.02.2025 15:46 22,6 °C 3,8 °C 50 % 67 % 1026,0 hPa 0,0 l/m² 0,0 km/h (0 Bft) S-SO 155 ° 2 min 111 W/m² -1,8 °C 3,8 °C 0,0 km/h (0 Bft)
02.02.2025 15:48 22,6 °C 3,9 °C 50 % 68 % 1026,0 hPa 0,0 l/m² 0,0 km/h (0 Bft) S-SO 155 ° 2 min 113 W/m² -1,5 °C 3,9 °C 0,0 km/h (0 Bft)
02.02.2025 15:50 22,6 °C 4,0 °C 50 % 68 % 1026,0 hPa 0,0 l/m² 0,2 km/h (0 Bft) S-SO 155 ° 2 min 113 W/m² -1,4 °C 4,0 °C 1,6 km/h (1 Bft)
02.02.2025 15:51 22,6 °C 4,1 °C 50 % 69 % 1026,0 hPa 0,0 l/m² 0,0 km/h (0 Bft) S-SO 155 ° 1 min 111 W/m² -1,1 °C 4,1 °C 0,0 km/h (0 Bft)
02.02.2025 15:52 22,6 °C 4,1 °C 50 % 68 % 1026,0 hPa 0,0 l/m² 0,6 km/h (0 Bft) S-SO 155 ° 1 min 111 W/m² -1,3 °C 4,1 °C 3,2 km/h (1 Bft)
02.02.2025 15:54 22,5 °C 4,1 °C 50 % 67 % 1026,0 hPa 0,0 l/m² 1,3 km/h (1 Bft) S-SO 152 ° 2 min 120 W/m² -1,5 °C 4,1 °C 4,8 km/h (1 Bft)
02.02.2025 15:56 22,6 °C 4,2 °C 50 % 65 % 1026,1 hPa 0,0 l/m² 3,1 km/h (1 Bft) SO 146 ° 2 min 123 W/m² -1,8 °C 4,2 °C 6,4 km/h (2 Bft)
02.02.2025 15:58 22,5 °C 4,3 °C 50 % 65 % 1026,1 hPa 0,0 l/m² 0,0 km/h (0 Bft) SO 146 ° 2 min 123 W/m² -1,7 °C 4,3 °C 1,6 km/h (1 Bft)
02.02.2025 16:00 22,5 °C 4,3 °C 51 % 68 % 1026,1 hPa 0,0 l/m² 1,6 km/h (1 Bft) SO 146 ° 2 min 121 W/m² -1,1 °C 4,3 °C 4,8 km/h (1 Bft)
02.02.2025 16:01 22,5 °C 4,3 °C 51 % 67 % 1026,1 hPa 0,0 l/m² 4,0 km/h (1 Bft) SO 146 ° 1 min 121 W/m² -1,3 °C 4,3 °C 4,8 km/h (1 Bft)
02.02.2025 16:02 22,5 °C 4,3 °C 51 % 67 % 1026,1 hPa 0,0 l/m² 2,9 km/h (1 Bft) SO 146 ° 1 min 120 W/m² -1,3 °C 4,3 °C 4,8 km/h (1 Bft)
02.02.2025 16:04 22,5 °C 4,2 °C 51 % 68 % 1026,1 hPa 0,0 l/m² 2,9 km/h (1 Bft) SO 146 ° 2 min 114 W/m² -1,2 °C 4,2 °C 4,8 km/h (1 Bft)
02.02.2025 16:06 22,4 °C 4,2 °C 51 % 67 % 1026,2 hPa 0,0 l/m² 2,7 km/h (1 Bft) SO 146 ° 2 min 109 W/m² -1,4 °C 4,2 °C 4,8 km/h (1 Bft)
02.02.2025 16:08 22,5 °C 4,2 °C 51 % 66 % 1026,4 hPa 0,0 l/m² 0,8 km/h (0 Bft) SO 146 ° 2 min 104 W/m² -1,6 °C 4,2 °C 3,2 km/h (1 Bft)
02.02.2025 16:10 22,4 °C 4,2 °C 51 % 66 % 1026,2 hPa 0,0 l/m² 0,0 km/h (0 Bft) SO 146 ° 2 min 93 W/m² -1,6 °C 4,2 °C 0,0 km/h (0 Bft)
02.02.2025 16:11 22,4 °C 4,2 °C 51 % 65 % 1026,2 hPa 0,0 l/m² 0,1 km/h (0 Bft) SO 146 ° 1 min 90 W/m² -1,8 °C 4,2 °C 1,6 km/h (1 Bft)
02.02.2025 16:12 22,4 °C 4,2 °C 51 % 67 % 1026,2 hPa 0,0 l/m² 0,2 km/h (0 Bft) SO 146 ° 1 min 86 W/m² -1,4 °C 4,2 °C 1,6 km/h (1 Bft)
02.02.2025 16:14 22,4 °C 4,1 °C 51 % 68 % 1026,2 hPa 0,0 l/m² 0,0 km/h (0 Bft) SO 146 ° 2 min 81 W/m² -1,3 °C 4,1 °C 1,6 km/h (1 Bft)
02.02.2025 16:16 22,4 °C 4,1 °C 51 % 67 % 1026,3 hPa 0,0 l/m² 0,3 km/h (0 Bft) SO 146 ° 2 min 72 W/m² -1,5 °C 4,1 °C 3,2 km/h (1 Bft)
02.02.2025 16:18 22,4 °C 4,0 °C 51 % 68 % 1026,2 hPa 0,0 l/m² 3,8 km/h (1 Bft) SO 145 ° 2 min 69 W/m² -1,4 °C 4,0 °C 4,8 km/h (1 Bft)
02.02.2025 16:20 22,4 °C 3,9 °C 51 % 68 % 1026,2 hPa 0,0 l/m² 2,9 km/h (1 Bft) SO 145 ° 2 min 65 W/m² -1,5 °C 3,9 °C 4,8 km/h (1 Bft)
02.02.2025 16:21 22,4 °C 3,8 °C 51 % 69 % 1026,2 hPa 0,0 l/m² 4,2 km/h (1 Bft) SO 144 ° 1 min 63 W/m² -1,4 °C 3,8 °C 4,8 km/h (1 Bft)
02.02.2025 16:22 22,4 °C 3,8 °C 51 % 70 % 1026,3 hPa 0,0 l/m² 4,7 km/h (1 Bft) SO 142 ° 1 min 58 W/m² -1,2 °C 3,8 °C 6,4 km/h (2 Bft)
02.02.2025 16:23 22,4 °C 3,7 °C 51 % 70 % 1026,3 hPa 0,0 l/m² 4,0 km/h (1 Bft) SO 142 ° 1 min 58 W/m² -1,3 °C 3,7 °C 6,4 km/h (2 Bft)
02.02.2025 16:24 22,4 °C 3,6 °C 51 % 69 % 1026,3 hPa 0,0 l/m² 4,1 km/h (1 Bft) SO 142 ° 1 min 56 W/m² -1,5 °C 3,6 °C 4,8 km/h (1 Bft)
02.02.2025 16:26 22,4 °C 3,4 °C 51 % 70 % 1026,3 hPa 0,0 l/m² 3,2 km/h (1 Bft) SO 142 ° 0 min 51 W/m² -1,5 °C 3,4 °C 4,8 km/h (1 Bft)
02.02.2025 16:28 22,4 °C 3,4 °C 51 % 70 % 1026,3 hPa 0,0 l/m² 2,3 km/h (1 Bft) SO 142 ° 0 min 40 W/m² -1,5 °C 3,4 °C 3,2 km/h (1 Bft)
02.02.2025 16:30 22,4 °C 3,4 °C 52 % 70 % 1026,3 hPa 0,0 l/m² 4,0 km/h (1 Bft) SO 141 ° 0 min 37 W/m² -1,5 °C 3,4 °C 6,4 km/h (2 Bft)
02.02.2025 16:31 22,4 °C 3,5 °C 52 % 69 % 1026,3 hPa 0,0 l/m² 5,2 km/h (1 Bft) SO 136 ° 0 min 33 W/m² -1,6 °C 3,5 °C 6,4 km/h (2 Bft)
02.02.2025 16:32 22,4 °C 3,5 °C 52 % 69 % 1026,3 hPa 0,0 l/m² 6,9 km/h (2 Bft) O 97 ° 0 min 32 W/m² -1,6 °C 3,0 °C 9,7 km/h (2 Bft)
02.02.2025 16:35 22,3 °C 3,3 °C 51 % 69 % 1026,3 hPa 0,0 l/m² 5,6 km/h (2 Bft) O 92 ° 0 min 28 W/m² -1,8 °C 3,3 °C 6,4 km/h (2 Bft)
02.02.2025 16:37 22,3 °C 3,2 °C 52 % 69 % 1026,3 hPa 0,0 l/m² 5,5 km/h (2 Bft) O 94 ° 0 min 25 W/m² -1,9 °C 3,2 °C 6,4 km/h (2 Bft)
02.02.2025 16:39 22,3 °C 3,0 °C 52 % 70 % 1026,3 hPa 0,0 l/m² 5,5 km/h (2 Bft) O 94 ° 0 min 19 W/m² -1,9 °C 3,0 °C 6,4 km/h (2 Bft)
02.02.2025 16:40 22,3 °C 2,9 °C 52 % 70 % 1026,3 hPa 0,0 l/m² 7,6 km/h (2 Bft) O 93 ° 0 min 19 W/m² -2,0 °C 1,8 °C 11,3 km/h (2 Bft)
02.02.2025 16:42 22,3 °C 2,9 °C 52 % 70 % 1026,4 hPa 0,0 l/m² 4,0 km/h (1 Bft) O 93 ° 0 min 19 W/m² -2,0 °C 2,9 °C 4,8 km/h (1 Bft)
02.02.2025 16:43 22,3 °C 2,9 °C 52 % 70 % 1026,4 hPa 0,0 l/m² 3,3 km/h (1 Bft) O 93 ° 0 min 19 W/m² -2,0 °C 2,9 °C 4,8 km/h (1 Bft)
02.02.2025 16:44 22,3 °C 2,9 °C 52 % 69 % 1026,4 hPa 0,0 l/m² 4,0 km/h (1 Bft) O 94 ° 0 min 19 W/m² -2,2 °C 2,9 °C 6,4 km/h (2 Bft)
02.02.2025 16:46 22,3 °C 2,9 °C 52 % 69 % 1026,4 hPa 0,0 l/m² 2,7 km/h (1 Bft) O 94 ° 0 min 18 W/m² -2,2 °C 2,9 °C 4,8 km/h (1 Bft)
02.02.2025 16:48 22,3 °C 2,9 °C 52 % 70 % 1026,5 hPa 0,0 l/m² 1,1 km/h (1 Bft) O 94 ° 0 min 16 W/m² -2,0 °C 2,9 °C 3,2 km/h (1 Bft)
02.02.2025 16:50 22,3 °C 2,9 °C 52 % 70 % 1026,5 hPa 0,0 l/m² 1,9 km/h (1 Bft) O 94 ° 0 min 14 W/m² -2,0 °C 2,9 °C 3,2 km/h (1 Bft)
02.02.2025 16:51 22,3 °C 2,9 °C 52 % 70 % 1026,5 hPa 0,0 l/m² 1,9 km/h (1 Bft) O 94 ° 0 min 14 W/m² -2,0 °C 2,9 °C 3,2 km/h (1 Bft)
02.02.2025 16:52 22,3 °C 2,9 °C 52 % 70 % 1026,5 hPa 0,0 l/m² 1,9 km/h (1 Bft) O 94 ° 0 min 12 W/m² -2,0 °C 2,9 °C 3,2 km/h (1 Bft)
02.02.2025 16:54 22,3 °C 2,9 °C 52 % 70 % 1026,7 hPa 0,0 l/m² 2,8 km/h (1 Bft) O 94 ° 0 min 12 W/m² -2,0 °C 2,9 °C 4,8 km/h (1 Bft)
02.02.2025 16:56 22,3 °C 2,9 °C 52 % 70 % 1026,8 hPa 0,0 l/m² 2,9 km/h (1 Bft) O 94 ° 0 min 11 W/m² -2,0 °C 2,9 °C 4,8 km/h (1 Bft)
02.02.2025 16:58 22,3 °C 2,9 °C 52 % 70 % 1026,8 hPa 0,0 l/m² 3,2 km/h (1 Bft) O 94 ° 0 min 9 W/m² -2,0 °C 2,9 °C 4,8 km/h (1 Bft)
02.02.2025 17:00 22,3 °C 2,8 °C 52 % 70 % 1026,7 hPa 0,0 l/m² 3,4 km/h (1 Bft) O 94 ° 0 min 7 W/m² -2,1 °C 2,8 °C 4,8 km/h (1 Bft)
02.02.2025 17:01 22,2 °C 2,8 °C 52 % 69 % 1026,7 hPa 0,0 l/m² 4,4 km/h (1 Bft) O 94 ° 0 min 7 W/m² -2,3 °C 2,8 °C 4,8 km/h (1 Bft)
02.02.2025 17:02 22,2 °C 2,8 °C 52 % 69 % 1026,7 hPa 0,0 l/m² 4,5 km/h (1 Bft) O 94 ° 0 min 7 W/m² -2,3 °C 2,8 °C 4,8 km/h (1 Bft)
02.02.2025 17:04 22,2 °C 2,7 °C 52 % 70 % 1026,8 hPa 0,0 l/m² 4,0 km/h (1 Bft) O 94 ° 0 min 5 W/m² -2,2 °C 2,7 °C 6,4 km/h (2 Bft)
02.02.2025 17:06 22,2 °C 2,6 °C 52 % 70 % 1026,7 hPa 0,0 l/m² 3,7 km/h (1 Bft) O 94 ° 0 min 5 W/m² -2,3 °C 2,6 °C 4,8 km/h (1 Bft)
02.02.2025 17:08 22,2 °C 2,6 °C 52 % 70 % 1026,8 hPa 0,0 l/m² 0,3 km/h (0 Bft) O 94 ° 0 min 0 W/m² -2,3 °C 2,6 °C 3,2 km/h (1 Bft)
02.02.2025 17:10 22,2 °C 2,5 °C 52 % 71 % 1026,8 hPa 0,0 l/m² 0,2 km/h (0 Bft) O 94 ° 0 min 0 W/m² -2,2 °C 2,5 °C 1,6 km/h (1 Bft)
02.02.2025 17:11 22,2 °C 2,4 °C 52 % 71 % 1026,8 hPa 0,0 l/m² 1,0 km/h (0 Bft) O 94 ° 0 min 0 W/m² -2,3 °C 2,4 °C 3,2 km/h (1 Bft)
02.02.2025 17:13 22,2 °C 2,4 °C 52 % 71 % 1026,8 hPa 0,0 l/m² 3,1 km/h (1 Bft) O 94 ° 0 min 0 W/m² -2,3 °C 2,4 °C 4,8 km/h (1 Bft)
02.02.2025 17:15 22,2 °C 2,3 °C 52 % 71 % 1026,7 hPa 0,0 l/m² 2,4 km/h (1 Bft) O 94 ° 0 min 0 W/m² -2,4 °C 2,3 °C 3,2 km/h (1 Bft)
02.02.2025 17:17 22,2 °C 2,1 °C 52 % 72 % 1026,8 hPa 0,0 l/m² 3,0 km/h (1 Bft) O 94 ° 0 min 0 W/m² -2,4 °C 2,1 °C 4,8 km/h (1 Bft)
02.02.2025 17:19 22,2 °C 1,9 °C 52 % 74 % 1026,8 hPa 0,0 l/m² 2,7 km/h (1 Bft) O 94 ° 0 min 0 W/m² -2,2 °C 1,9 °C 3,2 km/h (1 Bft)
02.02.2025 17:20 22,2 °C 1,9 °C 52 % 74 % 1026,8 hPa 0,0 l/m² 2,3 km/h (1 Bft) O 94 ° 0 min 0 W/m² -2,2 °C 1,9 °C 3,2 km/h (1 Bft)
02.02.2025 17:21 22,2 °C 1,8 °C 52 % 75 % 1026,8 hPa 0,0 l/m² 3,0 km/h (1 Bft) O 94 ° 0 min 0 W/m² -2,1 °C 1,8 °C 3,2 km/h (1 Bft)
02.02.2025 17:22 22,2 °C 1,8 °C 52 % 75 % 1026,8 hPa 0,0 l/m² 2,4 km/h (1 Bft) O 94 ° 0 min 0 W/m² -2,1 °C 1,8 °C 3,2 km/h (1 Bft)
02.02.2025 17:24 22,2 °C 1,7 °C 52 % 75 % 1026,7 hPa 0,0 l/m² 3,2 km/h (1 Bft) O 94 ° 0 min 0 W/m² -2,2 °C 1,7 °C 4,8 km/h (1 Bft)
02.02.2025 17:26 22,2 °C 1,7 °C 52 % 75 % 1026,8 hPa 0,0 l/m² 2,5 km/h (1 Bft) O 94 ° 0 min 0 W/m² -2,2 °C 1,7 °C 3,2 km/h (1 Bft)
02.02.2025 17:28 22,2 °C 1,6 °C 52 % 75 % 1026,7 hPa 0,0 l/m² 1,8 km/h (1 Bft) O 94 ° 0 min 0 W/m² -2,3 °C 1,6 °C 3,2 km/h (1 Bft)
02.02.2025 17:30 22,2 °C 1,6 °C 52 % 75 % 1026,8 hPa 0,0 l/m² 1,0 km/h (0 Bft) O 94 ° 0 min 0 W/m² -2,3 °C 1,6 °C 1,6 km/h (1 Bft)
02.02.2025 17:31 22,2 °C 1,6 °C 52 % 75 % 1026,7 hPa 0,0 l/m² 0,0 km/h (0 Bft) O 94 ° 0 min 0 W/m² -2,3 °C 1,6 °C 0,0 km/h (0 Bft)
02.02.2025 17:32 22,2 °C 1,6 °C 52 % 76 % 1026,7 hPa 0,0 l/m² 0,0 km/h (0 Bft) O 94 ° 0 min 0 W/m² -2,2 °C 1,6 °C 0,0 km/h (0 Bft)
02.02.2025 17:33 22,2 °C 1,6 °C 52 % 76 % 1026,8 hPa 0,0 l/m² 0,0 km/h (0 Bft) O 94 ° 0 min 0 W/m² -2,2 °C 1,6 °C 0,0 km/h (0 Bft)
02.02.2025 17:35 22,2 °C 1,6 °C 51 % 75 % 1026,9 hPa 0,0 l/m² 0,0 km/h (0 Bft) O 94 ° 0 min 0 W/m² -2,3 °C 1,6 °C 0,0 km/h (0 Bft)
02.02.2025 17:37 22,2 °C 1,6 °C 51 % 75 % 1026,9 hPa 0,0 l/m² 0,0 km/h (0 Bft) O 94 ° 0 min 0 W/m² -2,3 °C 1,6 °C 0,0 km/h (0 Bft)
02.02.2025 17:39 22,2 °C 1,4 °C 51 % 75 % 1026,8 hPa 0,0 l/m² 0,0 km/h (0 Bft) O 94 ° 0 min 0 W/m² -2,5 °C 1,4 °C 0,0 km/h (0 Bft)
02.02.2025 17:40 22,2 °C 1,2 °C 51 % 75 % 1026,8 hPa 0,0 l/m² 0,0 km/h (0 Bft) O 94 ° 0 min 0 W/m² -2,7 °C 1,2 °C 0,0 km/h (0 Bft)
02.02.2025 17:42 22,2 °C 0,8 °C 51 % 76 % 1026,9 hPa 0,0 l/m² 0,0 km/h (0 Bft) O 94 ° 0 min 0 W/m² -2,9 °C 0,8 °C 0,0 km/h (0 Bft)
02.02.2025 17:44 22,2 °C 0,5 °C 51 % 78 % 1026,9 hPa 0,0 l/m² 0,0 km/h (0 Bft) O 94 ° 0 min 0 W/m² -2,9 °C 0,5 °C 0,0 km/h (0 Bft)
02.02.2025 17:46 22,2 °C 0,3 °C 51 % 79 % 1026,9 hPa 0,0 l/m² 0,0 km/h (0 Bft) O 94 ° 0 min 0 W/m² -2,9 °C 0,3 °C 0,0 km/h (0 Bft)
02.02.2025 17:48 22,2 °C 0,2 °C 51 % 80 % 1026,8 hPa 0,0 l/m² 0,0 km/h (0 Bft) O 94 ° 0 min 0 W/m² -2,8 °C 0,2 °C 0,0 km/h (0 Bft)
02.02.2025 17:50 22,2 °C 0,2 °C 51 % 80 % 1026,8 hPa 0,0 l/m² 0,0 km/h (0 Bft) O 94 ° 0 min 0 W/m² -2,8 °C 0,2 °C 0,0 km/h (0 Bft)
02.02.2025 17:51 22,2 °C 0,1 °C 51 % 80 % 1026,9 hPa 0,0 l/m² 0,0 km/h (0 Bft) O 94 ° 0 min 0 W/m² -2,9 °C 0,1 °C 0,0 km/h (0 Bft)
02.02.2025 17:52 22,2 °C 0,1 °C 51 % 80 % 1026,9 hPa 0,0 l/m² 0,0 km/h (0 Bft) O 94 ° 0 min 0 W/m² -2,9 °C 0,1 °C 0,0 km/h (0 Bft)
02.02.2025 17:53 22,2 °C 0,1 °C 51 % 81 % 1026,9 hPa 0,0 l/m² 0,0 km/h (0 Bft) O 94 ° 0 min 0 W/m² -2,8 °C 0,1 °C 0,0 km/h (0 Bft)
02.02.2025 17:55 22,2 °C 0,1 °C 51 % 81 % 1026,9 hPa 0,0 l/m² 0,0 km/h (0 Bft) O 94 ° 0 min 0 W/m² -2,8 °C 0,1 °C 0,0 km/h (0 Bft)
02.02.2025 17:57 22,2 °C 0,0 °C 52 % 81 % 1026,7 hPa 0,0 l/m² 0,0 km/h (0 Bft) O 94 ° 0 min 0 W/m² -2,9 °C 0,0 °C 0,0 km/h (0 Bft)
02.02.2025 17:59 22,2 °C -0,1 °C 52 % 81 % 1026,8 hPa 0,0 l/m² 0,0 km/h (0 Bft) O 94 ° 0 min 0 W/m² -3,0 °C -0,1 °C 0,0 km/h (0 Bft)
02.02.2025 18:00 22,2 °C -0,1 °C 52 % 81 % 1026,8 hPa 0,0 l/m² 0,0 km/h (0 Bft) O 94 ° 0 min 0 W/m² -3,0 °C -0,1 °C 0,0 km/h (0 Bft)
02.02.2025 18:01 22,2 °C -0,2 °C 52 % 81 % 1026,8 hPa 0,0 l/m² 0,0 km/h (0 Bft) O 94 ° 0 min 0 W/m² -3,1 °C -0,2 °C 0,0 km/h (0 Bft)
02.02.2025 18:02 22,2 °C -0,2 °C 51 % 81 % 1026,8 hPa 0,0 l/m² 0,0 km/h (0 Bft) O 94 ° 0 min 0 W/m² -3,1 °C -0,2 °C 0,0 km/h (0 Bft)
02.02.2025 18:04 22,2 °C -0,3 °C 51 % 81 % 1026,7 hPa 0,0 l/m² 0,0 km/h (0 Bft) O 94 ° 0 min 0 W/m² -3,2 °C -0,3 °C 0,0 km/h (0 Bft)
02.02.2025 18:06 22,2 °C -0,3 °C 51 % 82 % 1026,7 hPa 0,0 l/m² 0,0 km/h (0 Bft) O 94 ° 0 min 0 W/m² -3,0 °C -0,3 °C 0,0 km/h (0 Bft)
02.02.2025 18:08 22,2 °C -0,3 °C 51 % 82 % 1026,7 hPa 0,0 l/m² 0,0 km/h (0 Bft) O 94 ° 0 min 0 W/m² -3,0 °C -0,3 °C 0,0 km/h (0 Bft)
02.02.2025 18:10 22,2 °C -0,4 °C 51 % 82 % 1026,7 hPa 0,0 l/m² 0,0 km/h (0 Bft) O 94 ° 0 min 0 W/m² -3,1 °C -0,4 °C 0,0 km/h (0 Bft)
02.02.2025 18:11 22,1 °C -0,5 °C 51 % 82 % 1026,7 hPa 0,0 l/m² 0,0 km/h (0 Bft) O 94 ° 0 min 0 W/m² -3,2 °C -0,5 °C 0,0 km/h (0 Bft)
02.02.2025 18:12 22,1 °C -0,6 °C 51 % 82 % 1026,7 hPa 0,0 l/m² 0,0 km/h (0 Bft) O 94 ° 0 min 0 W/m² -3,3 °C -0,6 °C 0,0 km/h (0 Bft)
02.02.2025 18:13 22,2 °C -0,6 °C 51 % 82 % 1026,6 hPa 0,0 l/m² 0,0 km/h (0 Bft) O 94 ° 0 min 0 W/m² -3,3 °C -0,6 °C 0,0 km/h (0 Bft)
02.02.2025 18:15 22,2 °C -0,7 °C 51 % 82 % 1026,9 hPa 0,0 l/m² 0,0 km/h (0 Bft) O 94 ° 0 min 0 W/m² -3,4 °C -0,7 °C 0,0 km/h (0 Bft)
02.02.2025 18:17 22,2 °C -0,7 °C 51 % 83 % 1026,9 hPa 0,0 l/m² 0,0 km/h (0 Bft) O 94 ° 0 min 0 W/m² -3,2 °C -0,7 °C 0,0 km/h (0 Bft)
02.02.2025 18:19 22,1 °C -0,7 °C 51 % 83 % 1026,9 hPa 0,0 l/m² 0,0 km/h (0 Bft) O 94 ° 0 min 0 W/m² -3,2 °C -0,7 °C 0,0 km/h (0 Bft)
02.02.2025 18:21 22,1 °C -0,7 °C 51 % 83 % 1026,8 hPa 0,0 l/m² 0,0 km/h (0 Bft) O 94 ° 0 min 0 W/m² -3,2 °C -0,7 °C 0,0 km/h (0 Bft)
02.02.2025 18:22 22,1 °C -0,8 °C 51 % 83 % 1026,9 hPa 0,0 l/m² 0,0 km/h (0 Bft) O 94 ° 0 min 0 W/m² -3,3 °C -0,8 °C 0,0 km/h (0 Bft)
02.02.2025 18:24 22,1 °C -0,8 °C 51 % 83 % 1026,9 hPa 0,0 l/m² 0,0 km/h (0 Bft) O 94 ° 0 min 0 W/m² -3,3 °C -0,8 °C 0,0 km/h (0 Bft)
02.02.2025 18:26 22,1 °C -0,8 °C 51 % 83 % 1027,0 hPa 0,0 l/m² 0,0 km/h (0 Bft) O 94 ° 0 min 0 W/m² -3,3 °C -0,8 °C 1,6 km/h (1 Bft)
02.02.2025 18:28 22,1 °C -0,7 °C 51 % 83 % 1027,0 hPa 0,0 l/m² 0,0 km/h (0 Bft) O 94 ° 0 min 0 W/m² -3,2 °C -0,7 °C 0,0 km/h (0 Bft)
02.02.2025 18:30 22,1 °C -0,7 °C 51 % 83 % 1027,0 hPa 0,0 l/m² 0,0 km/h (0 Bft) O 94 ° 0 min 0 W/m² -3,2 °C -0,7 °C 0,0 km/h (0 Bft)
02.02.2025 18:31 22,1 °C -0,7 °C 51 % 83 % 1026,9 hPa 0,0 l/m² 0,0 km/h (0 Bft) O 94 ° 0 min 0 W/m² -3,2 °C -0,7 °C 0,0 km/h (0 Bft)
02.02.2025 18:33 22,1 °C -0,7 °C 51 % 83 % 1026,9 hPa 0,0 l/m² 0,1 km/h (0 Bft) O 94 ° 0 min 0 W/m² -3,2 °C -0,7 °C 1,6 km/h (1 Bft)
02.02.2025 18:35 22,1 °C -0,8 °C 51 % 83 % 1026,9 hPa 0,0 l/m² 0,4 km/h (0 Bft) O 94 ° 0 min 0 W/m² -3,3 °C -0,8 °C 1,6 km/h (1 Bft)
02.02.2025 18:36 22,2 °C -0,8 °C 52 % 83 % 1026,9 hPa 0,0 l/m² 0,0 km/h (0 Bft) O 94 ° 0 min 0 W/m² -3,3 °C -0,8 °C 0,0 km/h (0 Bft)
02.02.2025 18:38 22,2 °C -0,9 °C 52 % 83 % 1026,9 hPa 0,0 l/m² 0,0 km/h (0 Bft) O 94 ° 0 min 0 W/m² -3,4 °C -0,9 °C 0,0 km/h (0 Bft)
02.02.2025 18:40 22,1 °C -1,1 °C 52 % 83 % 1026,9 hPa 0,0 l/m² 0,0 km/h (0 Bft) O 94 ° 0 min 0 W/m² -3,6 °C -1,1 °C 0,0 km/h (0 Bft)
02.02.2025 18:41 22,1 °C -1,1 °C 52 % 84 % 1027,0 hPa 0,0 l/m² 0,0 km/h (0 Bft) O 94 ° 0 min 0 W/m² -3,4 °C -1,1 °C 0,0 km/h (0 Bft)
02.02.2025 18:42 22,1 °C -1,1 °C 52 % 83 % 1027,0 hPa 0,0 l/m² 0,0 km/h (0 Bft) O 94 ° 0 min 0 W/m² -3,6 °C -1,1 °C 0,0 km/h (0 Bft)
02.02.2025 18:43 22,1 °C -1,1 °C 52 % 84 % 1027,0 hPa 0,0 l/m² 0,0 km/h (0 Bft) O 94 ° 0 min 0 W/m² -3,4 °C -1,1 °C 0,0 km/h (0 Bft)
02.02.2025 18:45 22,1 °C -1,2 °C 52 % 84 % 1027,0 hPa 0,0 l/m² 0,0 km/h (0 Bft) O 94 ° 0 min 0 W/m² -3,5 °C -1,2 °C 0,0 km/h (0 Bft)
02.02.2025 18:46 22,1 °C -1,2 °C 52 % 84 % 1026,9 hPa 0,0 l/m² 0,0 km/h (0 Bft) O 94 ° 0 min 0 W/m² -3,5 °C -1,2 °C 0,0 km/h (0 Bft)
02.02.2025 18:47 22,1 °C -1,2 °C 52 % 84 % 1026,9 hPa 0,0 l/m² 0,0 km/h (0 Bft) O 94 ° 0 min 0 W/m² -3,5 °C -1,2 °C 0,0 km/h (0 Bft)
02.02.2025 18:49 22,1 °C -1,3 °C 52 % 84 % 1026,9 hPa 0,0 l/m² 0,0 km/h (0 Bft) O 94 ° 0 min 0 W/m² -3,6 °C -1,3 °C 0,0 km/h (0 Bft)
02.02.2025 18:51 22,2 °C -1,3 °C 52 % 85 % 1026,9 hPa 0,0 l/m² 0,0 km/h (0 Bft) O 94 ° 0 min 0 W/m² -3,5 °C -1,3 °C 0,0 km/h (0 Bft)
02.02.2025 18:52 22,1 °C -1,3 °C 53 % 85 % 1026,9 hPa 0,0 l/m² 0,0 km/h (0 Bft) O 94 ° 0 min 0 W/m² -3,5 °C -1,3 °C 0,0 km/h (0 Bft)
02.02.2025 18:53 22,1 °C -1,4 °C 53 % 85 % 1026,9 hPa 0,0 l/m² 0,0 km/h (0 Bft) O 94 ° 0 min 0 W/m² -3,6 °C -1,4 °C 0,0 km/h (0 Bft)
02.02.2025 18:54 22,2 °C -1,4 °C 53 % 85 % 1026,8 hPa 0,0 l/m² 0,0 km/h (0 Bft) O 94 ° 0 min 0 W/m² -3,6 °C -1,4 °C 0,0 km/h (0 Bft)
02.02.2025 18:56 22,2 °C -1,4 °C 53 % 85 % 1026,9 hPa 0,0 l/m² 0,0 km/h (0 Bft) O 94 ° 0 min 0 W/m² -3,6 °C -1,4 °C 0,0 km/h (0 Bft)
02.02.2025 18:58 22,2 °C -1,4 °C 53 % 85 % 1026,9 hPa 0,0 l/m² 0,0 km/h (0 Bft) O 94 ° 0 min 0 W/m² -3,6 °C -1,4 °C 0,0 km/h (0 Bft)
02.02.2025 19:00 22,2 °C -1,4 °C 53 % 86 % 1026,9 hPa 0,0 l/m² 0,0 km/h (0 Bft) O 94 ° 0 min 0 W/m² -3,4 °C -1,4 °C 0,0 km/h (0 Bft)
02.02.2025 19:01 22,2 °C -1,4 °C 53 % 86 % 1026,9 hPa 0,0 l/m² 0,0 km/h (0 Bft) O 94 ° 0 min 0 W/m² -3,4 °C -1,4 °C 0,0 km/h (0 Bft)
02.02.2025 19:02 22,2 °C -1,4 °C 53 % 86 % 1026,9 hPa 0,0 l/m² 0,0 km/h (0 Bft) O 94 ° 0 min 0 W/m² -3,4 °C -1,4 °C 0,0 km/h (0 Bft)
02.02.2025 19:03 22,2 °C -1,4 °C 53 % 86 % 1026,9 hPa 0,0 l/m² 0,0 km/h (0 Bft) O 94 ° 0 min 0 W/m² -3,4 °C -1,4 °C 0,0 km/h (0 Bft)
02.02.2025 19:05 22,2 °C -1,4 °C 53 % 86 % 1026,8 hPa 0,0 l/m² 0,0 km/h (0 Bft) O 94 ° 0 min 0 W/m² -3,4 °C -1,4 °C 0,0 km/h (0 Bft)
02.02.2025 19:07 22,2 °C -1,5 °C 53 % 86 % 1027,0 hPa 0,0 l/m² 0,0 km/h (0 Bft) O 94 ° 0 min 0 W/m² -3,5 °C -1,5 °C 0,0 km/h (0 Bft)
02.02.2025 19:09 22,2 °C -1,7 °C 53 % 86 % 1026,9 hPa 0,0 l/m² 0,0 km/h (0 Bft) O 94 ° 0 min 0 W/m² -3,7 °C -1,7 °C 0,0 km/h (0 Bft)
02.02.2025 19:11 22,2 °C -1,7 °C 53 % 86 % 1026,9 hPa 0,0 l/m² 0,0 km/h (0 Bft) O 94 ° 0 min 0 W/m² -3,7 °C -1,7 °C 0,0 km/h (0 Bft)
02.02.2025 19:12 22,2 °C -1,8 °C 53 % 86 % 1026,9 hPa 0,0 l/m² 0,0 km/h (0 Bft) O 94 ° 0 min 0 W/m² -3,8 °C -1,8 °C 0,0 km/h (0 Bft)
02.02.2025 19:13 22,2 °C -1,8 °C 53 % 86 % 1026,9 hPa 0,0 l/m² 0,0 km/h (0 Bft) O 94 ° 0 min 0 W/m² -3,8 °C -1,8 °C 0,0 km/h (0 Bft)
02.02.2025 19:14 22,2 °C -1,8 °C 53 % 86 % 1027,0 hPa 0,0 l/m² 0,0 km/h (0 Bft) O 94 ° 0 min 0 W/m² -3,8 °C -1,8 °C 0,0 km/h (0 Bft)
02.02.2025 19:16 22,2 °C -1,8 °C 54 % 86 % 1026,9 hPa 0,0 l/m² 0,0 km/h (0 Bft) O 94 ° 0 min 0 W/m² -3,8 °C -1,8 °C 0,0 km/h (0 Bft)
02.02.2025 19:18 22,2 °C -1,8 °C 53 % 86 % 1027,0 hPa 0,0 l/m² 0,0 km/h (0 Bft) O 94 ° 0 min 0 W/m² -3,8 °C -1,8 °C 0,0 km/h (0 Bft)
02.02.2025 19:20 22,2 °C -1,8 °C 53 % 86 % 1027,1 hPa 0,0 l/m² 0,0 km/h (0 Bft) O 94 ° 0 min 0 W/m² -3,8 °C -1,8 °C 0,0 km/h (0 Bft)
02.02.2025 19:21 22,2 °C -1,8 °C 53 % 86 % 1027,1 hPa 0,0 l/m² 0,0 km/h (0 Bft) O 94 ° 0 min 0 W/m² -3,8 °C -1,8 °C 0,0 km/h (0 Bft)
02.02.2025 19:22 22,2 °C -1,8 °C 53 % 87 % 1027,1 hPa 0,0 l/m² 0,0 km/h (0 Bft) O 94 ° 0 min 0 W/m² -3,7 °C -1,8 °C 0,0 km/h (0 Bft)
02.02.2025 19:23 22,2 °C -1,8 °C 53 % 87 % 1027,1 hPa 0,0 l/m² 0,0 km/h (0 Bft) O 94 ° 0 min 0 W/m² -3,7 °C -1,8 °C 0,0 km/h (0 Bft)
02.02.2025 19:25 22,2 °C -1,8 °C 54 % 86 % 1027,1 hPa 0,0 l/m² 0,0 km/h (0 Bft) O 94 ° 0 min 0 W/m² -3,8 °C -1,8 °C 0,0 km/h (0 Bft)
02.02.2025 19:26 22,2 °C -1,8 °C 53 % 87 % 1027,2 hPa 0,0 l/m² 0,0 km/h (0 Bft) O 94 ° 0 min 0 W/m² -3,7 °C -1,8 °C 0,0 km/h (0 Bft)
02.02.2025 19:27 22,2 °C -1,8 °C 53 % 87 % 1027,2 hPa 0,0 l/m² 0,0 km/h (0 Bft) O 94 ° 0 min 0 W/m² -3,7 °C -1,8 °C 0,0 km/h (0 Bft)
02.02.2025 19:29 22,2 °C -1,8 °C 54 % 87 % 1027,2 hPa 0,0 l/m² 0,0 km/h (0 Bft) O 94 ° 0 min 0 W/m² -3,7 °C -1,8 °C 0,0 km/h (0 Bft)
02.02.2025 19:31 22,2 °C -1,8 °C 54 % 86 % 1027,1 hPa 0,0 l/m² 0,0 km/h (0 Bft) O 94 ° 0 min 0 W/m² -3,8 °C -1,8 °C 0,0 km/h (0 Bft)
02.02.2025 19:32 22,2 °C -1,8 °C 54 % 86 % 1027,2 hPa 0,0 l/m² 0,0 km/h (0 Bft) O 94 ° 0 min 0 W/m² -3,8 °C -1,8 °C 0,0 km/h (0 Bft)
02.02.2025 19:33 22,2 °C -1,9 °C 54 % 86 % 1027,2 hPa 0,0 l/m² 0,0 km/h (0 Bft) O 94 ° 0 min 0 W/m² -3,9 °C -1,9 °C 0,0 km/h (0 Bft)
02.02.2025 19:34 22,2 °C -1,9 °C 54 % 87 % 1027,2 hPa 0,0 l/m² 0,0 km/h (0 Bft) O 94 ° 0 min 0 W/m² -3,8 °C -1,9 °C 0,0 km/h (0 Bft)
02.02.2025 19:36 22,2 °C -1,9 °C 54 % 87 % 1027,1 hPa 0,0 l/m² 0,0 km/h (0 Bft) O 94 ° 0 min 0 W/m² -3,8 °C -1,9 °C 0,0 km/h (0 Bft)
02.02.2025 19:38 22,2 °C -1,9 °C 54 % 87 % 1027,1 hPa 0,0 l/m² 0,0 km/h (0 Bft) O 94 ° 0 min 0 W/m² -3,8 °C -1,9 °C 0,0 km/h (0 Bft)
02.02.2025 19:40 22,2 °C -2,0 °C 54 % 87 % 1027,0 hPa 0,0 l/m² 0,0 km/h (0 Bft) O 94 ° 0 min 0 W/m² -3,9 °C -2,0 °C 0,0 km/h (0 Bft)
02.02.2025 19:41 22,2 °C -1,9 °C 54 % 87 % 1027,0 hPa 0,0 l/m² 0,0 km/h (0 Bft) O 94 ° 0 min 0 W/m² -3,8 °C -1,9 °C 0,0 km/h (0 Bft)
02.02.2025 19:42 22,2 °C -1,9 °C 54 % 87 % 1027,0 hPa 0,0 l/m² 0,0 km/h (0 Bft) O 94 ° 0 min 0 W/m² -3,8 °C -1,9 °C 0,0 km/h (0 Bft)
02.02.2025 19:43 22,2 °C -1,9 °C 54 % 87 % 1027,1 hPa 0,0 l/m² 0,0 km/h (0 Bft) O 94 ° 0 min 0 W/m² -3,8 °C -1,9 °C 0,0 km/h (0 Bft)
02.02.2025 19:45 22,2 °C -1,9 °C 54 % 87 % 1027,1 hPa 0,0 l/m² 0,0 km/h (0 Bft) O 94 ° 0 min 0 W/m² -3,8 °C -1,9 °C 0,0 km/h (0 Bft)
02.02.2025 19:47 22,2 °C -1,9 °C 54 % 88 % 1027,0 hPa 0,0 l/m² 0,0 km/h (0 Bft) O 94 ° 0 min 0 W/m² -3,6 °C -1,9 °C 0,0 km/h (0 Bft)
02.02.2025 19:49 22,2 °C -1,9 °C 53 % 87 % 1027,1 hPa 0,0 l/m² 0,0 km/h (0 Bft) O 94 ° 0 min 0 W/m² -3,8 °C -1,9 °C 0,0 km/h (0 Bft)
02.02.2025 19:50 22,2 °C -1,9 °C 54 % 87 % 1027,1 hPa 0,0 l/m² 0,0 km/h (0 Bft) O 94 ° 0 min 0 W/m² -3,8 °C -1,9 °C 0,0 km/h (0 Bft)
02.02.2025 19:52 22,2 °C -2,0 °C 54 % 87 % 1027,1 hPa 0,0 l/m² 0,0 km/h (0 Bft) O 94 ° 0 min 0 W/m² -3,9 °C -2,0 °C 0,0 km/h (0 Bft)
02.02.2025 19:53 22,2 °C -2,0 °C 54 % 87 % 1027,1 hPa 0,0 l/m² 0,0 km/h (0 Bft) O 94 ° 0 min 0 W/m² -3,9 °C -2,0 °C 0,0 km/h (0 Bft)
02.02.2025 19:54 22,2 °C -2,1 °C 54 % 88 % 1027,1 hPa 0,0 l/m² 0,0 km/h (0 Bft) O 94 ° 0 min 0 W/m² -3,8 °C -2,1 °C 0,0 km/h (0 Bft)
02.02.2025 19:56 22,2 °C -2,1 °C 54 % 88 % 1027,2 hPa 0,0 l/m² 0,0 km/h (0 Bft) O 94 ° 0 min 0 W/m² -3,8 °C -2,1 °C 0,0 km/h (0 Bft)
02.02.2025 19:58 22,2 °C -2,2 °C 54 % 88 % 1027,1 hPa 0,0 l/m² 0,0 km/h (0 Bft) O 94 ° 0 min 0 W/m² -3,9 °C -2,2 °C 0,0 km/h (0 Bft)
02.02.2025 20:00 22,2 °C -2,2 °C 54 % 87 % 1027,1 hPa 0,0 l/m² 0,0 km/h (0 Bft) O 94 ° 0 min 0 W/m² -4,1 °C -2,2 °C 0,0 km/h (0 Bft)
02.02.2025 20:01 22,2 °C -2,2 °C 54 % 88 % 1027,1 hPa 0,0 l/m² 0,0 km/h (0 Bft) O 94 ° 0 min 0 W/m² -3,9 °C -2,2 °C 0,0 km/h (0 Bft)
02.02.2025 20:02 22,2 °C -2,2 °C 54 % 88 % 1027,1 hPa 0,0 l/m² 0,0 km/h (0 Bft) O 94 ° 0 min 0 W/m² -3,9 °C -2,2 °C 0,0 km/h (0 Bft)
02.02.2025 20:03 22,2 °C -2,2 °C 54 % 88 % 1027,1 hPa 0,0 l/m² 0,0 km/h (0 Bft) O 94 ° 0 min 0 W/m² -3,9 °C -2,2 °C 0,0 km/h (0 Bft)
02.02.2025 20:04 22,2 °C -2,2 °C 54 % 88 % 1027,1 hPa 0,0 l/m² 0,0 km/h (0 Bft) O 94 ° 0 min 0 W/m² -3,9 °C -2,2 °C 0,0 km/h (0 Bft)
02.02.2025 20:06 22,2 °C -2,2 °C 54 % 88 % 1027,1 hPa 0,0 l/m² 0,0 km/h (0 Bft) O 94 ° 0 min 0 W/m² -3,9 °C -2,2 °C 0,0 km/h (0 Bft)
02.02.2025 20:08 22,2 °C -2,3 °C 54 % 88 % 1027,1 hPa 0,0 l/m² 0,0 km/h (0 Bft) O 94 ° 0 min 0 W/m² -4,0 °C -2,3 °C 0,0 km/h (0 Bft)
02.02.2025 20:10 22,2 °C -2,3 °C 54 % 88 % 1027,1 hPa 0,0 l/m² 0,0 km/h (0 Bft) O 94 ° 0 min 0 W/m² -4,0 °C -2,3 °C 0,0 km/h (0 Bft)
02.02.2025 20:11 22,2 °C -2,3 °C 54 % 88 % 1027,1 hPa 0,0 l/m² 0,0 km/h (0 Bft) O 94 ° 0 min 0 W/m² -4,0 °C -2,3 °C 0,0 km/h (0 Bft)
02.02.2025 20:13 22,2 °C -2,4 °C 54 % 88 % 1027,0 hPa 0,0 l/m² 0,0 km/h (0 Bft) O 94 ° 0 min 0 W/m² -4,1 °C -2,4 °C 0,0 km/h (0 Bft)
02.02.2025 20:15 22,2 °C -2,3 °C 55 % 88 % 1026,9 hPa 0,0 l/m² 0,0 km/h (0 Bft) O 94 ° 0 min 0 W/m² -4,0 °C -2,3 °C 0,0 km/h (0 Bft)
02.02.2025 20:17 22,2 °C -2,4 °C 55 % 88 % 1026,9 hPa 0,0 l/m² 0,0 km/h (0 Bft) O 94 ° 0 min 0 W/m² -4,1 °C -2,4 °C 0,0 km/h (0 Bft)
02.02.2025 20:19 22,2 °C -2,5 °C 55 % 88 % 1027,0 hPa 0,0 l/m² 0,0 km/h (0 Bft) O 94 ° 0 min 0 W/m² -4,2 °C -2,5 °C 0,0 km/h (0 Bft)
02.02.2025 20:20 22,2 °C -2,5 °C 55 % 88 % 1027,0 hPa 0,0 l/m² 0,0 km/h (0 Bft) O 94 ° 0 min 0 W/m² -4,2 °C -2,5 °C 0,0 km/h (0 Bft)
02.02.2025 20:21 22,2 °C -2,4 °C 55 % 88 % 1027,0 hPa 0,0 l/m² 0,0 km/h (0 Bft) O 94 ° 0 min 0 W/m² -4,1 °C -2,4 °C 0,0 km/h (0 Bft)
02.02.2025 20:23 22,2 °C -2,5 °C 55 % 88 % 1027,0 hPa 0,0 l/m² 0,0 km/h (0 Bft) O 94 ° 0 min 0 W/m² -4,2 °C -2,5 °C 0,0 km/h (0 Bft)
02.02.2025 20:25 22,2 °C -2,5 °C 55 % 88 % 1026,9 hPa 0,0 l/m² 0,0 km/h (0 Bft) O 94 ° 0 min 0 W/m² -4,2 °C -2,5 °C 0,0 km/h (0 Bft)
02.02.2025 20:26 22,2 °C -2,6 °C 55 % 88 % 1027,0 hPa 0,0 l/m² 0,0 km/h (0 Bft) O 94 ° 0 min 0 W/m² -4,3 °C -2,6 °C 0,0 km/h (0 Bft)
02.02.2025 20:28 22,2 °C -2,6 °C 55 % 88 % 1027,0 hPa 0,0 l/m² 0,0 km/h (0 Bft) O 94 ° 0 min 0 W/m² -4,3 °C -2,6 °C 0,0 km/h (0 Bft)
02.02.2025 20:30 22,2 °C -2,5 °C 55 % 88 % 1027,1 hPa 0,0 l/m² 0,0 km/h (0 Bft) O 94 ° 0 min 0 W/m² -4,2 °C -2,5 °C 0,0 km/h (0 Bft)
02.02.2025 20:31 22,2 °C -2,5 °C 55 % 88 % 1027,0 hPa 0,0 l/m² 0,0 km/h (0 Bft) O 94 ° 0 min 0 W/m² -4,2 °C -2,5 °C 0,0 km/h (0 Bft)
02.02.2025 20:33 22,2 °C -2,5 °C 55 % 88 % 1027,0 hPa 0,0 l/m² 0,0 km/h (0 Bft) O 94 ° 0 min 0 W/m² -4,2 °C -2,5 °C 0,0 km/h (0 Bft)
02.02.2025 20:35 22,2 °C -2,5 °C 55 % 88 % 1027,1 hPa 0,0 l/m² 0,0 km/h (0 Bft) O 94 ° 0 min 0 W/m² -4,2 °C -2,5 °C 0,0 km/h (0 Bft)
02.02.2025 20:36 22,2 °C -2,5 °C 55 % 88 % 1027,2 hPa 0,0 l/m² 0,0 km/h (0 Bft) O 94 ° 0 min 0 W/m² -4,2 °C -2,5 °C 0,0 km/h (0 Bft)
02.02.2025 20:37 22,2 °C -2,5 °C 55 % 88 % 1027,2 hPa 0,0 l/m² 0,0 km/h (0 Bft) O 94 ° 0 min 0 W/m² -4,2 °C -2,5 °C 0,0 km/h (0 Bft)
02.02.2025 20:38 22,2 °C -2,5 °C 55 % 88 % 1027,3 hPa 0,0 l/m² 0,0 km/h (0 Bft) O 94 ° 0 min 0 W/m² -4,2 °C -2,5 °C 0,0 km/h (0 Bft)
02.02.2025 20:39 22,2 °C -2,5 °C 55 % 88 % 1027,2 hPa 0,0 l/m² 0,0 km/h (0 Bft) O 94 ° 0 min 0 W/m² -4,2 °C -2,5 °C 0,0 km/h (0 Bft)
02.02.2025 20:40 22,2 °C -2,6 °C 55 % 88 % 1027,2 hPa 0,0 l/m² 0,0 km/h (0 Bft) O 94 ° 0 min 0 W/m² -4,3 °C -2,6 °C 0,0 km/h (0 Bft)
02.02.2025 20:41 22,2 °C -2,6 °C 55 % 88 % 1027,2 hPa 0,0 l/m² 0,0 km/h (0 Bft) O 94 ° 0 min 0 W/m² -4,3 °C -2,6 °C 0,0 km/h (0 Bft)
02.02.2025 20:42 22,2 °C -2,6 °C 55 % 88 % 1027,1 hPa 0,0 l/m² 0,0 km/h (0 Bft) O 94 ° 0 min 0 W/m² -4,3 °C -2,6 °C 0,0 km/h (0 Bft)
02.02.2025 20:43 22,2 °C -2,6 °C 55 % 88 % 1027,1 hPa 0,0 l/m² 0,0 km/h (0 Bft) O 94 ° 0 min 0 W/m² -4,3 °C -2,6 °C 0,0 km/h (0 Bft)
02.02.2025 20:44 22,2 °C -2,6 °C 55 % 88 % 1027,1 hPa 0,0 l/m² 0,0 km/h (0 Bft) O 94 ° 0 min 0 W/m² -4,3 °C -2,6 °C 0,0 km/h (0 Bft)
02.02.2025 20:45 22,2 °C -2,6 °C 55 % 88 % 1027,1 hPa 0,0 l/m² 0,0 km/h (0 Bft) O 94 ° 0 min 0 W/m² -4,3 °C -2,6 °C 0,0 km/h (0 Bft)
02.02.2025 20:46 22,2 °C -2,6 °C 55 % 88 % 1027,2 hPa 0,0 l/m² 0,0 km/h (0 Bft) O 94 ° 0 min 0 W/m² -4,3 °C -2,6 °C 0,0 km/h (0 Bft)
02.02.2025 20:47 22,2 °C -2,5 °C 55 % 88 % 1027,1 hPa 0,0 l/m² 0,0 km/h (0 Bft) O 94 ° 0 min 0 W/m² -4,2 °C -2,5 °C 0,0 km/h (0 Bft)
02.02.2025 20:48 22,2 °C -2,5 °C 55 % 89 % 1027,2 hPa 0,0 l/m² 0,0 km/h (0 Bft) O 94 ° 0 min 0 W/m² -4,1 °C -2,5 °C 0,0 km/h (0 Bft)
02.02.2025 20:49 22,2 °C -2,5 °C 55 % 89 % 1027,1 hPa 0,0 l/m² 0,0 km/h (0 Bft) O 94 ° 0 min 0 W/m² -4,1 °C -2,5 °C 0,0 km/h (0 Bft)
02.02.2025 20:50 22,2 °C -2,5 °C 55 % 89 % 1027,2 hPa 0,0 l/m² 0,0 km/h (0 Bft) O 94 ° 0 min 0 W/m² -4,1 °C -2,5 °C 0,0 km/h (0 Bft)
02.02.2025 20:51 22,2 °C -2,5 °C 55 % 89 % 1027,1 hPa 0,0 l/m² 0,0 km/h (0 Bft) O 94 ° 0 min 0 W/m² -4,1 °C -2,5 °C 0,0 km/h (0 Bft)
02.02.2025 20:52 22,2 °C -2,5 °C 55 % 88 % 1027,1 hPa 0,0 l/m² 0,0 km/h (0 Bft) O 94 ° 0 min 0 W/m² -4,2 °C -2,5 °C 0,0 km/h (0 Bft)
02.02.2025 20:53 22,2 °C -2,5 °C 55 % 88 % 1027,1 hPa 0,0 l/m² 0,0 km/h (0 Bft) O 94 ° 0 min 0 W/m² -4,2 °C -2,5 °C 0,0 km/h (0 Bft)
02.02.2025 20:54 22,2 °C -2,5 °C 55 % 88 % 1027,1 hPa 0,0 l/m² 0,0 km/h (0 Bft) O 94 ° 0 min 0 W/m² -4,2 °C -2,5 °C 0,0 km/h (0 Bft)
02.02.2025 20:56 22,2 °C -2,6 °C 55 % 88 % 1027,1 hPa 0,0 l/m² 0,0 km/h (0 Bft) O 94 ° 0 min 0 W/m² -4,3 °C -2,6 °C 0,0 km/h (0 Bft)
02.02.2025 20:57 22,2 °C -2,6 °C 55 % 88 % 1027,1 hPa 0,0 l/m² 0,0 km/h (0 Bft) O 94 ° 0 min 0 W/m² -4,3 °C -2,6 °C 0,0 km/h (0 Bft)
02.02.2025 20:58 22,2 °C -2,6 °C 55 % 88 % 1027,1 hPa 0,0 l/m² 0,0 km/h (0 Bft) O 94 ° 0 min 0 W/m² -4,3 °C -2,6 °C 0,0 km/h (0 Bft)
02.02.2025 20:59 22,2 °C -2,7 °C 55 % 88 % 1027,1 hPa 0,0 l/m² 0,0 km/h (0 Bft) O 94 ° 0 min 0 W/m² -4,4 °C -2,7 °C 0,0 km/h (0 Bft)
02.02.2025 21:00 22,2 °C -2,7 °C 55 % 88 % 1027,2 hPa 0,0 l/m² 0,0 km/h (0 Bft) O 94 ° 0 min 0 W/m² -4,4 °C -2,7 °C 0,0 km/h (0 Bft)
02.02.2025 21:01 22,2 °C -2,7 °C 55 % 88 % 1027,2 hPa 0,0 l/m² 0,0 km/h (0 Bft) O 94 ° 0 min 0 W/m² -4,4 °C -2,7 °C 0,0 km/h (0 Bft)
02.02.2025 21:02 22,2 °C -2,8 °C 55 % 88 % 1027,2 hPa 0,0 l/m² 0,0 km/h (0 Bft) O 94 ° 0 min 0 W/m² -4,5 °C -2,8 °C 0,0 km/h (0 Bft)
02.02.2025 21:03 22,3 °C -2,8 °C 55 % 88 % 1027,3 hPa 0,0 l/m² 0,0 km/h (0 Bft) O 94 ° 0 min 0 W/m² -4,5 °C -2,8 °C 0,0 km/h (0 Bft)
02.02.2025 21:04 22,3 °C -2,8 °C 55 % 89 % 1027,3 hPa 0,0 l/m² 0,0 km/h (0 Bft) O 94 ° 0 min 0 W/m² -4,4 °C -2,8 °C 0,0 km/h (0 Bft)
02.02.2025 21:05 22,3 °C -2,8 °C 55 % 89 % 1027,3 hPa 0,0 l/m² 0,0 km/h (0 Bft) O 94 ° 0 min 0 W/m² -4,4 °C -2,8 °C 0,0 km/h (0 Bft)
02.02.2025 21:06 22,3 °C -2,8 °C 55 % 89 % 1027,3 hPa 0,0 l/m² 0,0 km/h (0 Bft) O 94 ° 0 min 0 W/m² -4,4 °C -2,8 °C 0,0 km/h (0 Bft)
02.02.2025 21:07 22,3 °C -2,8 °C 55 % 89 % 1027,3 hPa 0,0 l/m² 0,0 km/h (0 Bft) O 94 ° 0 min 0 W/m² -4,4 °C -2,8 °C 0,0 km/h (0 Bft)
02.02.2025 21:08 22,3 °C -2,8 °C 55 % 89 % 1027,3 hPa 0,0 l/m² 0,0 km/h (0 Bft) O 94 ° 0 min 0 W/m² -4,4 °C -2,8 °C 0,0 km/h (0 Bft)
02.02.2025 21:09 22,3 °C -2,8 °C 55 % 89 % 1027,4 hPa 0,0 l/m² 0,0 km/h (0 Bft) O 94 ° 0 min 0 W/m² -4,4 °C -2,8 °C 0,0 km/h (0 Bft)
02.02.2025 21:10 22,3 °C -2,8 °C 55 % 89 % 1027,3 hPa 0,0 l/m² 0,0 km/h (0 Bft) O 94 ° 0 min 0 W/m² -4,4 °C -2,8 °C 0,0 km/h (0 Bft)
02.02.2025 21:11 22,3 °C -2,8 °C 54 % 88 % 1027,3 hPa 0,0 l/m² 0,0 km/h (0 Bft) O 94 ° 0 min 0 W/m² -4,5 °C -2,8 °C 0,0 km/h (0 Bft)
02.02.2025 21:12 22,3 °C -2,8 °C 54 % 89 % 1027,4 hPa 0,0 l/m² 0,0 km/h (0 Bft) O 94 ° 0 min 0 W/m² -4,4 °C -2,8 °C 0,0 km/h (0 Bft)
02.02.2025 21:13 22,3 °C -2,9 °C 54 % 88 % 1027,3 hPa 0,0 l/m² 0,0 km/h (0 Bft) O 94 ° 0 min 0 W/m² -4,6 °C -2,9 °C 0,0 km/h (0 Bft)
02.02.2025 21:14 22,3 °C -2,9 °C 54 % 89 % 1027,4 hPa 0,0 l/m² 0,0 km/h (0 Bft) O 94 ° 0 min 0 W/m² -4,5 °C -2,9 °C 0,0 km/h (0 Bft)
02.02.2025 21:15 22,3 °C -2,9 °C 54 % 88 % 1027,3 hPa 0,0 l/m² 0,0 km/h (0 Bft) O 94 ° 0 min 0 W/m² -4,6 °C -2,9 °C 0,0 km/h (0 Bft)
02.02.2025 21:16 22,3 °C -3,0 °C 54 % 88 % 1027,4 hPa 0,0 l/m² 0,0 km/h (0 Bft) O 94 ° 0 min 0 W/m² -4,7 °C -3,0 °C 0,0 km/h (0 Bft)
02.02.2025 21:17 22,3 °C -3,1 °C 54 % 88 % 1027,3 hPa 0,0 l/m² 0,0 km/h (0 Bft) O 94 ° 0 min 0 W/m² -4,8 °C -3,1 °C 0,0 km/h (0 Bft)
02.02.2025 21:18 22,3 °C -3,2 °C 54 % 88 % 1027,3 hPa 0,0 l/m² 0,0 km/h (0 Bft) O 94 ° 0 min 0 W/m² -4,9 °C -3,2 °C 0,0 km/h (0 Bft)
02.02.2025 21:19 22,3 °C -3,2 °C 54 % 88 % 1027,4 hPa 0,0 l/m² 0,0 km/h (0 Bft) O 94 ° 0 min 0 W/m² -4,9 °C -3,2 °C 0,0 km/h (0 Bft)
02.02.2025 21:20 22,3 °C -3,3 °C 54 % 88 % 1027,4 hPa 0,0 l/m² 0,0 km/h (0 Bft) O 94 ° 0 min 0 W/m² -5,0 °C -3,3 °C 0,0 km/h (0 Bft)
02.02.2025 21:21 22,3 °C -3,2 °C 54 % 89 % 1027,3 hPa 0,0 l/m² 0,0 km/h (0 Bft) O 94 ° 0 min 0 W/m² -4,7 °C -3,2 °C 0,0 km/h (0 Bft)
02.02.2025 21:22 22,3 °C -3,2 °C 54 % 89 % 1027,4 hPa 0,0 l/m² 0,0 km/h (0 Bft) O 94 ° 0 min 0 W/m² -4,7 °C -3,2 °C 0,0 km/h (0 Bft)
02.02.2025 21:23 22,3 °C -3,2 °C 54 % 89 % 1027,3 hPa 0,0 l/m² 0,0 km/h (0 Bft) O 94 ° 0 min 0 W/m² -4,7 °C -3,2 °C 0,0 km/h (0 Bft)
02.02.2025 21:24 22,3 °C -3,2 °C 54 % 89 % 1027,3 hPa 0,0 l/m² 0,0 km/h (0 Bft) O 94 ° 0 min 0 W/m² -4,7 °C -3,2 °C 0,0 km/h (0 Bft)
02.02.2025 21:25 22,3 °C -3,1 °C 54 % 89 % 1027,3 hPa 0,0 l/m² 0,0 km/h (0 Bft) O 94 ° 0 min 0 W/m² -4,6 °C -3,1 °C 0,0 km/h (0 Bft)
02.02.2025 21:26 22,3 °C -3,1 °C 54 % 89 % 1027,4 hPa 0,0 l/m² 0,0 km/h (0 Bft) O 94 ° 0 min 0 W/m² -4,6 °C -3,1 °C 0,0 km/h (0 Bft)
02.02.2025 21:27 22,3 °C -3,1 °C 54 % 89 % 1027,3 hPa 0,0 l/m² 0,0 km/h (0 Bft) O 94 ° 0 min 0 W/m² -4,6 °C -3,1 °C 0,0 km/h (0 Bft)
02.02.2025 21:28 22,3 °C -3,1 °C 54 % 89 % 1027,3 hPa 0,0 l/m² 0,0 km/h (0 Bft) O 94 ° 0 min 0 W/m² -4,6 °C -3,1 °C 0,0 km/h (0 Bft)
02.02.2025 21:29 22,3 °C -3,1 °C 54 % 89 % 1027,3 hPa 0,0 l/m² 0,0 km/h (0 Bft) O 94 ° 0 min 0 W/m² -4,6 °C -3,1 °C 0,0 km/h (0 Bft)
02.02.2025 21:30 22,3 °C -3,1 °C 54 % 90 % 1027,3 hPa 0,0 l/m² 0,0 km/h (0 Bft) O 94 ° 0 min 0 W/m² -4,5 °C -3,1 °C 0,0 km/h (0 Bft)
02.02.2025 21:31 22,3 °C -2,9 °C 54 % 90 % 1027,3 hPa 0,0 l/m² 0,0 km/h (0 Bft) O 94 ° 0 min 0 W/m² -4,3 °C -2,9 °C 0,0 km/h (0 Bft)
02.02.2025 21:32 22,3 °C -3,0 °C 54 % 89 % 1027,3 hPa 0,0 l/m² 0,0 km/h (0 Bft) O 94 ° 0 min 0 W/m² -4,6 °C -3,0 °C 0,0 km/h (0 Bft)
02.02.2025 21:33 22,3 °C -3,0 °C 54 % 89 % 1027,4 hPa 0,0 l/m² 0,0 km/h (0 Bft) O 94 ° 0 min 0 W/m² -4,6 °C -3,0 °C 0,0 km/h (0 Bft)
02.02.2025 21:34 22,3 °C -2,9 °C 54 % 90 % 1027,4 hPa 0,0 l/m² 0,0 km/h (0 Bft) O 94 ° 0 min 0 W/m² -4,3 °C -2,9 °C 0,0 km/h (0 Bft)
02.02.2025 21:35 22,3 °C -2,9 °C 54 % 89 % 1027,4 hPa 0,0 l/m² 0,0 km/h (0 Bft) O 94 ° 0 min 0 W/m² -4,5 °C -2,9 °C 0,0 km/h (0 Bft)
02.02.2025 21:36 22,3 °C -3,0 °C 54 % 89 % 1027,4 hPa 0,0 l/m² 0,0 km/h (0 Bft) O 94 ° 0 min 0 W/m² -4,6 °C -3,0 °C 0,0 km/h (0 Bft)
02.02.2025 21:37 22,3 °C -3,0 °C 54 % 89 % 1027,4 hPa 0,0 l/m² 0,0 km/h (0 Bft) O 94 ° 0 min 0 W/m² -4,6 °C -3,0 °C 0,0 km/h (0 Bft)
02.02.2025 21:38 22,3 °C -3,0 °C 54 % 89 % 1027,3 hPa 0,0 l/m² 0,0 km/h (0 Bft) O 94 ° 0 min 0 W/m² -4,6 °C -3,0 °C 0,0 km/h (0 Bft)
02.02.2025 21:39 22,3 °C -3,1 °C 54 % 89 % 1027,4 hPa 0,0 l/m² 0,0 km/h (0 Bft) O 94 ° 0 min 0 W/m² -4,6 °C -3,1 °C 0,0 km/h (0 Bft)
02.02.2025 21:40 22,3 °C -3,0 °C 54 % 90 % 1027,4 hPa 0,0 l/m² 0,0 km/h (0 Bft) O 94 ° 0 min 0 W/m² -4,4 °C -3,0 °C 0,0 km/h (0 Bft)
02.02.2025 21:41 22,3 °C -3,1 °C 54 % 90 % 1027,4 hPa 0,0 l/m² 0,0 km/h (0 Bft) O 94 ° 0 min 0 W/m² -4,5 °C -3,1 °C 0,0 km/h (0 Bft)
02.02.2025 21:42 22,3 °C -3,1 °C 54 % 90 % 1027,4 hPa 0,0 l/m² 0,0 km/h (0 Bft) O 94 ° 0 min 0 W/m² -4,5 °C -3,1 °C 0,0 km/h (0 Bft)
02.02.2025 21:43 22,3 °C -3,1 °C 54 % 90 % 1027,4 hPa 0,0 l/m² 0,0 km/h (0 Bft) O 94 ° 0 min 0 W/m² -4,5 °C -3,1 °C 0,0 km/h (0 Bft)
02.02.2025 21:44 22,3 °C -3,1 °C 54 % 90 % 1027,5 hPa 0,0 l/m² 0,0 km/h (0 Bft) O 94 ° 0 min 0 W/m² -4,5 °C -3,1 °C 0,0 km/h (0 Bft)
02.02.2025 21:45 22,3 °C -3,1 °C 54 % 90 % 1027,6 hPa 0,0 l/m² 0,0 km/h (0 Bft) O 94 ° 0 min 0 W/m² -4,5 °C -3,1 °C 0,0 km/h (0 Bft)
02.02.2025 21:46 22,3 °C -3,1 °C 54 % 90 % 1027,6 hPa 0,0 l/m² 0,1 km/h (0 Bft) O 94 ° 0 min 0 W/m² -4,5 °C -3,1 °C 1,6 km/h (1 Bft)
02.02.2025 21:47 22,3 °C -3,2 °C 54 % 90 % 1027,5 hPa 0,0 l/m² 1,7 km/h (1 Bft) O 94 ° 0 min 0 W/m² -4,6 °C -3,2 °C 3,2 km/h (1 Bft)
02.02.2025 21:48 22,4 °C -3,2 °C 54 % 90 % 1027,6 hPa 0,0 l/m² 0,6 km/h (0 Bft) O 94 ° 0 min 0 W/m² -4,6 °C -3,2 °C 1,6 km/h (1 Bft)
02.02.2025 21:49 22,3 °C -3,2 °C 54 % 90 % 1027,5 hPa 0,0 l/m² 0,0 km/h (0 Bft) O 94 ° 0 min 0 W/m² -4,6 °C -3,2 °C 0,0 km/h (0 Bft)
02.02.2025 21:50 22,3 °C -3,2 °C 54 % 89 % 1027,5 hPa 0,0 l/m² 0,0 km/h (0 Bft) O 94 ° 0 min 0 W/m² -4,7 °C -3,2 °C 0,0 km/h (0 Bft)
02.02.2025 21:52 22,4 °C -3,2 °C 54 % 89 % 1027,6 hPa 0,0 l/m² 0,0 km/h (0 Bft) O 94 ° 0 min 0 W/m² -4,7 °C -3,2 °C 0,0 km/h (0 Bft)
02.02.2025 21:53 22,4 °C -3,2 °C 54 % 90 % 1027,6 hPa 0,0 l/m² 0,0 km/h (0 Bft) O 94 ° 0 min 0 W/m² -4,6 °C -3,2 °C 0,0 km/h (0 Bft)
02.02.2025 21:54 22,4 °C -3,3 °C 54 % 89 % 1027,6 hPa 0,0 l/m² 0,0 km/h (0 Bft) O 94 ° 0 min 0 W/m² -4,8 °C -3,3 °C 0,0 km/h (0 Bft)
02.02.2025 21:55 22,4 °C -3,3 °C 54 % 89 % 1027,5 hPa 0,0 l/m² 0,0 km/h (0 Bft) O 94 ° 0 min 0 W/m² -4,8 °C -3,3 °C 0,0 km/h (0 Bft)
02.02.2025 21:56 22,4 °C -3,3 °C 54 % 90 % 1027,5 hPa 0,0 l/m² 0,0 km/h (0 Bft) O 94 ° 0 min 0 W/m² -4,7 °C -3,3 °C 0,0 km/h (0 Bft)
02.02.2025 21:57 22,4 °C -3,3 °C 54 % 90 % 1027,5 hPa 0,0 l/m² 0,0 km/h (0 Bft) O 94 ° 0 min 0 W/m² -4,7 °C -3,3 °C 0,0 km/h (0 Bft)
02.02.2025 21:58 22,4 °C -3,5 °C 54 % 89 % 1027,4 hPa 0,0 l/m² 0,0 km/h (0 Bft) O 94 ° 0 min 0 W/m² -5,0 °C -3,5 °C 0,0 km/h (0 Bft)
02.02.2025 21:59 22,4 °C -3,6 °C 54 % 89 % 1027,4 hPa 0,0 l/m² 0,0 km/h (0 Bft) O 94 ° 0 min 0 W/m² -5,1 °C -3,6 °C 0,0 km/h (0 Bft)
02.02.2025 22:00 22,4 °C -3,6 °C 54 % 89 % 1027,4 hPa 0,0 l/m² 0,0 km/h (0 Bft) O 94 ° 0 min 0 W/m² -5,1 °C -3,6 °C 0,0 km/h (0 Bft)
02.02.2025 22:01 22,4 °C -3,7 °C 53 % 89 % 1027,4 hPa 0,0 l/m² 0,0 km/h (0 Bft) O 94 ° 0 min 0 W/m² -5,2 °C -3,7 °C 0,0 km/h (0 Bft)
02.02.2025 22:02 22,3 °C -3,7 °C 53 % 89 % 1027,4 hPa 0,0 l/m² 0,0 km/h (0 Bft) O 94 ° 0 min 0 W/m² -5,2 °C -3,7 °C 0,0 km/h (0 Bft)
02.02.2025 22:03 22,4 °C -3,7 °C 53 % 89 % 1027,5 hPa 0,0 l/m² 0,0 km/h (0 Bft) O 94 ° 0 min 0 W/m² -5,2 °C -3,7 °C 0,0 km/h (0 Bft)
02.02.2025 22:04 22,4 °C -3,7 °C 53 % 89 % 1027,4 hPa 0,0 l/m² 0,0 km/h (0 Bft) O 94 ° 0 min 0 W/m² -5,2 °C -3,7 °C 0,0 km/h (0 Bft)
02.02.2025 22:05 22,3 °C -3,7 °C 53 % 90 % 1027,4 hPa 0,0 l/m² 0,0 km/h (0 Bft) O 94 ° 0 min 0 W/m² -5,1 °C -3,7 °C 0,0 km/h (0 Bft)
02.02.2025 22:06 22,3 °C -3,7 °C 53 % 90 % 1027,4 hPa 0,0 l/m² 0,0 km/h (0 Bft) O 94 ° 0 min 0 W/m² -5,1 °C -3,7 °C 0,0 km/h (0 Bft)
02.02.2025 22:07 22,3 °C -3,7 °C 53 % 90 % 1027,4 hPa 0,0 l/m² 0,0 km/h (0 Bft) O 94 ° 0 min 0 W/m² -5,1 °C -3,7 °C 0,0 km/h (0 Bft)
02.02.2025 22:08 22,3 °C -3,6 °C 53 % 90 % 1027,4 hPa 0,0 l/m² 0,0 km/h (0 Bft) O 94 ° 0 min 0 W/m² -5,0 °C -3,6 °C 0,0 km/h (0 Bft)
02.02.2025 22:09 22,3 °C -3,7 °C 53 % 90 % 1027,4 hPa 0,0 l/m² 0,0 km/h (0 Bft) O 94 ° 0 min 0 W/m² -5,1 °C -3,7 °C 0,0 km/h (0 Bft)
02.02.2025 22:10 22,3 °C -3,7 °C 53 % 90 % 1027,5 hPa 0,0 l/m² 0,0 km/h (0 Bft) O 94 ° 0 min 0 W/m² -5,1 °C -3,7 °C 0,0 km/h (0 Bft)
02.02.2025 22:11 22,3 °C -3,7 °C 53 % 90 % 1027,5 hPa 0,0 l/m² 0,0 km/h (0 Bft) O 94 ° 0 min 0 W/m² -5,1 °C -3,7 °C 0,0 km/h (0 Bft)
02.02.2025 22:12 22,3 °C -3,7 °C 53 % 90 % 1027,5 hPa 0,0 l/m² 0,0 km/h (0 Bft) O 94 ° 0 min 0 W/m² -5,1 °C -3,7 °C 0,0 km/h (0 Bft)
02.02.2025 22:13 22,3 °C -3,7 °C 53 % 90 % 1027,4 hPa 0,0 l/m² 0,0 km/h (0 Bft) O 94 ° 0 min 0 W/m² -5,1 °C -3,7 °C 0,0 km/h (0 Bft)
02.02.2025 22:14 22,3 °C -3,7 °C 53 % 90 % 1027,4 hPa 0,0 l/m² 0,0 km/h (0 Bft) O 94 ° 0 min 0 W/m² -5,1 °C -3,7 °C 0,0 km/h (0 Bft)
02.02.2025 22:15 22,3 °C -3,7 °C 53 % 90 % 1027,4 hPa 0,0 l/m² 0,0 km/h (0 Bft) O 94 ° 0 min 0 W/m² -5,1 °C -3,7 °C 0,0 km/h (0 Bft)
02.02.2025 22:16 22,3 °C -3,7 °C 53 % 90 % 1027,4 hPa 0,0 l/m² 0,0 km/h (0 Bft) O 94 ° 0 min 0 W/m² -5,1 °C -3,7 °C 0,0 km/h (0 Bft)
02.02.2025 22:17 22,3 °C -3,7 °C 53 % 90 % 1027,3 hPa 0,0 l/m² 0,0 km/h (0 Bft) O 94 ° 0 min 0 W/m² -5,1 °C -3,7 °C 0,0 km/h (0 Bft)
02.02.2025 22:18 22,3 °C -3,7 °C 53 % 90 % 1027,4 hPa 0,0 l/m² 0,0 km/h (0 Bft) O 94 ° 0 min 0 W/m² -5,1 °C -3,7 °C 0,0 km/h (0 Bft)
02.02.2025 22:19 22,3 °C -3,7 °C 53 % 90 % 1027,4 hPa 0,0 l/m² 0,0 km/h (0 Bft) O 94 ° 0 min 0 W/m² -5,1 °C -3,7 °C 0,0 km/h (0 Bft)
02.02.2025 22:20 22,3 °C -3,7 °C 53 % 90 % 1027,3 hPa 0,0 l/m² 0,0 km/h (0 Bft) O 94 ° 0 min 0 W/m² -5,1 °C -3,7 °C 0,0 km/h (0 Bft)
02.02.2025 22:21 22,3 °C -3,7 °C 53 % 90 % 1027,5 hPa 0,0 l/m² 0,0 km/h (0 Bft) O 94 ° 0 min 0 W/m² -5,1 °C -3,7 °C 0,0 km/h (0 Bft)
02.02.2025 22:22 22,3 °C -3,7 °C 53 % 90 % 1027,4 hPa 0,0 l/m² 0,0 km/h (0 Bft) O 94 ° 0 min 0 W/m² -5,1 °C -3,7 °C 0,0 km/h (0 Bft)
02.02.2025 22:23 22,3 °C -3,7 °C 53 % 90 % 1027,4 hPa 0,0 l/m² 0,0 km/h (0 Bft) O 94 ° 0 min 0 W/m² -5,1 °C -3,7 °C 0,0 km/h (0 Bft)
02.02.2025 22:24 22,3 °C -3,7 °C 53 % 90 % 1027,5 hPa 0,0 l/m² 0,0 km/h (0 Bft) O 94 ° 0 min 0 W/m² -5,1 °C -3,7 °C 0,0 km/h (0 Bft)
02.02.2025 22:25 22,3 °C -3,7 °C 53 % 90 % 1027,4 hPa 0,0 l/m² 0,0 km/h (0 Bft) O 94 ° 0 min 0 W/m² -5,1 °C -3,7 °C 0,0 km/h (0 Bft)
02.02.2025 22:26 22,3 °C -3,7 °C 53 % 90 % 1027,4 hPa 0,0 l/m² 0,0 km/h (0 Bft) O 94 ° 0 min 0 W/m² -5,1 °C -3,7 °C 0,0 km/h (0 Bft)
02.02.2025 22:27 22,3 °C -3,7 °C 53 % 90 % 1027,5 hPa 0,0 l/m² 0,0 km/h (0 Bft) O 94 ° 0 min 0 W/m² -5,1 °C -3,7 °C 0,0 km/h (0 Bft)
02.02.2025 22:28 22,3 °C -3,7 °C 53 % 90 % 1027,4 hPa 0,0 l/m² 0,0 km/h (0 Bft) O 94 ° 0 min 0 W/m² -5,1 °C -3,7 °C 0,0 km/h (0 Bft)
02.02.2025 22:29 22,3 °C -3,7 °C 53 % 90 % 1027,6 hPa 0,0 l/m² 0,0 km/h (0 Bft) O 94 ° 0 min 0 W/m² -5,1 °C -3,7 °C 0,0 km/h (0 Bft)
02.02.2025 22:30 22,3 °C -3,7 °C 53 % 90 % 1027,5 hPa 0,0 l/m² 0,0 km/h (0 Bft) O 94 ° 0 min 0 W/m² -5,1 °C -3,7 °C 0,0 km/h (0 Bft)
02.02.2025 22:31 22,3 °C -3,7 °C 53 % 90 % 1027,5 hPa 0,0 l/m² 0,0 km/h (0 Bft) O 94 ° 0 min 0 W/m² -5,1 °C -3,7 °C 0,0 km/h (0 Bft)
02.02.2025 22:32 22,2 °C -3,7 °C 53 % 90 % 1027,5 hPa 0,0 l/m² 0,0 km/h (0 Bft) O 94 ° 0 min 0 W/m² -5,1 °C -3,7 °C 0,0 km/h (0 Bft)
02.02.2025 22:33 22,3 °C -3,7 °C 53 % 90 % 1027,6 hPa 0,0 l/m² 0,0 km/h (0 Bft) O 94 ° 0 min 0 W/m² -5,1 °C -3,7 °C 0,0 km/h (0 Bft)
02.02.2025 22:34 22,2 °C -3,7 °C 53 % 90 % 1027,6 hPa 0,0 l/m² 0,0 km/h (0 Bft) O 94 ° 0 min 0 W/m² -5,1 °C -3,7 °C 0,0 km/h (0 Bft)
02.02.2025 22:35 22,3 °C -3,7 °C 53 % 90 % 1027,6 hPa 0,0 l/m² 0,0 km/h (0 Bft) O 94 ° 0 min 0 W/m² -5,1 °C -3,7 °C 0,0 km/h (0 Bft)
02.02.2025 22:36 22,2 °C -3,8 °C 53 % 90 % 1027,6 hPa 0,0 l/m² 0,0 km/h (0 Bft) O 94 ° 0 min 0 W/m² -5,2 °C -3,8 °C 0,0 km/h (0 Bft)
02.02.2025 22:37 22,3 °C -3,7 °C 53 % 90 % 1027,6 hPa 0,0 l/m² 0,0 km/h (0 Bft) O 94 ° 0 min 0 W/m² -5,1 °C -3,7 °C 0,0 km/h (0 Bft)
02.02.2025 22:38 22,2 °C -3,7 °C 53 % 90 % 1027,6 hPa 0,0 l/m² 0,0 km/h (0 Bft) O 94 ° 0 min 0 W/m² -5,1 °C -3,7 °C 0,0 km/h (0 Bft)
02.02.2025 22:39 22,2 °C -3,7 °C 53 % 90 % 1027,5 hPa 0,0 l/m² 0,0 km/h (0 Bft) O 94 ° 0 min 0 W/m² -5,1 °C -3,7 °C 0,0 km/h (0 Bft)
02.02.2025 22:40 22,2 °C -3,7 °C 53 % 90 % 1027,5 hPa 0,0 l/m² 0,0 km/h (0 Bft) O 94 ° 0 min 0 W/m² -5,1 °C -3,7 °C 0,0 km/h (0 Bft)
02.02.2025 22:41 22,2 °C -3,8 °C 53 % 90 % 1027,5 hPa 0,0 l/m² 0,0 km/h (0 Bft) O 94 ° 0 min 0 W/m² -5,2 °C -3,8 °C 0,0 km/h (0 Bft)
02.02.2025 22:42 22,3 °C -3,8 °C 53 % 90 % 1027,5 hPa 0,0 l/m² 0,0 km/h (0 Bft) O 94 ° 0 min 0 W/m² -5,2 °C -3,8 °C 0,0 km/h (0 Bft)
02.02.2025 22:43 22,2 °C -3,8 °C 53 % 90 % 1027,5 hPa 0,0 l/m² 0,0 km/h (0 Bft) O 94 ° 0 min 0 W/m² -5,2 °C -3,8 °C 0,0 km/h (0 Bft)
02.02.2025 22:44 22,2 °C -3,8 °C 53 % 90 % 1027,4 hPa 0,0 l/m² 0,0 km/h (0 Bft) O 94 ° 0 min 0 W/m² -5,2 °C -3,8 °C 0,0 km/h (0 Bft)
02.02.2025 22:45 22,2 °C -3,8 °C 53 % 90 % 1027,3 hPa 0,0 l/m² 0,0 km/h (0 Bft) O 94 ° 0 min 0 W/m² -5,2 °C -3,8 °C 0,0 km/h (0 Bft)
02.02.2025 22:46 22,2 °C -3,8 °C 53 % 90 % 1027,4 hPa 0,0 l/m² 0,0 km/h (0 Bft) O 94 ° 0 min 0 W/m² -5,2 °C -3,8 °C 0,0 km/h (0 Bft)
02.02.2025 22:47 22,2 °C -3,9 °C 53 % 90 % 1027,4 hPa 0,0 l/m² 0,0 km/h (0 Bft) O 94 ° 0 min 0 W/m² -5,3 °C -3,9 °C 0,0 km/h (0 Bft)
02.02.2025 22:48 22,2 °C -3,8 °C 53 % 90 % 1027,4 hPa 0,0 l/m² 0,0 km/h (0 Bft) O 94 ° 0 min 0 W/m² -5,2 °C -3,8 °C 0,0 km/h (0 Bft)
02.02.2025 22:49 22,2 °C -3,8 °C 53 % 90 % 1027,4 hPa 0,0 l/m² 0,0 km/h (0 Bft) O 94 ° 0 min 0 W/m² -5,2 °C -3,8 °C 0,0 km/h (0 Bft)
02.02.2025 22:50 22,2 °C -3,8 °C 53 % 90 % 1027,4 hPa 0,0 l/m² 0,0 km/h (0 Bft) O 94 ° 0 min 0 W/m² -5,2 °C -3,8 °C 0,0 km/h (0 Bft)
02.02.2025 22:51 22,2 °C -3,8 °C 53 % 90 % 1027,4 hPa 0,0 l/m² 0,0 km/h (0 Bft) O 94 ° 0 min 0 W/m² -5,2 °C -3,8 °C 0,0 km/h (0 Bft)
02.02.2025 22:52 22,2 °C -3,9 °C 53 % 90 % 1027,4 hPa 0,0 l/m² 0,0 km/h (0 Bft) O 94 ° 0 min 0 W/m² -5,3 °C -3,9 °C 0,0 km/h (0 Bft)
02.02.2025 22:53 22,2 °C -3,9 °C 53 % 90 % 1027,5 hPa 0,0 l/m² 0,0 km/h (0 Bft) O 94 ° 0 min 0 W/m² -5,3 °C -3,9 °C 0,0 km/h (0 Bft)
02.02.2025 22:54 22,2 °C -3,9 °C 53 % 90 % 1027,5 hPa 0,0 l/m² 0,0 km/h (0 Bft) O 94 ° 0 min 0 W/m² -5,3 °C -3,9 °C 0,0 km/h (0 Bft)
02.02.2025 22:55 22,2 °C -3,9 °C 53 % 90 % 1027,6 hPa 0,0 l/m² 0,0 km/h (0 Bft) O 94 ° 0 min 0 W/m² -5,3 °C -3,9 °C 0,0 km/h (0 Bft)
02.02.2025 22:56 22,2 °C -3,9 °C 53 % 90 % 1027,7 hPa 0,0 l/m² 0,0 km/h (0 Bft) O 94 ° 0 min 0 W/m² -5,3 °C -3,9 °C 0,0 km/h (0 Bft)
02.02.2025 22:57 22,2 °C -3,9 °C 53 % 90 % 1027,6 hPa 0,0 l/m² 0,0 km/h (0 Bft) O 94 ° 0 min 0 W/m² -5,3 °C -3,9 °C 0,0 km/h (0 Bft)
02.02.2025 22:58 22,2 °C -3,9 °C 53 % 90 % 1027,6 hPa 0,0 l/m² 0,0 km/h (0 Bft) O 94 ° 0 min 0 W/m² -5,3 °C -3,9 °C 0,0 km/h (0 Bft)
02.02.2025 22:59 22,2 °C -3,9 °C 53 % 90 % 1027,7 hPa 0,0 l/m² 0,0 km/h (0 Bft) O 94 ° 0 min 0 W/m² -5,3 °C -3,9 °C 0,0 km/h (0 Bft)
02.02.2025 23:00 22,2 °C -3,9 °C 53 % 90 % 1027,7 hPa 0,0 l/m² 0,0 km/h (0 Bft) O 94 ° 0 min 0 W/m² -5,3 °C -3,9 °C 0,0 km/h (0 Bft)
02.02.2025 23:01 22,2 °C -4,0 °C 53 % 90 % 1027,6 hPa 0,0 l/m² 0,0 km/h (0 Bft) O 94 ° 0 min 0 W/m² -5,4 °C -4,0 °C 0,0 km/h (0 Bft)
02.02.2025 23:02 22,2 °C -4,0 °C 53 % 90 % 1027,7 hPa 0,0 l/m² 0,0 km/h (0 Bft) O 94 ° 0 min 0 W/m² -5,4 °C -4,0 °C 0,0 km/h (0 Bft)
02.02.2025 23:03 22,2 °C -4,0 °C 53 % 90 % 1027,7 hPa 0,0 l/m² 0,0 km/h (0 Bft) O 94 ° 0 min 0 W/m² -5,4 °C -4,0 °C 0,0 km/h (0 Bft)
02.02.2025 23:04 22,2 °C -4,1 °C 53 % 90 % 1027,6 hPa 0,0 l/m² 0,0 km/h (0 Bft) O 94 ° 0 min 0 W/m² -5,5 °C -4,1 °C 0,0 km/h (0 Bft)
02.02.2025 23:05 22,2 °C -4,0 °C 53 % 90 % 1027,7 hPa 0,0 l/m² 0,0 km/h (0 Bft) O 94 ° 0 min 0 W/m² -5,4 °C -4,0 °C 0,0 km/h (0 Bft)
02.02.2025 23:06 22,2 °C -4,0 °C 53 % 90 % 1027,6 hPa 0,0 l/m² 0,0 km/h (0 Bft) O 94 ° 0 min 0 W/m² -5,4 °C -4,0 °C 0,0 km/h (0 Bft)
02.02.2025 23:07 22,2 °C -4,0 °C 53 % 90 % 1027,6 hPa 0,0 l/m² 0,0 km/h (0 Bft) O 94 ° 0 min 0 W/m² -5,4 °C -4,0 °C 0,0 km/h (0 Bft)
02.02.2025 23:08 22,1 °C -3,9 °C 53 % 90 % 1027,6 hPa 0,0 l/m² 0,0 km/h (0 Bft) O 94 ° 0 min 0 W/m² -5,3 °C -3,9 °C 0,0 km/h (0 Bft)
02.02.2025 23:09 22,1 °C -3,9 °C 53 % 90 % 1027,6 hPa 0,0 l/m² 0,0 km/h (0 Bft) O 94 ° 0 min 0 W/m² -5,3 °C -3,9 °C 0,0 km/h (0 Bft)
02.02.2025 23:10 22,2 °C -3,9 °C 53 % 91 % 1027,6 hPa 0,0 l/m² 0,0 km/h (0 Bft) O 94 ° 0 min 0 W/m² -5,1 °C -3,9 °C 0,0 km/h (0 Bft)
02.02.2025 23:11 22,2 °C -3,9 °C 53 % 90 % 1027,6 hPa 0,0 l/m² 0,0 km/h (0 Bft) O 94 ° 0 min 0 W/m² -5,3 °C -3,9 °C 0,0 km/h (0 Bft)
02.02.2025 23:12 22,1 °C -3,8 °C 53 % 90 % 1027,7 hPa 0,0 l/m² 0,0 km/h (0 Bft) O 94 ° 0 min 0 W/m² -5,2 °C -3,8 °C 0,0 km/h (0 Bft)
02.02.2025 23:13 22,1 °C -3,8 °C 53 % 91 % 1027,6 hPa 0,0 l/m² 0,0 km/h (0 Bft) O 94 ° 0 min 0 W/m² -5,0 °C -3,8 °C 0,0 km/h (0 Bft)
02.02.2025 23:14 22,1 °C -3,8 °C 53 % 90 % 1027,6 hPa 0,0 l/m² 0,0 km/h (0 Bft) O 94 ° 0 min 0 W/m² -5,2 °C -3,8 °C 0,0 km/h (0 Bft)
02.02.2025 23:15 22,1 °C -3,8 °C 53 % 90 % 1027,6 hPa 0,0 l/m² 0,0 km/h (0 Bft) O 94 ° 0 min 0 W/m² -5,2 °C -3,8 °C 0,0 km/h (0 Bft)
02.02.2025 23:16 22,1 °C -3,8 °C 53 % 90 % 1027,6 hPa 0,0 l/m² 0,0 km/h (0 Bft) N 0 ° 0 min 0 W/m² -5,2 °C -3,8 °C 0,0 km/h (0 Bft)
02.02.2025 23:21 22,1 °C -3,7 °C 53 % 91 % 1027,7 hPa 0,0 l/m² 0,0 km/h (0 Bft) O 94 ° 0 min 0 W/m² -4,9 °C -3,7 °C 0,0 km/h (0 Bft)
02.02.2025 23:23 22,1 °C -3,7 °C 53 % 90 % 1027,8 hPa 0,0 l/m² 0,0 km/h (0 Bft) O 94 ° 0 min 0 W/m² -5,1 °C -3,7 °C 0,0 km/h (0 Bft)
02.02.2025 23:24 22,1 °C -3,7 °C 53 % 90 % 1027,8 hPa 0,0 l/m² 0,0 km/h (0 Bft) O 94 ° 0 min 0 W/m² -5,1 °C -3,7 °C 0,0 km/h (0 Bft)
02.02.2025 23:26 22,1 °C -3,8 °C 53 % 90 % 1027,8 hPa 0,0 l/m² 0,0 km/h (0 Bft) O 94 ° 0 min 0 W/m² -5,2 °C -3,8 °C 0,0 km/h (0 Bft)
02.02.2025 23:28 22,1 °C -3,8 °C 53 % 90 % 1027,8 hPa 0,0 l/m² 0,0 km/h (0 Bft) O 94 ° 0 min 0 W/m² -5,2 °C -3,8 °C 0,0 km/h (0 Bft)
02.02.2025 23:30 22,1 °C -3,8 °C 53 % 91 % 1027,8 hPa 0,0 l/m² 0,0 km/h (0 Bft) O 94 ° 0 min 0 W/m² -5,0 °C -3,8 °C 0,0 km/h (0 Bft)
02.02.2025 23:31 22,1 °C -3,7 °C 53 % 91 % 1027,8 hPa 0,0 l/m² 0,0 km/h (0 Bft) O 94 ° 0 min 0 W/m² -4,9 °C -3,7 °C 0,0 km/h (0 Bft)
02.02.2025 23:32 22,1 °C -3,7 °C 53 % 91 % 1027,8 hPa 0,0 l/m² 0,0 km/h (0 Bft) O 94 ° 0 min 0 W/m² -4,9 °C -3,7 °C 0,0 km/h (0 Bft)
02.02.2025 23:34 22,1 °C -3,7 °C 53 % 91 % 1027,8 hPa 0,0 l/m² 0,0 km/h (0 Bft) O 94 ° 0 min 0 W/m² -4,9 °C -3,7 °C 0,0 km/h (0 Bft)
02.02.2025 23:36 22,1 °C -3,6 °C 53 % 91 % 1027,8 hPa 0,0 l/m² 0,0 km/h (0 Bft) O 94 ° 0 min 0 W/m² -4,8 °C -3,6 °C 0,0 km/h (0 Bft)
02.02.2025 23:38 22,1 °C -3,5 °C 53 % 91 % 1027,8 hPa 0,0 l/m² 0,0 km/h (0 Bft) O 94 ° 0 min 0 W/m² -4,8 °C -3,5 °C 0,0 km/h (0 Bft)
02.02.2025 23:40 22,1 °C -3,5 °C 53 % 91 % 1027,8 hPa 0,0 l/m² 0,0 km/h (0 Bft) O 94 ° 0 min 0 W/m² -4,8 °C -3,5 °C 0,0 km/h (0 Bft)
02.02.2025 23:41 22,1 °C -3,4 °C 53 % 91 % 1027,7 hPa 0,0 l/m² 0,0 km/h (0 Bft) O 94 ° 0 min 0 W/m² -4,7 °C -3,4 °C 0,0 km/h (0 Bft)
02.02.2025 23:42 22,1 °C -3,4 °C 53 % 91 % 1027,7 hPa 0,0 l/m² 0,0 km/h (0 Bft) O 94 ° 0 min 0 W/m² -4,7 °C -3,4 °C 0,0 km/h (0 Bft)
02.02.2025 23:44 22,1 °C -3,4 °C 53 % 91 % 1027,8 hPa 0,0 l/m² 0,0 km/h (0 Bft) O 94 ° 0 min 0 W/m² -4,7 °C -3,4 °C 0,0 km/h (0 Bft)
02.02.2025 23:46 22,1 °C -3,4 °C 53 % 91 % 1027,7 hPa 0,0 l/m² 0,0 km/h (0 Bft) O 94 ° 0 min 0 W/m² -4,7 °C -3,4 °C 0,0 km/h (0 Bft)
02.02.2025 23:48 22,1 °C -3,4 °C 53 % 91 % 1027,8 hPa 0,0 l/m² 0,0 km/h (0 Bft) O 94 ° 0 min 0 W/m² -4,7 °C -3,4 °C 0,0 km/h (0 Bft)
02.02.2025 23:50 22,1 °C -3,4 °C 53 % 91 % 1027,9 hPa 0,0 l/m² 0,0 km/h (0 Bft) O 94 ° 0 min 0 W/m² -4,7 °C -3,4 °C 0,0 km/h (0 Bft)
02.02.2025 23:51 22,1 °C -3,4 °C 53 % 91 % 1027,9 hPa 0,0 l/m² 0,0 km/h (0 Bft) O 94 ° 0 min 0 W/m² -4,7 °C -3,4 °C 0,0 km/h (0 Bft)
02.02.2025 23:52 22,1 °C -3,3 °C 53 % 91 % 1027,9 hPa 0,0 l/m² 0,0 km/h (0 Bft) O 94 ° 0 min 0 W/m² -4,6 °C -3,3 °C 0,0 km/h (0 Bft)
02.02.2025 23:54 22,1 °C -3,3 °C 53 % 91 % 1028,0 hPa 0,0 l/m² 0,0 km/h (0 Bft) O 94 ° 0 min 0 W/m² -4,6 °C -3,3 °C 0,0 km/h (0 Bft)
02.02.2025 23:56 22,1 °C -3,3 °C 53 % 91 % 1027,9 hPa 0,0 l/m² 0,0 km/h (0 Bft) O 94 ° 0 min 0 W/m² -4,6 °C -3,3 °C 0,0 km/h (0 Bft)
02.02.2025 23:58 22,1 °C -3,3 °C 53 % 91 % 1027,9 hPa 0,0 l/m² 0,0 km/h (0 Bft) O 94 ° 0 min 0 W/m² -4,6 °C -3,3 °C 0,0 km/h (0 Bft)
_ Min-Zeit 04:37 23:04 12:37 14:12 15:54 - 23:58 - - - - 23:04 23:04 23:58
Minimum _ 21,4 °C -4,1 °C 45 % 61 % 1026,0 hPa - 0,0 km/h (0 Bft) - - - - -5,5 °C -4,1 °C 0,0 km/h (0 Bft)
_ Max-Zeit 13:05 13:39 21:10 10:56 00:05 23:58 14:23 - - 14:36 13:00 11:43 13:39 13:05
Maximum _ 23,3 °C 5,8 °C 55 % 93 % 1030,1 hPa 0,0 l/m² 14,7 km/h
S-SO (3 Bft)
- - 5 min 483 W/m² 1,0 °C 5,8 °C 22,5 km/h
O-SO (4 Bft)
Durchschnitt _ 22,1 °C -0,1 °C 50 % 85 % 1027,6 hPa #0,0 l/m² 1,1 km/h (0 Bft) O-SO - #7:29 h 79 W/m² -2,4 °C -0,2 °C 1,9 km/h (1 Bft)
© 2009 Mathias Hoßbach